<?xml version="1.0" encoding="UTF-8" standalone="no" ?>
<gpx xmlns="http://www.topografix.com/GPX/1/1" creator="MapSource 6.16.3" version="1.1" xmlns:xsi="http://www.w3.org/2001/XMLSchema-instance" xsi:schemaLocation="http://www.topografix.com/GPX/1/1 http://www.topografix.com/GPX/1/1/gpx.xsd">

  <metadata>
    <link href="http://www.garmin.com">
      <text>Garmin International</text>
    </link>
    <time>2016-09-17T12:29:25Z</time>
    <bounds maxlat="46.11210823059082" maxlon="9.089577198028565" minlat="46.075587272644043" minlon="8.988919258117676"/>
  </metadata>

  <wpt lat="46.100116660818458" lon="9.013749975711107">
    <name>CAPANNA M.TE BAR</name>
    <sym>Building</sym>
    <extensions>
      <gpxx:WaypointExtension xmlns:gpxx="http://www.garmin.com/xmlschemas/GpxExtensions/v3">
        <gpxx:DisplayMode>SymbolAndName</gpxx:DisplayMode>
      </gpxx:WaypointExtension>
    </extensions>
  </wpt>

  <wpt lat="46.07599999755621" lon="8.990266649052501">
    <name>PARTENZA / ARRIVO</name>
    <sym>Trail Head</sym>
    <extensions>
      <gpxx:WaypointExtension xmlns:gpxx="http://www.garmin.com/xmlschemas/GpxExtensions/v3">
        <gpxx:DisplayMode>SymbolAndName</gpxx:DisplayMode>
      </gpxx:WaypointExtension>
    </extensions>
  </wpt>

  <wpt lat="46.087416652590036" lon="9.089400004595518">
    <name>PASSO SAN LUCIO</name>
    <cmt>Schweiz</cmt>
    <desc>Schweiz</desc>
    <sym>Building</sym>
    <extensions>
      <gpxx:WaypointExtension xmlns:gpxx="http://www.garmin.com/xmlschemas/GpxExtensions/v3">
        <gpxx:DisplayMode>SymbolAndName</gpxx:DisplayMode>
      </gpxx:WaypointExtension>
    </extensions>
  </wpt>

  <trk>
    <name>ACTIVE LOG</name>
    <trkseg>
      <trkpt lat="46.075994968414307" lon="8.990271091461182">
        <ele>778.324462890625</ele>
        <time>2008-07-20T07:56:47Z</time>
      </trkpt>
      <trkpt lat="46.07590913772583" lon="8.990528583526611">
        <ele>747.562255859375</ele>
        <time>2008-07-20T07:57:46Z</time>
      </trkpt>
      <trkpt lat="46.075887680053711" lon="8.990914821624756">
        <ele>747.562255859375</ele>
        <time>2008-07-20T07:58:01Z</time>
      </trkpt>
      <trkpt lat="46.075844764709473" lon="8.991279602050781">
        <ele>748.523681640625</ele>
        <time>2008-07-20T07:58:15Z</time>
      </trkpt>
      <trkpt lat="46.075823307037354" lon="8.991601467132568">
        <ele>747.08154296875</ele>
        <time>2008-07-20T07:58:27Z</time>
      </trkpt>
      <trkpt lat="46.075866222381592" lon="8.992094993591309">
        <ele>748.523681640625</ele>
        <time>2008-07-20T07:58:50Z</time>
      </trkpt>
      <trkpt lat="46.075930595397949" lon="8.992352485656738">
        <ele>751.40771484375</ele>
        <time>2008-07-20T07:59:03Z</time>
      </trkpt>
      <trkpt lat="46.076102256774902" lon="8.992652893066406">
        <ele>755.2529296875</ele>
        <time>2008-07-20T07:59:18Z</time>
      </trkpt>
      <trkpt lat="46.076295375823975" lon="8.993017673492432">
        <ele>754.291748046875</ele>
        <time>2008-07-20T07:59:37Z</time>
      </trkpt>
      <trkpt lat="46.076445579528809" lon="8.993360996246338">
        <ele>756.69482421875</ele>
        <time>2008-07-20T07:59:54Z</time>
      </trkpt>
      <trkpt lat="46.076681613922119" lon="8.994154930114746">
        <ele>759.578857421875</ele>
        <time>2008-07-20T08:00:31Z</time>
      </trkpt>
      <trkpt lat="46.076724529266357" lon="8.994390964508057">
        <ele>761.50146484375</ele>
        <time>2008-07-20T08:00:41Z</time>
      </trkpt>
      <trkpt lat="46.076810359954834" lon="8.994626998901367">
        <ele>763.904541015625</ele>
        <time>2008-07-20T08:00:52Z</time>
      </trkpt>
      <trkpt lat="46.076982021331787" lon="8.994841575622559">
        <ele>765.82763671875</ele>
        <time>2008-07-20T08:01:09Z</time>
      </trkpt>
      <trkpt lat="46.077089309692383" lon="8.994991779327393">
        <ele>766.788818359375</ele>
        <time>2008-07-20T08:01:18Z</time>
      </trkpt>
      <trkpt lat="46.077175140380859" lon="8.995399475097656">
        <ele>770.634033203125</ele>
        <time>2008-07-20T08:01:38Z</time>
      </trkpt>
      <trkpt lat="46.077196598052979" lon="8.995635509490967">
        <ele>771.59521484375</ele>
        <time>2008-07-20T08:01:48Z</time>
      </trkpt>
      <trkpt lat="46.077260971069336" lon="8.995871543884277">
        <ele>773.51806640625</ele>
        <time>2008-07-20T08:01:58Z</time>
      </trkpt>
      <trkpt lat="46.077325344085693" lon="8.996150493621826">
        <ele>775.4404296875</ele>
        <time>2008-07-20T08:02:10Z</time>
      </trkpt>
      <trkpt lat="46.077368259429932" lon="8.996386528015137">
        <ele>776.882568359375</ele>
        <time>2008-07-20T08:02:20Z</time>
      </trkpt>
      <trkpt lat="46.077454090118408" lon="8.996644020080566">
        <ele>778.324462890625</ele>
        <time>2008-07-20T08:02:32Z</time>
      </trkpt>
      <trkpt lat="46.077518463134766" lon="8.996880054473877">
        <ele>779.766357421875</ele>
        <time>2008-07-20T08:02:42Z</time>
      </trkpt>
      <trkpt lat="46.077582836151123" lon="8.997073173522949">
        <ele>781.689208984375</ele>
        <time>2008-07-20T08:02:51Z</time>
      </trkpt>
      <trkpt lat="46.0776686668396" lon="8.997287750244141">
        <ele>783.131103515625</ele>
        <time>2008-07-20T08:03:02Z</time>
      </trkpt>
      <trkpt lat="46.077754497528076" lon="8.99754524230957">
        <ele>784.5732421875</ele>
        <time>2008-07-20T08:03:15Z</time>
      </trkpt>
      <trkpt lat="46.077861785888672" lon="8.997781276702881">
        <ele>785.534423828125</ele>
        <time>2008-07-20T08:03:27Z</time>
      </trkpt>
      <trkpt lat="46.077969074249268" lon="8.99806022644043">
        <ele>787.937744140625</ele>
        <time>2008-07-20T08:03:41Z</time>
      </trkpt>
      <trkpt lat="46.078054904937744" lon="8.998339176177979">
        <ele>789.8603515625</ele>
        <time>2008-07-20T08:03:54Z</time>
      </trkpt>
      <trkpt lat="46.078183650970459" lon="8.998596668243408">
        <ele>792.744384765625</ele>
        <time>2008-07-20T08:04:07Z</time>
      </trkpt>
      <trkpt lat="46.078290939331055" lon="8.998875617980957">
        <ele>793.70556640625</ele>
        <time>2008-07-20T08:04:21Z</time>
      </trkpt>
      <trkpt lat="46.078355312347412" lon="8.999068737030029">
        <ele>794.666748046875</ele>
        <time>2008-07-20T08:04:30Z</time>
      </trkpt>
      <trkpt lat="46.078462600708008" lon="8.999283313751221">
        <ele>795.628173828125</ele>
        <time>2008-07-20T08:04:41Z</time>
      </trkpt>
      <trkpt lat="46.078569889068604" lon="8.999519348144531">
        <ele>798.03173828125</ele>
        <time>2008-07-20T08:04:53Z</time>
      </trkpt>
      <trkpt lat="46.07865571975708" lon="8.999755382537842">
        <ele>799.954345703125</ele>
        <time>2008-07-20T08:05:05Z</time>
      </trkpt>
      <trkpt lat="46.078698635101318" lon="8.99979829788208">
        <ele>800.43505859375</ele>
        <time>2008-07-20T08:05:09Z</time>
      </trkpt>
      <trkpt lat="46.078741550445557" lon="8.999669551849365">
        <ele>801.396240234375</ele>
        <time>2008-07-20T08:05:15Z</time>
      </trkpt>
      <trkpt lat="46.078720092773438" lon="8.999605178833008">
        <ele>802.357421875</ele>
        <time>2008-07-20T08:05:18Z</time>
      </trkpt>
      <trkpt lat="46.07865571975708" lon="8.99930477142334">
        <ele>806.20263671875</ele>
        <time>2008-07-20T08:05:31Z</time>
      </trkpt>
      <trkpt lat="46.078612804412842" lon="8.999068737030029">
        <ele>807.644775390625</ele>
        <time>2008-07-20T08:05:42Z</time>
      </trkpt>
      <trkpt lat="46.078569889068604" lon="8.9988112449646">
        <ele>810.528564453125</ele>
        <time>2008-07-20T08:05:54Z</time>
      </trkpt>
      <trkpt lat="46.078526973724365" lon="8.998532295227051">
        <ele>812.451416015625</ele>
        <time>2008-07-20T08:06:07Z</time>
      </trkpt>
      <trkpt lat="46.078526973724365" lon="8.998510837554932">
        <ele>812.451416015625</ele>
        <time>2008-07-20T08:06:08Z</time>
      </trkpt>
      <trkpt lat="46.078505516052246" lon="8.998403549194336">
        <ele>813.412841796875</ele>
        <time>2008-07-20T08:06:12Z</time>
      </trkpt>
      <trkpt lat="46.078441143035889" lon="8.998146057128906">
        <ele>815.816162109375</ele>
        <time>2008-07-20T08:06:24Z</time>
      </trkpt>
      <trkpt lat="46.07839822769165" lon="8.997888565063477">
        <ele>818.21923828125</ele>
        <time>2008-07-20T08:06:36Z</time>
      </trkpt>
      <trkpt lat="46.078333854675293" lon="8.997609615325928">
        <ele>820.141845703125</ele>
        <time>2008-07-20T08:06:49Z</time>
      </trkpt>
      <trkpt lat="46.078312397003174" lon="8.997352123260498">
        <ele>823.02587890625</ele>
        <time>2008-07-20T08:07:00Z</time>
      </trkpt>
      <trkpt lat="46.078226566314697" lon="8.997073173522949">
        <ele>824.4677734375</ele>
        <time>2008-07-20T08:07:13Z</time>
      </trkpt>
      <trkpt lat="46.078205108642578" lon="8.996837139129639">
        <ele>826.390380859375</ele>
        <time>2008-07-20T08:07:24Z</time>
      </trkpt>
      <trkpt lat="46.078205108642578" lon="8.996622562408447">
        <ele>828.313232421875</ele>
        <time>2008-07-20T08:07:34Z</time>
      </trkpt>
      <trkpt lat="46.078226566314697" lon="8.996450901031494">
        <ele>829.755126953125</ele>
        <time>2008-07-20T08:07:42Z</time>
      </trkpt>
      <trkpt lat="46.078226566314697" lon="8.996171951293945">
        <ele>833.11962890625</ele>
        <time>2008-07-20T08:07:54Z</time>
      </trkpt>
      <trkpt lat="46.078183650970459" lon="8.995914459228516">
        <ele>836.484375</ele>
        <time>2008-07-20T08:08:06Z</time>
      </trkpt>
      <trkpt lat="46.07816219329834" lon="8.995635509490967">
        <ele>838.8876953125</ele>
        <time>2008-07-20T08:08:19Z</time>
      </trkpt>
      <trkpt lat="46.078140735626221" lon="8.995399475097656">
        <ele>838.8876953125</ele>
        <time>2008-07-20T08:08:31Z</time>
      </trkpt>
      <trkpt lat="46.07816219329834" lon="8.995141983032227">
        <ele>836.484375</ele>
        <time>2008-07-20T08:08:43Z</time>
      </trkpt>
      <trkpt lat="46.078205108642578" lon="8.994884490966797">
        <ele>837.445556640625</ele>
        <time>2008-07-20T08:08:55Z</time>
      </trkpt>
      <trkpt lat="46.078290939331055" lon="8.994626998901367">
        <ele>836.484375</ele>
        <time>2008-07-20T08:09:09Z</time>
      </trkpt>
      <trkpt lat="46.078312397003174" lon="8.994390964508057">
        <ele>837.445556640625</ele>
        <time>2008-07-20T08:09:20Z</time>
      </trkpt>
      <trkpt lat="46.07816219329834" lon="8.994240760803223">
        <ele>838.8876953125</ele>
        <time>2008-07-20T08:09:30Z</time>
      </trkpt>
      <trkpt lat="46.077969074249268" lon="8.994090557098389">
        <ele>842.73291015625</ele>
        <time>2008-07-20T08:09:43Z</time>
      </trkpt>
      <trkpt lat="46.077926158905029" lon="8.994026184082031">
        <ele>843.21337890625</ele>
        <time>2008-07-20T08:09:46Z</time>
      </trkpt>
      <trkpt lat="46.07790470123291" lon="8.993725776672363">
        <ele>844.175048828125</ele>
        <time>2008-07-20T08:09:58Z</time>
      </trkpt>
      <trkpt lat="46.07790470123291" lon="8.993511199951172">
        <ele>845.616943359375</ele>
        <time>2008-07-20T08:10:07Z</time>
      </trkpt>
      <trkpt lat="46.077840328216553" lon="8.993253707885742">
        <ele>845.13623046875</ele>
        <time>2008-07-20T08:10:17Z</time>
      </trkpt>
      <trkpt lat="46.077775955200195" lon="8.992974758148193">
        <ele>848.500732421875</ele>
        <time>2008-07-20T08:10:29Z</time>
      </trkpt>
      <trkpt lat="46.077711582183838" lon="8.992695808410645">
        <ele>850.423583984375</ele>
        <time>2008-07-20T08:10:42Z</time>
      </trkpt>
      <trkpt lat="46.07764720916748" lon="8.992502689361572">
        <ele>849.462158203125</ele>
        <time>2008-07-20T08:10:50Z</time>
      </trkpt>
      <trkpt lat="46.077711582183838" lon="8.992459774017334">
        <ele>849.462158203125</ele>
        <time>2008-07-20T08:10:55Z</time>
      </trkpt>
      <trkpt lat="46.077797412872314" lon="8.992588520050049">
        <ele>849.94287109375</ele>
        <time>2008-07-20T08:11:04Z</time>
      </trkpt>
      <trkpt lat="46.078097820281982" lon="8.993124961853027">
        <ele>852.345947265625</ele>
        <time>2008-07-20T08:11:37Z</time>
      </trkpt>
      <trkpt lat="46.078205108642578" lon="8.993446826934815">
        <ele>854.749267578125</ele>
        <time>2008-07-20T08:11:53Z</time>
      </trkpt>
      <trkpt lat="46.078269481658936" lon="8.993725776672363">
        <ele>859.0751953125</ele>
        <time>2008-07-20T08:12:05Z</time>
      </trkpt>
      <trkpt lat="46.078376770019531" lon="8.993961811065674">
        <ele>860.517333984375</ele>
        <time>2008-07-20T08:12:17Z</time>
      </trkpt>
      <trkpt lat="46.078526973724365" lon="8.994090557098389">
        <ele>861.95947265625</ele>
        <time>2008-07-20T08:12:28Z</time>
      </trkpt>
      <trkpt lat="46.078720092773438" lon="8.99430513381958">
        <ele>863.8818359375</ele>
        <time>2008-07-20T08:12:43Z</time>
      </trkpt>
      <trkpt lat="46.078805923461914" lon="8.994626998901367">
        <ele>865.323974609375</ele>
        <time>2008-07-20T08:13:01Z</time>
      </trkpt>
      <trkpt lat="46.078720092773438" lon="8.994905948638916">
        <ele>872.052978515625</ele>
        <time>2008-07-20T08:13:15Z</time>
      </trkpt>
      <trkpt lat="46.07865571975708" lon="8.995163440704346">
        <ele>874.456298828125</ele>
        <time>2008-07-20T08:13:27Z</time>
      </trkpt>
      <trkpt lat="46.07865571975708" lon="8.995420932769775">
        <ele>874.456298828125</ele>
        <time>2008-07-20T08:13:39Z</time>
      </trkpt>
      <trkpt lat="46.078784465789795" lon="8.995828628540039">
        <ele>875.41748046875</ele>
        <time>2008-07-20T08:14:01Z</time>
      </trkpt>
      <trkpt lat="46.078848838806152" lon="8.996086120605469">
        <ele>875.898193359375</ele>
        <time>2008-07-20T08:14:13Z</time>
      </trkpt>
      <trkpt lat="46.07891321182251" lon="8.996193408966065">
        <ele>876.379150390625</ele>
        <time>2008-07-20T08:14:19Z</time>
      </trkpt>
      <trkpt lat="46.078956127166748" lon="8.996279239654541">
        <ele>877.821044921875</ele>
        <time>2008-07-20T08:14:23Z</time>
      </trkpt>
      <trkpt lat="46.079063415527344" lon="8.99655818939209">
        <ele>875.898193359375</ele>
        <time>2008-07-20T08:14:38Z</time>
      </trkpt>
      <trkpt lat="46.079192161560059" lon="8.9967942237854">
        <ele>881.666259765625</ele>
        <time>2008-07-20T08:14:50Z</time>
      </trkpt>
      <trkpt lat="46.079385280609131" lon="8.997030258178711">
        <ele>880.705078125</ele>
        <time>2008-07-20T08:15:07Z</time>
      </trkpt>
      <trkpt lat="46.079556941986084" lon="8.997395038604736">
        <ele>882.14697265625</ele>
        <time>2008-07-20T08:15:24Z</time>
      </trkpt>
      <trkpt lat="46.079750061035156" lon="8.997802734375">
        <ele>885.031005859375</ele>
        <time>2008-07-20T08:15:42Z</time>
      </trkpt>
      <trkpt lat="46.079857349395752" lon="8.99806022644043">
        <ele>888.3955078125</ele>
        <time>2008-07-20T08:15:53Z</time>
      </trkpt>
      <trkpt lat="46.080007553100586" lon="8.998317718505859">
        <ele>888.876220703125</ele>
        <time>2008-07-20T08:16:07Z</time>
      </trkpt>
      <trkpt lat="46.080222129821777" lon="8.998446464538574">
        <ele>892.240966796875</ele>
        <time>2008-07-20T08:16:21Z</time>
      </trkpt>
      <trkpt lat="46.080436706542969" lon="8.99855375289917">
        <ele>896.086181640625</ele>
        <time>2008-07-20T08:16:35Z</time>
      </trkpt>
      <trkpt lat="46.080543994903564" lon="8.998682498931885">
        <ele>898.969970703125</ele>
        <time>2008-07-20T08:16:44Z</time>
      </trkpt>
      <trkpt lat="46.080715656280518" lon="8.9988112449646">
        <ele>902.815185546875</ele>
        <time>2008-07-20T08:16:56Z</time>
      </trkpt>
      <trkpt lat="46.08090877532959" lon="8.998939990997315">
        <ele>904.73779296875</ele>
        <time>2008-07-20T08:17:10Z</time>
      </trkpt>
      <trkpt lat="46.081058979034424" lon="8.999004364013672">
        <ele>906.1796875</ele>
        <time>2008-07-20T08:17:20Z</time>
      </trkpt>
      <trkpt lat="46.081209182739258" lon="8.999154567718506">
        <ele>909.544677734375</ele>
        <time>2008-07-20T08:17:33Z</time>
      </trkpt>
      <trkpt lat="46.081359386444092" lon="8.999347686767578">
        <ele>913.870361328125</ele>
        <time>2008-07-20T08:17:47Z</time>
      </trkpt>
      <trkpt lat="46.081488132476807" lon="8.999519348144531">
        <ele>914.35107421875</ele>
        <time>2008-07-20T08:17:58Z</time>
      </trkpt>
      <trkpt lat="46.08165979385376" lon="8.999755382537842">
        <ele>917.235107421875</ele>
        <time>2008-07-20T08:18:14Z</time>
      </trkpt>
      <trkpt lat="46.081767082214355" lon="8.999905586242676">
        <ele>918.677001953125</ele>
        <time>2008-07-20T08:18:24Z</time>
      </trkpt>
      <trkpt lat="46.081874370574951" lon="8.999991416931152">
        <ele>920.599609375</ele>
        <time>2008-07-20T08:18:34Z</time>
      </trkpt>
      <trkpt lat="46.081960201263428" lon="9.000098705291748">
        <ele>921.560791015625</ele>
        <time>2008-07-20T08:18:43Z</time>
      </trkpt>
      <trkpt lat="46.082067489624023" lon="9.000227451324463">
        <ele>921.080322265625</ele>
        <time>2008-07-20T08:18:53Z</time>
      </trkpt>
      <trkpt lat="46.082174777984619" lon="9.00031328201294">
        <ele>921.560791015625</ele>
        <time>2008-07-20T08:19:01Z</time>
      </trkpt>
      <trkpt lat="46.082282066345215" lon="9.00031328201294">
        <ele>922.522216796875</ele>
        <time>2008-07-20T08:19:10Z</time>
      </trkpt>
      <trkpt lat="46.082260608673096" lon="9.000163078308106">
        <ele>923.483642578125</ele>
        <time>2008-07-20T08:19:18Z</time>
      </trkpt>
      <trkpt lat="46.082239151000977" lon="9.000163078308106">
        <ele>923.964111328125</ele>
        <time>2008-07-20T08:19:19Z</time>
      </trkpt>
      <trkpt lat="46.082088947296143" lon="8.999948501586914">
        <ele>923.964111328125</ele>
        <time>2008-07-20T08:19:33Z</time>
      </trkpt>
      <trkpt lat="46.081960201263428" lon="8.99979829788208">
        <ele>924.92578125</ele>
        <time>2008-07-20T08:19:43Z</time>
      </trkpt>
      <trkpt lat="46.081852912902832" lon="8.999626636505127">
        <ele>926.848388671875</ele>
        <time>2008-07-20T08:19:54Z</time>
      </trkpt>
      <trkpt lat="46.081767082214355" lon="8.999454975128174">
        <ele>928.290283203125</ele>
        <time>2008-07-20T08:20:05Z</time>
      </trkpt>
      <trkpt lat="46.081681251525879" lon="8.999240398406982">
        <ele>929.25146484375</ele>
        <time>2008-07-20T08:20:17Z</time>
      </trkpt>
      <trkpt lat="46.081681251525879" lon="8.999240398406982">
        <ele>929.25146484375</ele>
        <time>2008-07-20T08:20:18Z</time>
      </trkpt>
      <trkpt lat="46.081638336181641" lon="8.999154567718506">
        <ele>930.693603515625</ele>
        <time>2008-07-20T08:20:22Z</time>
      </trkpt>
      <trkpt lat="46.081552505493164" lon="8.998961448669434">
        <ele>932.135498046875</ele>
        <time>2008-07-20T08:20:34Z</time>
      </trkpt>
      <trkpt lat="46.081445217132568" lon="8.998746871948242">
        <ele>935.01953125</ele>
        <time>2008-07-20T08:20:47Z</time>
      </trkpt>
      <trkpt lat="46.081380844116211" lon="8.998596668243408">
        <ele>936.46142578125</ele>
        <time>2008-07-20T08:20:57Z</time>
      </trkpt>
      <trkpt lat="46.081252098083496" lon="8.998317718505859">
        <ele>938.86474609375</ele>
        <time>2008-07-20T08:21:16Z</time>
      </trkpt>
      <trkpt lat="46.081230640411377" lon="8.998253345489502">
        <ele>938.86474609375</ele>
        <time>2008-07-20T08:21:20Z</time>
      </trkpt>
      <trkpt lat="46.0811448097229" lon="8.998017311096191">
        <ele>940.306884765625</ele>
        <time>2008-07-20T08:21:35Z</time>
      </trkpt>
      <trkpt lat="46.081058979034424" lon="8.997781276702881">
        <ele>944.632568359375</ele>
        <time>2008-07-20T08:21:51Z</time>
      </trkpt>
      <trkpt lat="46.080994606018066" lon="8.997673988342285">
        <ele>947.035888671875</ele>
        <time>2008-07-20T08:22:01Z</time>
      </trkpt>
      <trkpt lat="46.080930233001709" lon="8.997631072998047">
        <ele>948.477783203125</ele>
        <time>2008-07-20T08:22:08Z</time>
      </trkpt>
      <trkpt lat="46.080822944641113" lon="8.997459411621094">
        <ele>950.881103515625</ele>
        <time>2008-07-20T08:22:25Z</time>
      </trkpt>
      <trkpt lat="46.080801486968994" lon="8.997416496276856">
        <ele>951.842529296875</ele>
        <time>2008-07-20T08:22:29Z</time>
      </trkpt>
      <trkpt lat="46.080780029296875" lon="8.997159004211426">
        <ele>952.8037109375</ele>
        <time>2008-07-20T08:22:42Z</time>
      </trkpt>
      <trkpt lat="46.080737113952637" lon="8.996922969818115">
        <ele>955.687744140625</ele>
        <time>2008-07-20T08:22:55Z</time>
      </trkpt>
      <trkpt lat="46.080715656280518" lon="8.996708393096924">
        <ele>958.57177734375</ele>
        <time>2008-07-20T08:23:07Z</time>
      </trkpt>
      <trkpt lat="46.08065128326416" lon="8.996493816375732">
        <ele>961.455810546875</ele>
        <time>2008-07-20T08:23:21Z</time>
      </trkpt>
      <trkpt lat="46.080608367919922" lon="8.99630069732666">
        <ele>963.85888671875</ele>
        <time>2008-07-20T08:23:32Z</time>
      </trkpt>
      <trkpt lat="46.080543994903564" lon="8.996129035949707">
        <ele>964.8203125</ele>
        <time>2008-07-20T08:23:45Z</time>
      </trkpt>
      <trkpt lat="46.080522537231445" lon="8.995957374572754">
        <ele>966.742919921875</ele>
        <time>2008-07-20T08:23:55Z</time>
      </trkpt>
      <trkpt lat="46.080501079559326" lon="8.995914459228516">
        <ele>967.2236328125</ele>
        <time>2008-07-20T08:24:00Z</time>
      </trkpt>
      <trkpt lat="46.080586910247803" lon="8.99580717086792">
        <ele>968.184814453125</ele>
        <time>2008-07-20T08:24:13Z</time>
      </trkpt>
      <trkpt lat="46.080672740936279" lon="8.996193408966065">
        <ele>968.66552734375</ele>
        <time>2008-07-20T08:24:33Z</time>
      </trkpt>
      <trkpt lat="46.080780029296875" lon="8.996343612670898">
        <ele>969.626953125</ele>
        <time>2008-07-20T08:24:42Z</time>
      </trkpt>
      <trkpt lat="46.08090877532959" lon="8.99655818939209">
        <ele>971.54931640625</ele>
        <time>2008-07-20T08:24:55Z</time>
      </trkpt>
      <trkpt lat="46.081080436706543" lon="8.996729850769043">
        <ele>973.472412109375</ele>
        <time>2008-07-20T08:25:09Z</time>
      </trkpt>
      <trkpt lat="46.081209182739258" lon="8.996901512145996">
        <ele>973.472412109375</ele>
        <time>2008-07-20T08:25:23Z</time>
      </trkpt>
      <trkpt lat="46.081316471099854" lon="8.997116088867188">
        <ele>973.952880859375</ele>
        <time>2008-07-20T08:25:38Z</time>
      </trkpt>
      <trkpt lat="46.08140230178833" lon="8.997287750244141">
        <ele>975.87548828125</ele>
        <time>2008-07-20T08:25:53Z</time>
      </trkpt>
      <trkpt lat="46.081745624542236" lon="8.997480869293213">
        <ele>980.201416015625</ele>
        <time>2008-07-20T08:26:24Z</time>
      </trkpt>
      <trkpt lat="46.081917285919189" lon="8.99756669998169">
        <ele>982.604736328125</ele>
        <time>2008-07-20T08:26:41Z</time>
      </trkpt>
      <trkpt lat="46.082131862640381" lon="8.997652530670166">
        <ele>980.68212890625</ele>
        <time>2008-07-20T08:27:02Z</time>
      </trkpt>
      <trkpt lat="46.082367897033691" lon="8.997781276702881">
        <ele>981.643310546875</ele>
        <time>2008-07-20T08:27:27Z</time>
      </trkpt>
      <trkpt lat="46.08264684677124" lon="8.998017311096191">
        <ele>983.56591796875</ele>
        <time>2008-07-20T08:27:48Z</time>
      </trkpt>
      <trkpt lat="46.082797050476074" lon="8.998167514801025">
        <ele>984.046630859375</ele>
        <time>2008-07-20T08:28:01Z</time>
      </trkpt>
      <trkpt lat="46.083033084869385" lon="8.998360633850098">
        <ele>986.930419921875</ele>
        <time>2008-07-20T08:28:18Z</time>
      </trkpt>
      <trkpt lat="46.083247661590576" lon="8.998510837554932">
        <ele>986.449951171875</ele>
        <time>2008-07-20T08:28:34Z</time>
      </trkpt>
      <trkpt lat="46.083505153656006" lon="8.998682498931885">
        <ele>986.449951171875</ele>
        <time>2008-07-20T08:28:52Z</time>
      </trkpt>
      <trkpt lat="46.083612442016602" lon="8.998746871948242">
        <ele>987.4111328125</ele>
        <time>2008-07-20T08:29:00Z</time>
      </trkpt>
      <trkpt lat="46.08391284942627" lon="8.998897075653076">
        <ele>988.853515625</ele>
        <time>2008-07-20T08:29:20Z</time>
      </trkpt>
      <trkpt lat="46.08414888381958" lon="8.999111652374268">
        <ele>989.333984375</ele>
        <time>2008-07-20T08:29:39Z</time>
      </trkpt>
      <trkpt lat="46.084299087524414" lon="8.999240398406982">
        <ele>992.218017578125</ele>
        <time>2008-07-20T08:29:53Z</time>
      </trkpt>
      <trkpt lat="46.084470748901367" lon="8.999347686767578">
        <ele>996.5439453125</ele>
        <time>2008-07-20T08:30:09Z</time>
      </trkpt>
      <trkpt lat="46.084578037261963" lon="8.999476432800293">
        <ele>1001.8310546875</ele>
        <time>2008-07-20T08:30:22Z</time>
      </trkpt>
      <trkpt lat="46.084685325622559" lon="8.99956226348877">
        <ele>1005.676513671875</ele>
        <time>2008-07-20T08:30:33Z</time>
      </trkpt>
      <trkpt lat="46.084771156311035" lon="8.999648094177246">
        <ele>1007.59912109375</ele>
        <time>2008-07-20T08:30:44Z</time>
      </trkpt>
      <trkpt lat="46.084878444671631" lon="8.999712467193604">
        <ele>1009.521728515625</ele>
        <time>2008-07-20T08:30:55Z</time>
      </trkpt>
      <trkpt lat="46.084985733032227" lon="8.999712467193604">
        <ele>1010.963623046875</ele>
        <time>2008-07-20T08:31:04Z</time>
      </trkpt>
      <trkpt lat="46.085093021392822" lon="8.999755382537842">
        <ele>1013.847412109375</ele>
        <time>2008-07-20T08:31:16Z</time>
      </trkpt>
      <trkpt lat="46.085200309753418" lon="8.999733924865723">
        <ele>1016.7314453125</ele>
        <time>2008-07-20T08:31:26Z</time>
      </trkpt>
      <trkpt lat="46.085307598114014" lon="8.999733924865723">
        <ele>1019.615478515625</ele>
        <time>2008-07-20T08:31:37Z</time>
      </trkpt>
      <trkpt lat="46.085479259490967" lon="8.999755382537842">
        <ele>1024.422119140625</ele>
        <time>2008-07-20T08:31:51Z</time>
      </trkpt>
      <trkpt lat="46.085608005523682" lon="8.999819755554199">
        <ele>1025.864013671875</ele>
        <time>2008-07-20T08:32:04Z</time>
      </trkpt>
      <trkpt lat="46.085758209228516" lon="8.999884128570557">
        <ele>1026.3447265625</ele>
        <time>2008-07-20T08:32:19Z</time>
      </trkpt>
      <trkpt lat="46.08588695526123" lon="8.999862670898438">
        <ele>1031.1513671875</ele>
        <time>2008-07-20T08:32:31Z</time>
      </trkpt>
      <trkpt lat="46.085994243621826" lon="8.999884128570557">
        <ele>1032.112548828125</ele>
        <time>2008-07-20T08:32:41Z</time>
      </trkpt>
      <trkpt lat="46.086187362670898" lon="8.999927043914795">
        <ele>1035.47705078125</ele>
        <time>2008-07-20T08:32:58Z</time>
      </trkpt>
      <trkpt lat="46.086337566375732" lon="8.999884128570557">
        <ele>1036.438720703125</ele>
        <time>2008-07-20T08:33:12Z</time>
      </trkpt>
      <trkpt lat="46.086552143096924" lon="8.999884128570557">
        <ele>1038.361328125</ele>
        <time>2008-07-20T08:33:29Z</time>
      </trkpt>
      <trkpt lat="46.086680889129639" lon="8.999905586242676">
        <ele>1039.322509765625</ele>
        <time>2008-07-20T08:33:39Z</time>
      </trkpt>
      <trkpt lat="46.086745262145996" lon="8.999841213226318">
        <ele>1043.167724609375</ele>
        <time>2008-07-20T08:33:50Z</time>
      </trkpt>
      <trkpt lat="46.086745262145996" lon="8.999841213226318">
        <ele>1043.6484375</ele>
        <time>2008-07-20T08:33:52Z</time>
      </trkpt>
      <trkpt lat="46.086616516113281" lon="8.999819755554199">
        <ele>1044.129150390625</ele>
        <time>2008-07-20T08:34:02Z</time>
      </trkpt>
      <trkpt lat="46.086530685424805" lon="8.99979829788208">
        <ele>1044.609619140625</ele>
        <time>2008-07-20T08:34:09Z</time>
      </trkpt>
      <trkpt lat="46.086487770080566" lon="8.999776840209961">
        <ele>1045.09033203125</ele>
        <time>2008-07-20T08:34:13Z</time>
      </trkpt>
      <trkpt lat="46.086380481719971" lon="8.999648094177246">
        <ele>1045.09033203125</ele>
        <time>2008-07-20T08:34:24Z</time>
      </trkpt>
      <trkpt lat="46.086230278015137" lon="8.999605178833008">
        <ele>1043.6484375</ele>
        <time>2008-07-20T08:34:38Z</time>
      </trkpt>
      <trkpt lat="46.086187362670898" lon="8.99954080581665">
        <ele>1043.6484375</ele>
        <time>2008-07-20T08:34:44Z</time>
      </trkpt>
      <trkpt lat="46.086122989654541" lon="8.999390602111816">
        <ele>1043.167724609375</ele>
        <time>2008-07-20T08:34:53Z</time>
      </trkpt>
      <trkpt lat="46.086037158966064" lon="8.999261856079102">
        <ele>1044.609619140625</ele>
        <time>2008-07-20T08:35:06Z</time>
      </trkpt>
      <trkpt lat="46.085972785949707" lon="8.999176025390625">
        <ele>1045.09033203125</ele>
        <time>2008-07-20T08:35:14Z</time>
      </trkpt>
      <trkpt lat="46.085865497589111" lon="8.999090194702148">
        <ele>1047.49365234375</ele>
        <time>2008-07-20T08:35:26Z</time>
      </trkpt>
      <trkpt lat="46.085758209228516" lon="8.998939990997315">
        <ele>1046.0517578125</ele>
        <time>2008-07-20T08:35:41Z</time>
      </trkpt>
      <trkpt lat="46.085693836212158" lon="8.998789787292481">
        <ele>1047.974365234375</ele>
        <time>2008-07-20T08:35:56Z</time>
      </trkpt>
      <trkpt lat="46.085629463195801" lon="8.998639583587647">
        <ele>1051.819580078125</ele>
        <time>2008-07-20T08:36:08Z</time>
      </trkpt>
      <trkpt lat="46.085586547851563" lon="8.998532295227051">
        <ele>1053.26171875</ele>
        <time>2008-07-20T08:36:18Z</time>
      </trkpt>
      <trkpt lat="46.085543632507324" lon="8.998489379882813">
        <ele>1053.742431640625</ele>
        <time>2008-07-20T08:36:22Z</time>
      </trkpt>
      <trkpt lat="46.085457801818848" lon="8.998403549194336">
        <ele>1055.6650390625</ele>
        <time>2008-07-20T08:36:32Z</time>
      </trkpt>
      <trkpt lat="46.085436344146729" lon="8.998403549194336">
        <ele>1056.626220703125</ele>
        <time>2008-07-20T08:36:35Z</time>
      </trkpt>
      <trkpt lat="46.085329055786133" lon="8.998360633850098">
        <ele>1058.548828125</ele>
        <time>2008-07-20T08:36:45Z</time>
      </trkpt>
      <trkpt lat="46.085264682769775" lon="8.998274803161621">
        <ele>1060.471435546875</ele>
        <time>2008-07-20T08:36:54Z</time>
      </trkpt>
      <trkpt lat="46.085178852081299" lon="8.998146057128906">
        <ele>1062.39404296875</ele>
        <time>2008-07-20T08:37:05Z</time>
      </trkpt>
      <trkpt lat="46.085093021392822" lon="8.997995853424072">
        <ele>1063.8359375</ele>
        <time>2008-07-20T08:37:18Z</time>
      </trkpt>
      <trkpt lat="46.085071563720703" lon="8.997974395751953">
        <ele>1063.8359375</ele>
        <time>2008-07-20T08:37:20Z</time>
      </trkpt>
      <trkpt lat="46.085007190704346" lon="8.997845649719238">
        <ele>1066.2392578125</ele>
        <time>2008-07-20T08:37:31Z</time>
      </trkpt>
      <trkpt lat="46.084942817687988" lon="8.997738361358643">
        <ele>1067.20068359375</ele>
        <time>2008-07-20T08:37:40Z</time>
      </trkpt>
      <trkpt lat="46.084856986999512" lon="8.997588157653809">
        <ele>1069.12353515625</ele>
        <time>2008-07-20T08:37:53Z</time>
      </trkpt>
      <trkpt lat="46.084814071655273" lon="8.997459411621094">
        <ele>1070.084716796875</ele>
        <time>2008-07-20T08:38:03Z</time>
      </trkpt>
      <trkpt lat="46.084728240966797" lon="8.99730920791626">
        <ele>1072.00732421875</ele>
        <time>2008-07-20T08:38:15Z</time>
      </trkpt>
      <trkpt lat="46.084685325622559" lon="8.997201919555664">
        <ele>1072.96875</ele>
        <time>2008-07-20T08:38:24Z</time>
      </trkpt>
      <trkpt lat="46.084599494934082" lon="8.99705171585083">
        <ele>1073.929931640625</ele>
        <time>2008-07-20T08:38:36Z</time>
      </trkpt>
      <trkpt lat="46.084556579589844" lon="8.996922969818115">
        <ele>1075.371826171875</ele>
        <time>2008-07-20T08:38:46Z</time>
      </trkpt>
      <trkpt lat="46.084599494934082" lon="8.99681568145752">
        <ele>1077.294677734375</ele>
        <time>2008-07-20T08:38:55Z</time>
      </trkpt>
      <trkpt lat="46.084685325622559" lon="8.996880054473877">
        <ele>1078.255859375</ele>
        <time>2008-07-20T08:39:03Z</time>
      </trkpt>
      <trkpt lat="46.084749698638916" lon="8.996987342834473">
        <ele>1079.217041015625</ele>
        <time>2008-07-20T08:39:13Z</time>
      </trkpt>
      <trkpt lat="46.084792613983154" lon="8.996987342834473">
        <ele>1079.69775390625</ele>
        <time>2008-07-20T08:39:20Z</time>
      </trkpt>
      <trkpt lat="46.084814071655273" lon="8.996965885162354">
        <ele>1078.736572265625</ele>
        <time>2008-07-20T08:41:02Z</time>
      </trkpt>
      <trkpt lat="46.084814071655273" lon="8.996987342834473">
        <ele>1079.217041015625</ele>
        <time>2008-07-20T08:41:04Z</time>
      </trkpt>
      <trkpt lat="46.084856986999512" lon="8.99705171585083">
        <ele>1084.504638671875</ele>
        <time>2008-07-20T08:41:16Z</time>
      </trkpt>
      <trkpt lat="46.084856986999512" lon="8.997073173522949">
        <ele>1091.71435546875</ele>
        <time>2008-07-20T08:42:24Z</time>
      </trkpt>
      <trkpt lat="46.084985733032227" lon="8.997180461883545">
        <ele>1088.349853515625</ele>
        <time>2008-07-20T08:42:37Z</time>
      </trkpt>
      <trkpt lat="46.085093021392822" lon="8.997244834899902">
        <ele>1086.42724609375</ele>
        <time>2008-07-20T08:42:48Z</time>
      </trkpt>
      <trkpt lat="46.085264682769775" lon="8.997330665588379">
        <ele>1087.388427734375</ele>
        <time>2008-07-20T08:43:03Z</time>
      </trkpt>
      <trkpt lat="46.085414886474609" lon="8.997373580932617">
        <ele>1087.388427734375</ele>
        <time>2008-07-20T08:43:17Z</time>
      </trkpt>
      <trkpt lat="46.085565090179443" lon="8.997416496276856">
        <ele>1090.7529296875</ele>
        <time>2008-07-20T08:43:29Z</time>
      </trkpt>
      <trkpt lat="46.085693836212158" lon="8.997416496276856">
        <ele>1092.195068359375</ele>
        <time>2008-07-20T08:43:40Z</time>
      </trkpt>
      <trkpt lat="46.085822582244873" lon="8.997523784637451">
        <ele>1093.15625</ele>
        <time>2008-07-20T08:43:56Z</time>
      </trkpt>
      <trkpt lat="46.085951328277588" lon="8.997673988342285">
        <ele>1094.11767578125</ele>
        <time>2008-07-20T08:44:10Z</time>
      </trkpt>
      <trkpt lat="46.086208820343018" lon="8.997759819030762">
        <ele>1095.078857421875</ele>
        <time>2008-07-20T08:44:30Z</time>
      </trkpt>
      <trkpt lat="46.086444854736328" lon="8.997867107391357">
        <ele>1095.5595703125</ele>
        <time>2008-07-20T08:44:55Z</time>
      </trkpt>
      <trkpt lat="46.086444854736328" lon="8.997867107391357">
        <ele>1096.040283203125</ele>
        <time>2008-07-20T08:44:57Z</time>
      </trkpt>
      <trkpt lat="46.086616516113281" lon="8.997824192047119">
        <ele>1096.040283203125</ele>
        <time>2008-07-20T08:45:10Z</time>
      </trkpt>
      <trkpt lat="46.086766719818115" lon="8.997802734375">
        <ele>1095.078857421875</ele>
        <time>2008-07-20T08:45:25Z</time>
      </trkpt>
      <trkpt lat="46.08689546585083" lon="8.997802734375">
        <ele>1097.962890625</ele>
        <time>2008-07-20T08:45:38Z</time>
      </trkpt>
      <trkpt lat="46.08715295791626" lon="8.997673988342285">
        <ele>1101.808349609375</ele>
        <time>2008-07-20T08:45:57Z</time>
      </trkpt>
      <trkpt lat="46.087324619293213" lon="8.997588157653809">
        <ele>1108.056884765625</ele>
        <time>2008-07-20T08:46:12Z</time>
      </trkpt>
      <trkpt lat="46.087539196014404" lon="8.997459411621094">
        <ele>1112.86328125</ele>
        <time>2008-07-20T08:46:30Z</time>
      </trkpt>
      <trkpt lat="46.087667942047119" lon="8.99730920791626">
        <ele>1113.343994140625</ele>
        <time>2008-07-20T08:46:42Z</time>
      </trkpt>
      <trkpt lat="46.08790397644043" lon="8.997116088867188">
        <ele>1115.2666015625</ele>
        <time>2008-07-20T08:46:57Z</time>
      </trkpt>
      <trkpt lat="46.088054180145264" lon="8.997008800506592">
        <ele>1117.189453125</ele>
        <time>2008-07-20T08:47:10Z</time>
      </trkpt>
      <trkpt lat="46.088290214538574" lon="8.996837139129639">
        <ele>1118.63134765625</ele>
        <time>2008-07-20T08:47:29Z</time>
      </trkpt>
      <trkpt lat="46.088440418243408" lon="8.996708393096924">
        <ele>1120.553955078125</ele>
        <time>2008-07-20T08:47:44Z</time>
      </trkpt>
      <trkpt lat="46.08863353729248" lon="8.996493816375732">
        <ele>1121.51513671875</ele>
        <time>2008-07-20T08:48:00Z</time>
      </trkpt>
      <trkpt lat="46.088740825653076" lon="8.996386528015137">
        <ele>1124.399169921875</ele>
        <time>2008-07-20T08:48:12Z</time>
      </trkpt>
      <trkpt lat="46.088912487030029" lon="8.996193408966065">
        <ele>1127.283203125</ele>
        <time>2008-07-20T08:48:29Z</time>
      </trkpt>
      <trkpt lat="46.089105606079102" lon="8.996021747589111">
        <ele>1129.20556640625</ele>
        <time>2008-07-20T08:48:45Z</time>
      </trkpt>
      <trkpt lat="46.089105606079102" lon="8.996021747589111">
        <ele>1130.1669921875</ele>
        <time>2008-07-20T08:48:51Z</time>
      </trkpt>
      <trkpt lat="46.089041233062744" lon="8.995978832244873">
        <ele>1125.3603515625</ele>
        <time>2008-07-20T08:49:10Z</time>
      </trkpt>
      <trkpt lat="46.089212894439697" lon="8.995871543884277">
        <ele>1190.72998046875</ele>
        <time>2008-07-20T08:49:47Z</time>
      </trkpt>
      <trkpt lat="46.089341640472412" lon="8.995678424835205">
        <ele>1184.481689453125</ele>
        <time>2008-07-20T08:49:58Z</time>
      </trkpt>
      <trkpt lat="46.089556217193604" lon="8.995764255523682">
        <ele>1181.1171875</ele>
        <time>2008-07-20T08:50:12Z</time>
      </trkpt>
      <trkpt lat="46.089577674865723" lon="8.995871543884277">
        <ele>1177.271728515625</ele>
        <time>2008-07-20T08:50:16Z</time>
      </trkpt>
      <trkpt lat="46.089556217193604" lon="8.996086120605469">
        <ele>1171.023193359375</ele>
        <time>2008-07-20T08:50:26Z</time>
      </trkpt>
      <trkpt lat="46.089491844177246" lon="8.996343612670898">
        <ele>1166.216552734375</ele>
        <time>2008-07-20T08:50:39Z</time>
      </trkpt>
      <trkpt lat="46.089448928833008" lon="8.996601104736328">
        <ele>1160.92919921875</ele>
        <time>2008-07-20T08:50:50Z</time>
      </trkpt>
      <trkpt lat="46.089448928833008" lon="8.996622562408447">
        <ele>1159.9677734375</ele>
        <time>2008-07-20T08:50:51Z</time>
      </trkpt>
      <trkpt lat="46.089427471160889" lon="8.996880054473877">
        <ele>1155.161376953125</ele>
        <time>2008-07-20T08:51:02Z</time>
      </trkpt>
      <trkpt lat="46.08940601348877" lon="8.997180461883545">
        <ele>1153.719482421875</ele>
        <time>2008-07-20T08:51:15Z</time>
      </trkpt>
      <trkpt lat="46.089427471160889" lon="8.997459411621094">
        <ele>1153.23876953125</ele>
        <time>2008-07-20T08:51:28Z</time>
      </trkpt>
      <trkpt lat="46.089448928833008" lon="8.997631072998047">
        <ele>1153.23876953125</ele>
        <time>2008-07-20T08:51:36Z</time>
      </trkpt>
      <trkpt lat="46.089448928833008" lon="8.997802734375">
        <ele>1154.2001953125</ele>
        <time>2008-07-20T08:51:45Z</time>
      </trkpt>
      <trkpt lat="46.089491844177246" lon="8.997995853424072">
        <ele>1154.6806640625</ele>
        <time>2008-07-20T08:51:57Z</time>
      </trkpt>
      <trkpt lat="46.089556217193604" lon="8.998146057128906">
        <ele>1155.64208984375</ele>
        <time>2008-07-20T08:52:07Z</time>
      </trkpt>
      <trkpt lat="46.089599132537842" lon="8.998210430145264">
        <ele>1156.12255859375</ele>
        <time>2008-07-20T08:52:13Z</time>
      </trkpt>
      <trkpt lat="46.089706420898437" lon="8.998317718505859">
        <ele>1156.603271484375</ele>
        <time>2008-07-20T08:52:24Z</time>
      </trkpt>
      <trkpt lat="46.089792251586914" lon="8.998382091522217">
        <ele>1158.04541015625</ele>
        <time>2008-07-20T08:52:35Z</time>
      </trkpt>
      <trkpt lat="46.08989953994751" lon="8.998446464538574">
        <ele>1159.006591796875</ele>
        <time>2008-07-20T08:52:46Z</time>
      </trkpt>
      <trkpt lat="46.090006828308105" lon="8.998489379882813">
        <ele>1160.448486328125</ele>
        <time>2008-07-20T08:52:56Z</time>
      </trkpt>
      <trkpt lat="46.090114116668701" lon="8.998575210571289">
        <ele>1161.409912109375</ele>
        <time>2008-07-20T08:53:08Z</time>
      </trkpt>
      <trkpt lat="46.090178489685059" lon="8.998618125915527">
        <ele>1162.851806640625</ele>
        <time>2008-07-20T08:53:16Z</time>
      </trkpt>
      <trkpt lat="46.090285778045654" lon="8.998682498931885">
        <ele>1164.2939453125</ele>
        <time>2008-07-20T08:53:27Z</time>
      </trkpt>
      <trkpt lat="46.090371608734131" lon="8.998768329620361">
        <ele>1165.736083984375</ele>
        <time>2008-07-20T08:53:38Z</time>
      </trkpt>
      <trkpt lat="46.090478897094727" lon="8.998832702636719">
        <ele>1167.177978515625</ele>
        <time>2008-07-20T08:53:49Z</time>
      </trkpt>
      <trkpt lat="46.090586185455322" lon="8.998918533325195">
        <ele>1168.619873046875</ele>
        <time>2008-07-20T08:54:01Z</time>
      </trkpt>
      <trkpt lat="46.090693473815918" lon="8.999004364013672">
        <ele>1170.061767578125</ele>
        <time>2008-07-20T08:54:12Z</time>
      </trkpt>
      <trkpt lat="46.090779304504395" lon="8.999090194702148">
        <ele>1171.503662109375</ele>
        <time>2008-07-20T08:54:22Z</time>
      </trkpt>
      <trkpt lat="46.090865135192871" lon="8.999176025390625">
        <ele>1172.94580078125</ele>
        <time>2008-07-20T08:54:33Z</time>
      </trkpt>
      <trkpt lat="46.090993881225586" lon="8.999283313751221">
        <ele>1173.426513671875</ele>
        <time>2008-07-20T08:54:45Z</time>
      </trkpt>
      <trkpt lat="46.091101169586182" lon="8.999369144439697">
        <ele>1175.348876953125</ele>
        <time>2008-07-20T08:54:57Z</time>
      </trkpt>
      <trkpt lat="46.091208457946777" lon="8.999454975128174">
        <ele>1178.23291015625</ele>
        <time>2008-07-20T08:55:08Z</time>
      </trkpt>
      <trkpt lat="46.091337203979492" lon="8.99956226348877">
        <ele>1180.15576171875</ele>
        <time>2008-07-20T08:55:22Z</time>
      </trkpt>
      <trkpt lat="46.091465950012207" lon="8.999626636505127">
        <ele>1181.1171875</ele>
        <time>2008-07-20T08:55:35Z</time>
      </trkpt>
      <trkpt lat="46.091573238372803" lon="8.999669551849365">
        <ele>1181.59765625</ele>
        <time>2008-07-20T08:55:45Z</time>
      </trkpt>
      <trkpt lat="46.091680526733398" lon="8.999712467193604">
        <ele>1182.55908203125</ele>
        <time>2008-07-20T08:55:55Z</time>
      </trkpt>
      <trkpt lat="46.091744899749756" lon="8.999691009521484">
        <ele>1183.03955078125</ele>
        <time>2008-07-20T08:56:03Z</time>
      </trkpt>
      <trkpt lat="46.091744899749756" lon="8.999691009521484">
        <ele>1183.520263671875</ele>
        <time>2008-07-20T08:56:05Z</time>
      </trkpt>
      <trkpt lat="46.091787815093994" lon="8.999648094177246">
        <ele>1184.0009765625</ele>
        <time>2008-07-20T08:56:09Z</time>
      </trkpt>
      <trkpt lat="46.091873645782471" lon="8.999626636505127">
        <ele>1184.96240234375</ele>
        <time>2008-07-20T08:56:18Z</time>
      </trkpt>
      <trkpt lat="46.091959476470947" lon="8.999519348144531">
        <ele>1185.923583984375</ele>
        <time>2008-07-20T08:56:27Z</time>
      </trkpt>
      <trkpt lat="46.092109680175781" lon="8.999433517456055">
        <ele>1187.365478515625</ele>
        <time>2008-07-20T08:56:39Z</time>
      </trkpt>
      <trkpt lat="46.09215259552002" lon="8.999454975128174">
        <ele>1187.84619140625</ele>
        <time>2008-07-20T08:56:43Z</time>
      </trkpt>
      <trkpt lat="46.092216968536377" lon="8.999626636505127">
        <ele>1189.2880859375</ele>
        <time>2008-07-20T08:56:54Z</time>
      </trkpt>
      <trkpt lat="46.092259883880615" lon="8.999691009521484">
        <ele>1189.2880859375</ele>
        <time>2008-07-20T08:57:02Z</time>
      </trkpt>
      <trkpt lat="46.092259883880615" lon="8.999691009521484">
        <ele>1191.69140625</ele>
        <time>2008-07-20T08:57:12Z</time>
      </trkpt>
      <trkpt lat="46.092302799224854" lon="8.999712467193604">
        <ele>1193.13330078125</ele>
        <time>2008-07-20T08:57:57Z</time>
      </trkpt>
      <trkpt lat="46.092367172241211" lon="8.999733924865723">
        <ele>1192.172119140625</ele>
        <time>2008-07-20T08:58:02Z</time>
      </trkpt>
      <trkpt lat="46.092538833618164" lon="8.999733924865723">
        <ele>1192.172119140625</ele>
        <time>2008-07-20T08:58:13Z</time>
      </trkpt>
      <trkpt lat="46.092667579650879" lon="8.999819755554199">
        <ele>1192.65283203125</ele>
        <time>2008-07-20T08:58:24Z</time>
      </trkpt>
      <trkpt lat="46.092731952667236" lon="8.999991416931152">
        <ele>1194.0947265625</ele>
        <time>2008-07-20T08:58:34Z</time>
      </trkpt>
      <trkpt lat="46.092710494995117" lon="9.000141620635986">
        <ele>1195.055908203125</ele>
        <time>2008-07-20T08:58:42Z</time>
      </trkpt>
      <trkpt lat="46.092667579650879" lon="9.00031328201294">
        <ele>1196.498291015625</ele>
        <time>2008-07-20T08:58:53Z</time>
      </trkpt>
      <trkpt lat="46.092667579650879" lon="9.00054931640625">
        <ele>1198.420654296875</ele>
        <time>2008-07-20T08:59:06Z</time>
      </trkpt>
      <trkpt lat="46.092710494995117" lon="9.000763893127441">
        <ele>1200.343505859375</ele>
        <time>2008-07-20T08:59:19Z</time>
      </trkpt>
      <trkpt lat="46.092774868011475" lon="9.000871181488037">
        <ele>1200.823974609375</ele>
        <time>2008-07-20T08:59:28Z</time>
      </trkpt>
      <trkpt lat="46.092903614044189" lon="9.000978469848633">
        <ele>1202.265869140625</ele>
        <time>2008-07-20T08:59:40Z</time>
      </trkpt>
      <trkpt lat="46.092989444732666" lon="9.00104284286499">
        <ele>1203.227294921875</ele>
        <time>2008-07-20T08:59:49Z</time>
      </trkpt>
      <trkpt lat="46.093032360076904" lon="9.00104284286499">
        <ele>1203.7080078125</ele>
        <time>2008-07-20T08:59:52Z</time>
      </trkpt>
      <trkpt lat="46.093161106109619" lon="9.001064300537109">
        <ele>1205.14990234375</ele>
        <time>2008-07-20T09:00:04Z</time>
      </trkpt>
      <trkpt lat="46.093268394470215" lon="9.001085758209229">
        <ele>1207.072509765625</ele>
        <time>2008-07-20T09:00:14Z</time>
      </trkpt>
      <trkpt lat="46.09339714050293" lon="9.001085758209229">
        <ele>1208.514404296875</ele>
        <time>2008-07-20T09:00:25Z</time>
      </trkpt>
      <trkpt lat="46.093504428863525" lon="9.001085758209229">
        <ele>1210.43701171875</ele>
        <time>2008-07-20T09:00:36Z</time>
      </trkpt>
      <trkpt lat="46.093611717224121" lon="9.001128673553467">
        <ele>1211.3984375</ele>
        <time>2008-07-20T09:00:46Z</time>
      </trkpt>
      <trkpt lat="46.093719005584717" lon="9.001193046569824">
        <ele>1212.840576171875</ele>
        <time>2008-07-20T09:00:58Z</time>
      </trkpt>
      <trkpt lat="46.093826293945313" lon="9.00130033493042">
        <ele>1214.76318359375</ele>
        <time>2008-07-20T09:01:11Z</time>
      </trkpt>
      <trkpt lat="46.093955039978027" lon="9.001364707946777">
        <ele>1215.724609375</ele>
        <time>2008-07-20T09:01:23Z</time>
      </trkpt>
      <trkpt lat="46.094040870666504" lon="9.001407623291016">
        <ele>1217.16650390625</ele>
        <time>2008-07-20T09:01:33Z</time>
      </trkpt>
      <trkpt lat="46.094062328338623" lon="9.001429080963135">
        <ele>1217.16650390625</ele>
        <time>2008-07-20T09:01:35Z</time>
      </trkpt>
      <trkpt lat="46.094169616699219" lon="9.001450538635254">
        <ele>1218.6083984375</ele>
        <time>2008-07-20T09:01:46Z</time>
      </trkpt>
      <trkpt lat="46.094298362731934" lon="9.001471996307373">
        <ele>1220.531005859375</ele>
        <time>2008-07-20T09:01:58Z</time>
      </trkpt>
      <trkpt lat="46.094362735748291" lon="9.001471996307373">
        <ele>1221.4921875</ele>
        <time>2008-07-20T09:02:05Z</time>
      </trkpt>
      <trkpt lat="46.094427108764648" lon="9.001471996307373">
        <ele>1222.45361328125</ele>
        <time>2008-07-20T09:02:11Z</time>
      </trkpt>
      <trkpt lat="46.094555854797363" lon="9.001493453979492">
        <ele>1224.376220703125</ele>
        <time>2008-07-20T09:02:23Z</time>
      </trkpt>
      <trkpt lat="46.094684600830078" lon="9.001579284667969">
        <ele>1225.818115234375</ele>
        <time>2008-07-20T09:02:36Z</time>
      </trkpt>
      <trkpt lat="46.094813346862793" lon="9.001686573028565">
        <ele>1226.779541015625</ele>
        <time>2008-07-20T09:02:48Z</time>
      </trkpt>
      <trkpt lat="46.094985008239746" lon="9.001815319061279">
        <ele>1227.26025390625</ele>
        <time>2008-07-20T09:03:04Z</time>
      </trkpt>
      <trkpt lat="46.095092296600342" lon="9.001858234405518">
        <ele>1228.2216796875</ele>
        <time>2008-07-20T09:03:12Z</time>
      </trkpt>
      <trkpt lat="46.095199584960938" lon="9.001858234405518">
        <ele>1229.182861328125</ele>
        <time>2008-07-20T09:03:22Z</time>
      </trkpt>
      <trkpt lat="46.095242500305176" lon="9.00179386138916">
        <ele>1230.144287109375</ele>
        <time>2008-07-20T09:03:27Z</time>
      </trkpt>
      <trkpt lat="46.095156669616699" lon="9.001708030700684">
        <ele>1232.06689453125</ele>
        <time>2008-07-20T09:03:36Z</time>
      </trkpt>
      <trkpt lat="46.094985008239746" lon="9.001622200012207">
        <ele>1234.47021484375</ele>
        <time>2008-07-20T09:03:50Z</time>
      </trkpt>
      <trkpt lat="46.09487771987915" lon="9.001514911651611">
        <ele>1235.431396484375</ele>
        <time>2008-07-20T09:04:01Z</time>
      </trkpt>
      <trkpt lat="46.094748973846436" lon="9.001343250274658">
        <ele>1237.35400390625</ele>
        <time>2008-07-20T09:04:15Z</time>
      </trkpt>
      <trkpt lat="46.09464168548584" lon="9.001214504241943">
        <ele>1238.3154296875</ele>
        <time>2008-07-20T09:04:26Z</time>
      </trkpt>
      <trkpt lat="46.094534397125244" lon="9.001128673553467">
        <ele>1239.75732421875</ele>
        <time>2008-07-20T09:04:36Z</time>
      </trkpt>
      <trkpt lat="46.09438419342041" lon="9.00104284286499">
        <ele>1241.19921875</ele>
        <time>2008-07-20T09:04:48Z</time>
      </trkpt>
      <trkpt lat="46.094255447387695" lon="9.000935554504395">
        <ele>1244.08349609375</ele>
        <time>2008-07-20T09:05:00Z</time>
      </trkpt>
      <trkpt lat="46.0941481590271" lon="9.000828266143799">
        <ele>1245.525390625</ele>
        <time>2008-07-20T09:05:11Z</time>
      </trkpt>
      <trkpt lat="46.094062328338623" lon="9.000656604766846">
        <ele>1246.48681640625</ele>
        <time>2008-07-20T09:05:23Z</time>
      </trkpt>
      <trkpt lat="46.093955039978027" lon="9.000506401062012">
        <ele>1247.447998046875</ele>
        <time>2008-07-20T09:05:35Z</time>
      </trkpt>
      <trkpt lat="46.093847751617432" lon="9.000356197357178">
        <ele>1249.37060546875</ele>
        <time>2008-07-20T09:05:47Z</time>
      </trkpt>
      <trkpt lat="46.093761920928955" lon="9.000248908996582">
        <ele>1250.8125</ele>
        <time>2008-07-20T09:05:57Z</time>
      </trkpt>
      <trkpt lat="46.09363317489624" lon="9.000141620635986">
        <ele>1252.25439453125</ele>
        <time>2008-07-20T09:06:09Z</time>
      </trkpt>
      <trkpt lat="46.093568801879883" lon="8.999991416931152">
        <ele>1253.2158203125</ele>
        <time>2008-07-20T09:06:19Z</time>
      </trkpt>
      <trkpt lat="46.093547344207764" lon="8.999819755554199">
        <ele>1255.138427734375</ele>
        <time>2008-07-20T09:06:29Z</time>
      </trkpt>
      <trkpt lat="46.093504428863525" lon="8.99956226348877">
        <ele>1256.580322265625</ele>
        <time>2008-07-20T09:06:43Z</time>
      </trkpt>
      <trkpt lat="46.093547344207764" lon="8.999347686767578">
        <ele>1257.06103515625</ele>
        <time>2008-07-20T09:06:55Z</time>
      </trkpt>
      <trkpt lat="46.093568801879883" lon="8.999176025390625">
        <ele>1258.0224609375</ele>
        <time>2008-07-20T09:07:04Z</time>
      </trkpt>
      <trkpt lat="46.093504428863525" lon="8.999004364013672">
        <ele>1258.983642578125</ele>
        <time>2008-07-20T09:07:14Z</time>
      </trkpt>
      <trkpt lat="46.093482971191406" lon="8.998768329620361">
        <ele>1259.94482421875</ele>
        <time>2008-07-20T09:07:26Z</time>
      </trkpt>
      <trkpt lat="46.093440055847168" lon="8.998596668243408">
        <ele>1260.906494140625</ele>
        <time>2008-07-20T09:07:35Z</time>
      </trkpt>
      <trkpt lat="46.093375682830811" lon="8.998382091522217">
        <ele>1261.867919921875</ele>
        <time>2008-07-20T09:07:46Z</time>
      </trkpt>
      <trkpt lat="46.093246936798096" lon="8.99829626083374">
        <ele>1262.8291015625</ele>
        <time>2008-07-20T09:07:57Z</time>
      </trkpt>
      <trkpt lat="46.093096733093262" lon="8.998188972473145">
        <ele>1264.27099609375</ele>
        <time>2008-07-20T09:08:09Z</time>
      </trkpt>
      <trkpt lat="46.093075275421143" lon="8.998146057128906">
        <ele>1264.27099609375</ele>
        <time>2008-07-20T09:08:12Z</time>
      </trkpt>
      <trkpt lat="46.093075275421143" lon="8.997910022735596">
        <ele>1264.751708984375</ele>
        <time>2008-07-20T09:08:23Z</time>
      </trkpt>
      <trkpt lat="46.093032360076904" lon="8.997716903686523">
        <ele>1265.713134765625</ele>
        <time>2008-07-20T09:08:34Z</time>
      </trkpt>
      <trkpt lat="46.092903614044189" lon="8.997609615325928">
        <ele>1267.155029296875</ele>
        <time>2008-07-20T09:08:44Z</time>
      </trkpt>
      <trkpt lat="46.092753410339355" lon="8.99756669998169">
        <ele>1268.1162109375</ele>
        <time>2008-07-20T09:08:55Z</time>
      </trkpt>
      <trkpt lat="46.092624664306641" lon="8.997631072998047">
        <ele>1269.07763671875</ele>
        <time>2008-07-20T09:09:06Z</time>
      </trkpt>
      <trkpt lat="46.092474460601807" lon="8.997631072998047">
        <ele>1270.51953125</ele>
        <time>2008-07-20T09:09:17Z</time>
      </trkpt>
      <trkpt lat="46.09238862991333" lon="8.997631072998047">
        <ele>1271.000244140625</ele>
        <time>2008-07-20T09:09:23Z</time>
      </trkpt>
      <trkpt lat="46.092238426208496" lon="8.99756669998169">
        <ele>1272.442138671875</ele>
        <time>2008-07-20T09:09:35Z</time>
      </trkpt>
      <trkpt lat="46.0921311378479" lon="8.997480869293213">
        <ele>1273.884033203125</ele>
        <time>2008-07-20T09:09:45Z</time>
      </trkpt>
      <trkpt lat="46.092109680175781" lon="8.997459411621094">
        <ele>1274.36474609375</ele>
        <time>2008-07-20T09:09:48Z</time>
      </trkpt>
      <trkpt lat="46.092002391815186" lon="8.997373580932617">
        <ele>1275.325927734375</ele>
        <time>2008-07-20T09:09:58Z</time>
      </trkpt>
      <trkpt lat="46.091873645782471" lon="8.997244834899902">
        <ele>1276.768310546875</ele>
        <time>2008-07-20T09:10:11Z</time>
      </trkpt>
      <trkpt lat="46.091787815093994" lon="8.997094631195068">
        <ele>1278.210205078125</ele>
        <time>2008-07-20T09:10:22Z</time>
      </trkpt>
      <trkpt lat="46.091766357421875" lon="8.997030258178711">
        <ele>1278.69091796875</ele>
        <time>2008-07-20T09:10:29Z</time>
      </trkpt>
      <trkpt lat="46.091766357421875" lon="8.997030258178711">
        <ele>1277.7294921875</ele>
        <time>2008-07-20T09:10:50Z</time>
      </trkpt>
      <trkpt lat="46.091744899749756" lon="8.997030258178711">
        <ele>1279.652099609375</ele>
        <time>2008-07-20T09:11:21Z</time>
      </trkpt>
      <trkpt lat="46.091830730438232" lon="8.996944427490234">
        <ele>1279.652099609375</ele>
        <time>2008-07-20T09:11:29Z</time>
      </trkpt>
      <trkpt lat="46.091873645782471" lon="8.996965885162354">
        <ele>1280.1328125</ele>
        <time>2008-07-20T09:11:31Z</time>
      </trkpt>
      <trkpt lat="46.092002391815186" lon="8.997073173522949">
        <ele>1281.57470703125</ele>
        <time>2008-07-20T09:11:42Z</time>
      </trkpt>
      <trkpt lat="46.092109680175781" lon="8.997137546539307">
        <ele>1282.5361328125</ele>
        <time>2008-07-20T09:11:51Z</time>
      </trkpt>
      <trkpt lat="46.092238426208496" lon="8.997201919555664">
        <ele>1284.458740234375</ele>
        <time>2008-07-20T09:12:01Z</time>
      </trkpt>
      <trkpt lat="46.092345714569092" lon="8.997223377227783">
        <ele>1285.900634765625</ele>
        <time>2008-07-20T09:12:11Z</time>
      </trkpt>
      <trkpt lat="46.092517375946045" lon="8.997201919555664">
        <ele>1288.303955078125</ele>
        <time>2008-07-20T09:12:26Z</time>
      </trkpt>
      <trkpt lat="46.092560291290283" lon="8.997201919555664">
        <ele>1288.78466796875</ele>
        <time>2008-07-20T09:12:29Z</time>
      </trkpt>
      <trkpt lat="46.092689037322998" lon="8.997159004211426">
        <ele>1290.70703125</ele>
        <time>2008-07-20T09:12:41Z</time>
      </trkpt>
      <trkpt lat="46.092817783355713" lon="8.997137546539307">
        <ele>1292.1494140625</ele>
        <time>2008-07-20T09:12:53Z</time>
      </trkpt>
      <trkpt lat="46.092946529388428" lon="8.997159004211426">
        <ele>1293.59130859375</ele>
        <time>2008-07-20T09:13:05Z</time>
      </trkpt>
      <trkpt lat="46.092989444732666" lon="8.997159004211426">
        <ele>1294.072021484375</ele>
        <time>2008-07-20T09:13:09Z</time>
      </trkpt>
      <trkpt lat="46.093118190765381" lon="8.997201919555664">
        <ele>1295.99462890625</ele>
        <time>2008-07-20T09:13:22Z</time>
      </trkpt>
      <trkpt lat="46.093161106109619" lon="8.997223377227783">
        <ele>1296.475341796875</ele>
        <time>2008-07-20T09:13:27Z</time>
      </trkpt>
      <trkpt lat="46.093289852142334" lon="8.997287750244141">
        <ele>1298.397705078125</ele>
        <time>2008-07-20T09:13:40Z</time>
      </trkpt>
      <trkpt lat="46.09339714050293" lon="8.997395038604736">
        <ele>1300.320556640625</ele>
        <time>2008-07-20T09:13:52Z</time>
      </trkpt>
      <trkpt lat="46.093440055847168" lon="8.997437953948975">
        <ele>1300.801025390625</ele>
        <time>2008-07-20T09:13:56Z</time>
      </trkpt>
      <trkpt lat="46.093482971191406" lon="8.997588157653809">
        <ele>1302.242919921875</ele>
        <time>2008-07-20T09:14:07Z</time>
      </trkpt>
      <trkpt lat="46.093525886535645" lon="8.997716903686523">
        <ele>1303.204345703125</ele>
        <time>2008-07-20T09:14:17Z</time>
      </trkpt>
      <trkpt lat="46.09363317489624" lon="8.997845649719238">
        <ele>1304.646240234375</ele>
        <time>2008-07-20T09:14:31Z</time>
      </trkpt>
      <trkpt lat="46.093719005584717" lon="8.997952938079834">
        <ele>1306.088134765625</ele>
        <time>2008-07-20T09:14:43Z</time>
      </trkpt>
      <trkpt lat="46.093761920928955" lon="8.997995853424072">
        <ele>1307.049560546875</ele>
        <time>2008-07-20T09:14:48Z</time>
      </trkpt>
      <trkpt lat="46.093847751617432" lon="8.998103141784668">
        <ele>1308.49169921875</ele>
        <time>2008-07-20T09:14:59Z</time>
      </trkpt>
      <trkpt lat="46.093933582305908" lon="8.998188972473145">
        <ele>1309.453125</ele>
        <time>2008-07-20T09:15:10Z</time>
      </trkpt>
      <trkpt lat="46.094040870666504" lon="8.998317718505859">
        <ele>1310.89501953125</ele>
        <time>2008-07-20T09:15:23Z</time>
      </trkpt>
      <trkpt lat="46.094040870666504" lon="8.998317718505859">
        <ele>1311.375732421875</ele>
        <time>2008-07-20T09:15:24Z</time>
      </trkpt>
      <trkpt lat="46.094062328338623" lon="8.998339176177979">
        <ele>1311.375732421875</ele>
        <time>2008-07-20T09:15:26Z</time>
      </trkpt>
      <trkpt lat="46.0941481590271" lon="8.998425006866455">
        <ele>1312.817626953125</ele>
        <time>2008-07-20T09:15:36Z</time>
      </trkpt>
      <trkpt lat="46.094212532043457" lon="8.998489379882813">
        <ele>1314.740234375</ele>
        <time>2008-07-20T09:15:45Z</time>
      </trkpt>
      <trkpt lat="46.094298362731934" lon="8.998596668243408">
        <ele>1316.18212890625</ele>
        <time>2008-07-20T09:15:56Z</time>
      </trkpt>
      <trkpt lat="46.094341278076172" lon="8.998682498931885">
        <ele>1317.1435546875</ele>
        <time>2008-07-20T09:16:04Z</time>
      </trkpt>
      <trkpt lat="46.094405651092529" lon="8.998768329620361">
        <ele>1318.58544921875</ele>
        <time>2008-07-20T09:16:14Z</time>
      </trkpt>
      <trkpt lat="46.094491481781006" lon="8.998875617980957">
        <ele>1319.546875</ele>
        <time>2008-07-20T09:16:25Z</time>
      </trkpt>
      <trkpt lat="46.094577312469482" lon="8.998982906341553">
        <ele>1321.46923828125</ele>
        <time>2008-07-20T09:16:38Z</time>
      </trkpt>
      <trkpt lat="46.094663143157959" lon="8.999090194702148">
        <ele>1322.911376953125</ele>
        <time>2008-07-20T09:16:49Z</time>
      </trkpt>
      <trkpt lat="46.094748973846436" lon="8.999176025390625">
        <ele>1323.87255859375</ele>
        <time>2008-07-20T09:17:00Z</time>
      </trkpt>
      <trkpt lat="46.094834804534912" lon="8.999240398406982">
        <ele>1324.834228515625</ele>
        <time>2008-07-20T09:17:10Z</time>
      </trkpt>
      <trkpt lat="46.094942092895508" lon="8.999283313751221">
        <ele>1326.276123046875</ele>
        <time>2008-07-20T09:17:22Z</time>
      </trkpt>
      <trkpt lat="46.095049381256104" lon="8.999347686767578">
        <ele>1328.19873046875</ele>
        <time>2008-07-20T09:17:36Z</time>
      </trkpt>
      <trkpt lat="46.095156669616699" lon="8.999369144439697">
        <ele>1329.159912109375</ele>
        <time>2008-07-20T09:17:46Z</time>
      </trkpt>
      <trkpt lat="46.095221042633057" lon="8.999390602111816">
        <ele>1330.121337890625</ele>
        <time>2008-07-20T09:17:55Z</time>
      </trkpt>
      <trkpt lat="46.095349788665771" lon="8.999433517456055">
        <ele>1331.563232421875</ele>
        <time>2008-07-20T09:18:07Z</time>
      </trkpt>
      <trkpt lat="46.095414161682129" lon="8.999454975128174">
        <ele>1332.0439453125</ele>
        <time>2008-07-20T09:18:16Z</time>
      </trkpt>
      <trkpt lat="46.095521450042725" lon="8.999476432800293">
        <ele>1333.48583984375</ele>
        <time>2008-07-20T09:18:26Z</time>
      </trkpt>
      <trkpt lat="46.095542907714844" lon="8.999476432800293">
        <ele>1333.48583984375</ele>
        <time>2008-07-20T09:18:29Z</time>
      </trkpt>
      <trkpt lat="46.09562873840332" lon="8.999476432800293">
        <ele>1333.966552734375</ele>
        <time>2008-07-20T09:18:36Z</time>
      </trkpt>
      <trkpt lat="46.09562873840332" lon="8.999369144439697">
        <ele>1334.447265625</ele>
        <time>2008-07-20T09:18:44Z</time>
      </trkpt>
      <trkpt lat="46.09562873840332" lon="8.999347686767578">
        <ele>1334.927978515625</ele>
        <time>2008-07-20T09:18:45Z</time>
      </trkpt>
      <trkpt lat="46.095542907714844" lon="8.99930477142334">
        <ele>1336.369873046875</ele>
        <time>2008-07-20T09:18:54Z</time>
      </trkpt>
      <trkpt lat="46.095414161682129" lon="8.999218940734863">
        <ele>1336.850341796875</ele>
        <time>2008-07-20T09:19:05Z</time>
      </trkpt>
      <trkpt lat="46.095285415649414" lon="8.999111652374268">
        <ele>1338.773193359375</ele>
        <time>2008-07-20T09:19:17Z</time>
      </trkpt>
      <trkpt lat="46.095178127288818" lon="8.999004364013672">
        <ele>1340.21533203125</ele>
        <time>2008-07-20T09:19:29Z</time>
      </trkpt>
      <trkpt lat="46.095070838928223" lon="8.998897075653076">
        <ele>1341.176513671875</ele>
        <time>2008-07-20T09:19:39Z</time>
      </trkpt>
      <trkpt lat="46.094985008239746" lon="8.998746871948242">
        <ele>1342.61865234375</ele>
        <time>2008-07-20T09:19:51Z</time>
      </trkpt>
      <trkpt lat="46.09487771987915" lon="8.998575210571289">
        <ele>1344.541015625</ele>
        <time>2008-07-20T09:20:04Z</time>
      </trkpt>
      <trkpt lat="46.094791889190674" lon="8.998425006866455">
        <ele>1345.983154296875</ele>
        <time>2008-07-20T09:20:16Z</time>
      </trkpt>
      <trkpt lat="46.094770431518555" lon="8.998403549194336">
        <ele>1345.983154296875</ele>
        <time>2008-07-20T09:20:18Z</time>
      </trkpt>
      <trkpt lat="46.094727516174316" lon="8.998317718505859">
        <ele>1347.425048828125</ele>
        <time>2008-07-20T09:20:24Z</time>
      </trkpt>
      <trkpt lat="46.09464168548584" lon="8.998146057128906">
        <ele>1349.34765625</ele>
        <time>2008-07-20T09:20:37Z</time>
      </trkpt>
      <trkpt lat="46.094598770141602" lon="8.99806022644043">
        <ele>1350.30908203125</ele>
        <time>2008-07-20T09:20:44Z</time>
      </trkpt>
      <trkpt lat="46.094577312469482" lon="8.997952938079834">
        <ele>1351.7509765625</ele>
        <time>2008-07-20T09:20:51Z</time>
      </trkpt>
      <trkpt lat="46.094555854797363" lon="8.997888565063477">
        <ele>1352.2314453125</ele>
        <time>2008-07-20T09:20:55Z</time>
      </trkpt>
      <trkpt lat="46.094512939453125" lon="8.997716903686523">
        <ele>1353.673583984375</ele>
        <time>2008-07-20T09:21:06Z</time>
      </trkpt>
      <trkpt lat="46.094470024108887" lon="8.99754524230957">
        <ele>1355.115478515625</ele>
        <time>2008-07-20T09:21:19Z</time>
      </trkpt>
      <trkpt lat="46.094448566436768" lon="8.997373580932617">
        <ele>1355.59619140625</ele>
        <time>2008-07-20T09:21:30Z</time>
      </trkpt>
      <trkpt lat="46.094405651092529" lon="8.997223377227783">
        <ele>1357.038330078125</ele>
        <time>2008-07-20T09:21:40Z</time>
      </trkpt>
      <trkpt lat="46.094341278076172" lon="8.997008800506592">
        <ele>1357.999755859375</ele>
        <time>2008-07-20T09:21:54Z</time>
      </trkpt>
      <trkpt lat="46.094319820404053" lon="8.996944427490234">
        <ele>1358.480224609375</ele>
        <time>2008-07-20T09:22:04Z</time>
      </trkpt>
      <trkpt lat="46.094276905059814" lon="8.996858596801758">
        <ele>1360.40283203125</ele>
        <time>2008-07-20T09:22:28Z</time>
      </trkpt>
      <trkpt lat="46.094276905059814" lon="8.996837139129639">
        <ele>1360.40283203125</ele>
        <time>2008-07-20T09:22:29Z</time>
      </trkpt>
      <trkpt lat="46.094255447387695" lon="8.996751308441162">
        <ele>1360.40283203125</ele>
        <time>2008-07-20T09:22:36Z</time>
      </trkpt>
      <trkpt lat="46.094191074371338" lon="8.996536731719971">
        <ele>1361.844970703125</ele>
        <time>2008-07-20T09:22:51Z</time>
      </trkpt>
      <trkpt lat="46.0941481590271" lon="8.996386528015137">
        <ele>1362.80615234375</ele>
        <time>2008-07-20T09:23:03Z</time>
      </trkpt>
      <trkpt lat="46.094083786010742" lon="8.996171951293945">
        <ele>1364.728759765625</ele>
        <time>2008-07-20T09:23:17Z</time>
      </trkpt>
      <trkpt lat="46.094019412994385" lon="8.996000289916992">
        <ele>1366.170654296875</ele>
        <time>2008-07-20T09:23:29Z</time>
      </trkpt>
      <trkpt lat="46.093955039978027" lon="8.995785713195801">
        <ele>1368.573974609375</ele>
        <time>2008-07-20T09:23:45Z</time>
      </trkpt>
      <trkpt lat="46.093912124633789" lon="8.995614051818848">
        <ele>1369.535400390625</ele>
        <time>2008-07-20T09:23:56Z</time>
      </trkpt>
      <trkpt lat="46.09389066696167" lon="8.995442390441895">
        <ele>1370.49658203125</ele>
        <time>2008-07-20T09:24:08Z</time>
      </trkpt>
      <trkpt lat="46.09389066696167" lon="8.995249271392822">
        <ele>1371.457763671875</ele>
        <time>2008-07-20T09:24:20Z</time>
      </trkpt>
      <trkpt lat="46.09389066696167" lon="8.99505615234375">
        <ele>1373.380859375</ele>
        <time>2008-07-20T09:24:33Z</time>
      </trkpt>
      <trkpt lat="46.09389066696167" lon="8.994863033294678">
        <ele>1374.342041015625</ele>
        <time>2008-07-20T09:24:46Z</time>
      </trkpt>
      <trkpt lat="46.093912124633789" lon="8.994712829589844">
        <ele>1375.783935546875</ele>
        <time>2008-07-20T09:24:56Z</time>
      </trkpt>
      <trkpt lat="46.093955039978027" lon="8.994541168212891">
        <ele>1377.22607421875</ele>
        <time>2008-07-20T09:25:08Z</time>
      </trkpt>
      <trkpt lat="46.093997955322266" lon="8.994476795196533">
        <ele>1378.187255859375</ele>
        <time>2008-07-20T09:25:14Z</time>
      </trkpt>
      <trkpt lat="46.094019412994385" lon="8.994262218475342">
        <ele>1380.10986328125</ele>
        <time>2008-07-20T09:25:30Z</time>
      </trkpt>
      <trkpt lat="46.093997955322266" lon="8.994154930114746">
        <ele>1381.0712890625</ele>
        <time>2008-07-20T09:25:39Z</time>
      </trkpt>
      <trkpt lat="46.093997955322266" lon="8.994026184082031">
        <ele>1382.51318359375</ele>
        <time>2008-07-20T09:25:48Z</time>
      </trkpt>
      <trkpt lat="46.093976497650146" lon="8.993897438049316">
        <ele>1383.474365234375</ele>
        <time>2008-07-20T09:25:58Z</time>
      </trkpt>
      <trkpt lat="46.093976497650146" lon="8.993725776672363">
        <ele>1384.435791015625</ele>
        <time>2008-07-20T09:26:11Z</time>
      </trkpt>
      <trkpt lat="46.093933582305908" lon="8.993597030639648">
        <ele>1385.877685546875</ele>
        <time>2008-07-20T09:26:22Z</time>
      </trkpt>
      <trkpt lat="46.09389066696167" lon="8.993446826934815">
        <ele>1387.319580078125</ele>
        <time>2008-07-20T09:26:34Z</time>
      </trkpt>
      <trkpt lat="46.09389066696167" lon="8.993403911590576">
        <ele>1387.319580078125</ele>
        <time>2008-07-20T09:26:41Z</time>
      </trkpt>
      <trkpt lat="46.093847751617432" lon="8.993296623229981">
        <ele>1388.761962890625</ele>
        <time>2008-07-20T09:26:52Z</time>
      </trkpt>
      <trkpt lat="46.093826293945313" lon="8.993189334869385">
        <ele>1388.761962890625</ele>
        <time>2008-07-20T09:27:01Z</time>
      </trkpt>
      <trkpt lat="46.093761920928955" lon="8.993017673492432">
        <ele>1390.203857421875</ele>
        <time>2008-07-20T09:27:15Z</time>
      </trkpt>
      <trkpt lat="46.093719005584717" lon="8.992867469787598">
        <ele>1392.12646484375</ele>
        <time>2008-07-20T09:27:29Z</time>
      </trkpt>
      <trkpt lat="46.093676090240479" lon="8.992695808410645">
        <ele>1393.568359375</ele>
        <time>2008-07-20T09:27:44Z</time>
      </trkpt>
      <trkpt lat="46.093654632568359" lon="8.992588520050049">
        <ele>1394.529541015625</ele>
        <time>2008-07-20T09:27:54Z</time>
      </trkpt>
      <trkpt lat="46.093654632568359" lon="8.992502689361572">
        <ele>1394.529541015625</ele>
        <time>2008-07-20T09:28:09Z</time>
      </trkpt>
      <trkpt lat="46.093654632568359" lon="8.992352485656738">
        <ele>1395.9716796875</ele>
        <time>2008-07-20T09:28:21Z</time>
      </trkpt>
      <trkpt lat="46.093676090240479" lon="8.992202281951904">
        <ele>1397.41357421875</ele>
        <time>2008-07-20T09:28:33Z</time>
      </trkpt>
      <trkpt lat="46.093676090240479" lon="8.992030620574951">
        <ele>1398.85546875</ele>
        <time>2008-07-20T09:28:46Z</time>
      </trkpt>
      <trkpt lat="46.09363317489624" lon="8.99181604385376">
        <ele>1400.297607421875</ele>
        <time>2008-07-20T09:29:04Z</time>
      </trkpt>
      <trkpt lat="46.093611717224121" lon="8.991687297821045">
        <ele>1400.778076171875</ele>
        <time>2008-07-20T09:29:14Z</time>
      </trkpt>
      <trkpt lat="46.093547344207764" lon="8.99155855178833">
        <ele>1402.70068359375</ele>
        <time>2008-07-20T09:29:26Z</time>
      </trkpt>
      <trkpt lat="46.093482971191406" lon="8.991408348083496">
        <ele>1403.662109375</ele>
        <time>2008-07-20T09:29:39Z</time>
      </trkpt>
      <trkpt lat="46.093418598175049" lon="8.991343975067139">
        <ele>1405.104248046875</ele>
        <time>2008-07-20T09:29:51Z</time>
      </trkpt>
      <trkpt lat="46.09339714050293" lon="8.991365432739258">
        <ele>1405.5849609375</ele>
        <time>2008-07-20T09:30:53Z</time>
      </trkpt>
      <trkpt lat="46.09339714050293" lon="8.991343975067139">
        <ele>1406.0654296875</ele>
        <time>2008-07-20T09:35:32Z</time>
      </trkpt>
      <trkpt lat="46.09339714050293" lon="8.991258144378662">
        <ele>1404.62353515625</ele>
        <time>2008-07-20T09:36:02Z</time>
      </trkpt>
      <trkpt lat="46.093354225158691" lon="8.991150856018066">
        <ele>1405.104248046875</ele>
        <time>2008-07-20T09:36:14Z</time>
      </trkpt>
      <trkpt lat="46.093311309814453" lon="8.991043567657471">
        <ele>1406.546142578125</ele>
        <time>2008-07-20T09:36:25Z</time>
      </trkpt>
      <trkpt lat="46.093246936798096" lon="8.990914821624756">
        <ele>1408.46875</ele>
        <time>2008-07-20T09:36:40Z</time>
      </trkpt>
      <trkpt lat="46.093161106109619" lon="8.990764617919922">
        <ele>1409.91064453125</ele>
        <time>2008-07-20T09:36:55Z</time>
      </trkpt>
      <trkpt lat="46.093096733093262" lon="8.990592956542969">
        <ele>1411.352783203125</ele>
        <time>2008-07-20T09:37:09Z</time>
      </trkpt>
      <trkpt lat="46.093053817749023" lon="8.990485668182373">
        <ele>1412.794677734375</ele>
        <time>2008-07-20T09:37:20Z</time>
      </trkpt>
      <trkpt lat="46.093010902404785" lon="8.990335464477539">
        <ele>1413.275390625</ele>
        <time>2008-07-20T09:37:32Z</time>
      </trkpt>
      <trkpt lat="46.092967987060547" lon="8.990163803100586">
        <ele>1414.236572265625</ele>
        <time>2008-07-20T09:37:45Z</time>
      </trkpt>
      <trkpt lat="46.092925071716309" lon="8.989992141723633">
        <ele>1415.197998046875</ele>
        <time>2008-07-20T09:37:58Z</time>
      </trkpt>
      <trkpt lat="46.092903614044189" lon="8.98982048034668">
        <ele>1416.639892578125</ele>
        <time>2008-07-20T09:38:10Z</time>
      </trkpt>
      <trkpt lat="46.092860698699951" lon="8.989713191986084">
        <ele>1417.12060546875</ele>
        <time>2008-07-20T09:38:18Z</time>
      </trkpt>
      <trkpt lat="46.092796325683594" lon="8.989455699920654">
        <ele>1418.5625</ele>
        <time>2008-07-20T09:38:30Z</time>
      </trkpt>
      <trkpt lat="46.092753410339355" lon="8.989219665527344">
        <ele>1419.52392578125</ele>
        <time>2008-07-20T09:38:42Z</time>
      </trkpt>
      <trkpt lat="46.092731952667236" lon="8.988983631134033">
        <ele>1421.446533203125</ele>
        <time>2008-07-20T09:38:55Z</time>
      </trkpt>
      <trkpt lat="46.092774868011475" lon="8.988919258117676">
        <ele>1422.407958984375</ele>
        <time>2008-07-20T09:39:00Z</time>
      </trkpt>
      <trkpt lat="46.09288215637207" lon="8.989026546478272">
        <ele>1423.369384765625</ele>
        <time>2008-07-20T09:39:11Z</time>
      </trkpt>
      <trkpt lat="46.092989444732666" lon="8.989219665527344">
        <ele>1424.33056640625</ele>
        <time>2008-07-20T09:39:25Z</time>
      </trkpt>
      <trkpt lat="46.093096733093262" lon="8.989434242248535">
        <ele>1425.291748046875</ele>
        <time>2008-07-20T09:39:39Z</time>
      </trkpt>
      <trkpt lat="46.093182563781738" lon="8.98956298828125">
        <ele>1426.253173828125</ele>
        <time>2008-07-20T09:39:48Z</time>
      </trkpt>
      <trkpt lat="46.093268394470215" lon="8.989756107330322">
        <ele>1427.214599609375</ele>
        <time>2008-07-20T09:40:01Z</time>
      </trkpt>
      <trkpt lat="46.093375682830811" lon="8.989949226379395">
        <ele>1428.656494140625</ele>
        <time>2008-07-20T09:40:14Z</time>
      </trkpt>
      <trkpt lat="46.093482971191406" lon="8.990142345428467">
        <ele>1430.098388671875</ele>
        <time>2008-07-20T09:40:27Z</time>
      </trkpt>
      <trkpt lat="46.093590259552002" lon="8.99031400680542">
        <ele>1432.501708984375</ele>
        <time>2008-07-20T09:40:40Z</time>
      </trkpt>
      <trkpt lat="46.093697547912598" lon="8.990507125854492">
        <ele>1433.462890625</ele>
        <time>2008-07-20T09:40:53Z</time>
      </trkpt>
      <trkpt lat="46.093783378601074" lon="8.990635871887207">
        <ele>1434.905029296875</ele>
        <time>2008-07-20T09:41:04Z</time>
      </trkpt>
      <trkpt lat="46.093869209289551" lon="8.990764617919922">
        <ele>1435.8662109375</ele>
        <time>2008-07-20T09:41:14Z</time>
      </trkpt>
      <trkpt lat="46.093955039978027" lon="8.990871906280518">
        <ele>1437.308349609375</ele>
        <time>2008-07-20T09:41:23Z</time>
      </trkpt>
      <trkpt lat="46.094040870666504" lon="8.991022109985352">
        <ele>1438.269775390625</ele>
        <time>2008-07-20T09:41:34Z</time>
      </trkpt>
      <trkpt lat="46.09412670135498" lon="8.991129398345947">
        <ele>1439.23095703125</ele>
        <time>2008-07-20T09:41:44Z</time>
      </trkpt>
      <trkpt lat="46.094191074371338" lon="8.991258144378662">
        <ele>1440.1923828125</ele>
        <time>2008-07-20T09:41:53Z</time>
      </trkpt>
      <trkpt lat="46.094276905059814" lon="8.991386890411377">
        <ele>1441.63427734375</ele>
        <time>2008-07-20T09:42:04Z</time>
      </trkpt>
      <trkpt lat="46.094362735748291" lon="8.991537094116211">
        <ele>1443.076171875</ele>
        <time>2008-07-20T09:42:14Z</time>
      </trkpt>
      <trkpt lat="46.094448566436768" lon="8.991687297821045">
        <ele>1444.51806640625</ele>
        <time>2008-07-20T09:42:25Z</time>
      </trkpt>
      <trkpt lat="46.094534397125244" lon="8.991837501525879">
        <ele>1445.4794921875</ele>
        <time>2008-07-20T09:42:36Z</time>
      </trkpt>
      <trkpt lat="46.094620227813721" lon="8.991966247558594">
        <ele>1446.92138671875</ele>
        <time>2008-07-20T09:42:46Z</time>
      </trkpt>
      <trkpt lat="46.094770431518555" lon="8.992159366607666">
        <ele>1448.843994140625</ele>
        <time>2008-07-20T09:42:59Z</time>
      </trkpt>
      <trkpt lat="46.094920635223389" lon="8.992352485656738">
        <ele>1450.2861328125</ele>
        <time>2008-07-20T09:43:13Z</time>
      </trkpt>
      <trkpt lat="46.095113754272461" lon="8.992545604705811">
        <ele>1453.170166015625</ele>
        <time>2008-07-20T09:43:29Z</time>
      </trkpt>
      <trkpt lat="46.095221042633057" lon="8.992717266082764">
        <ele>1454.131591796875</ele>
        <time>2008-07-20T09:43:41Z</time>
      </trkpt>
      <trkpt lat="46.095328330993652" lon="8.992867469787598">
        <ele>1455.573486328125</ele>
        <time>2008-07-20T09:43:52Z</time>
      </trkpt>
      <trkpt lat="46.095435619354248" lon="8.992996215820313">
        <ele>1457.015380859375</ele>
        <time>2008-07-20T09:44:01Z</time>
      </trkpt>
      <trkpt lat="46.095521450042725" lon="8.993124961853027">
        <ele>1457.976806640625</ele>
        <time>2008-07-20T09:44:11Z</time>
      </trkpt>
      <trkpt lat="46.09562873840332" lon="8.993253707885742">
        <ele>1459.418701171875</ele>
        <time>2008-07-20T09:44:21Z</time>
      </trkpt>
      <trkpt lat="46.095736026763916" lon="8.993425369262695">
        <ele>1460.3798828125</ele>
        <time>2008-07-20T09:44:32Z</time>
      </trkpt>
      <trkpt lat="46.095821857452393" lon="8.99355411529541">
        <ele>1461.34130859375</ele>
        <time>2008-07-20T09:44:40Z</time>
      </trkpt>
      <trkpt lat="46.095907688140869" lon="8.993682861328125">
        <ele>1462.302490234375</ele>
        <time>2008-07-20T09:44:49Z</time>
      </trkpt>
      <trkpt lat="46.095993518829346" lon="8.993790149688721">
        <ele>1463.263916015625</ele>
        <time>2008-07-20T09:44:58Z</time>
      </trkpt>
      <trkpt lat="46.096100807189941" lon="8.993940353393555">
        <ele>1464.22509765625</ele>
        <time>2008-07-20T09:45:09Z</time>
      </trkpt>
      <trkpt lat="46.096229553222656" lon="8.994090557098389">
        <ele>1466.147705078125</ele>
        <time>2008-07-20T09:45:21Z</time>
      </trkpt>
      <trkpt lat="46.096251010894775" lon="8.994090557098389">
        <ele>1466.147705078125</ele>
        <time>2008-07-20T09:45:23Z</time>
      </trkpt>
      <trkpt lat="46.096293926239014" lon="8.994154930114746">
        <ele>1467.109130859375</ele>
        <time>2008-07-20T09:45:28Z</time>
      </trkpt>
      <trkpt lat="46.096422672271729" lon="8.994283676147461">
        <ele>1468.070556640625</ele>
        <time>2008-07-20T09:45:39Z</time>
      </trkpt>
      <trkpt lat="46.096551418304443" lon="8.994390964508057">
        <ele>1469.5126953125</ele>
        <time>2008-07-20T09:45:51Z</time>
      </trkpt>
      <trkpt lat="46.096680164337158" lon="8.994498252868652">
        <ele>1470.473876953125</ele>
        <time>2008-07-20T09:46:04Z</time>
      </trkpt>
      <trkpt lat="46.096830368041992" lon="8.994584083557129">
        <ele>1471.915771484375</ele>
        <time>2008-07-20T09:46:16Z</time>
      </trkpt>
      <trkpt lat="46.096959114074707" lon="8.994648456573486">
        <ele>1473.35791015625</ele>
        <time>2008-07-20T09:46:27Z</time>
      </trkpt>
      <trkpt lat="46.097066402435303" lon="8.994691371917725">
        <ele>1473.83837890625</ele>
        <time>2008-07-20T09:46:36Z</time>
      </trkpt>
      <trkpt lat="46.097216606140137" lon="8.99479866027832">
        <ele>1475.760986328125</ele>
        <time>2008-07-20T09:46:49Z</time>
      </trkpt>
      <trkpt lat="46.097345352172852" lon="8.994905948638916">
        <ele>1477.203125</ele>
        <time>2008-07-20T09:47:02Z</time>
      </trkpt>
      <trkpt lat="46.097474098205566" lon="8.994991779327393">
        <ele>1478.64501953125</ele>
        <time>2008-07-20T09:47:13Z</time>
      </trkpt>
      <trkpt lat="46.0976243019104" lon="8.995077610015869">
        <ele>1480.567626953125</ele>
        <time>2008-07-20T09:47:26Z</time>
      </trkpt>
      <trkpt lat="46.097710132598877" lon="8.995141983032227">
        <ele>1481.52880859375</ele>
        <time>2008-07-20T09:47:35Z</time>
      </trkpt>
      <trkpt lat="46.097753047943115" lon="8.995163440704346">
        <ele>1482.009521484375</ele>
        <time>2008-07-20T09:47:39Z</time>
      </trkpt>
      <trkpt lat="46.097860336303711" lon="8.995227813720703">
        <ele>1483.451416015625</ele>
        <time>2008-07-20T09:47:49Z</time>
      </trkpt>
      <trkpt lat="46.097967624664307" lon="8.995292186737061">
        <ele>1484.4130859375</ele>
        <time>2008-07-20T09:47:58Z</time>
      </trkpt>
      <trkpt lat="46.098074913024902" lon="8.995356559753418">
        <ele>1485.85498046875</ele>
        <time>2008-07-20T09:48:08Z</time>
      </trkpt>
      <trkpt lat="46.098203659057617" lon="8.995420932769775">
        <ele>1487.296875</ele>
        <time>2008-07-20T09:48:19Z</time>
      </trkpt>
      <trkpt lat="46.098332405090332" lon="8.995463848114014">
        <ele>1488.25830078125</ele>
        <time>2008-07-20T09:48:29Z</time>
      </trkpt>
      <trkpt lat="46.098461151123047" lon="8.995442390441895">
        <ele>1489.7001953125</ele>
        <time>2008-07-20T09:48:39Z</time>
      </trkpt>
      <trkpt lat="46.098546981811523" lon="8.995399475097656">
        <ele>1491.14208984375</ele>
        <time>2008-07-20T09:48:47Z</time>
      </trkpt>
      <trkpt lat="46.098697185516357" lon="8.995335102081299">
        <ele>1492.103515625</ele>
        <time>2008-07-20T09:49:00Z</time>
      </trkpt>
      <trkpt lat="46.098847389221191" lon="8.995292186737061">
        <ele>1495.468017578125</ele>
        <time>2008-07-20T09:49:12Z</time>
      </trkpt>
      <trkpt lat="46.098976135253906" lon="8.995292186737061">
        <ele>1497.871337890625</ele>
        <time>2008-07-20T09:49:24Z</time>
      </trkpt>
      <trkpt lat="46.099104881286621" lon="8.995270729064941">
        <ele>1499.7939453125</ele>
        <time>2008-07-20T09:49:34Z</time>
      </trkpt>
      <trkpt lat="46.099255084991455" lon="8.995249271392822">
        <ele>1501.716796875</ele>
        <time>2008-07-20T09:49:46Z</time>
      </trkpt>
      <trkpt lat="46.09938383102417" lon="8.995227813720703">
        <ele>1503.639404296875</ele>
        <time>2008-07-20T09:49:57Z</time>
      </trkpt>
      <trkpt lat="46.099512577056885" lon="8.995163440704346">
        <ele>1504.6005859375</ele>
        <time>2008-07-20T09:50:07Z</time>
      </trkpt>
      <trkpt lat="46.09961986541748" lon="8.995099067687988">
        <ele>1505.56201171875</ele>
        <time>2008-07-20T09:50:17Z</time>
      </trkpt>
      <trkpt lat="46.099748611450195" lon="8.99505615234375">
        <ele>1507.484619140625</ele>
        <time>2008-07-20T09:50:30Z</time>
      </trkpt>
      <trkpt lat="46.099941730499268" lon="8.995013236999512">
        <ele>1510.368408203125</ele>
        <time>2008-07-20T09:50:45Z</time>
      </trkpt>
      <trkpt lat="46.100113391876221" lon="8.994991779327393">
        <ele>1512.291015625</ele>
        <time>2008-07-20T09:50:59Z</time>
      </trkpt>
      <trkpt lat="46.100177764892578" lon="8.994948863983154">
        <ele>1512.771728515625</ele>
        <time>2008-07-20T09:51:05Z</time>
      </trkpt>
      <trkpt lat="46.100242137908936" lon="8.994948863983154">
        <ele>1513.25244140625</ele>
        <time>2008-07-20T09:51:10Z</time>
      </trkpt>
      <trkpt lat="46.10039234161377" lon="8.995034694671631">
        <ele>1513.73291015625</ele>
        <time>2008-07-20T09:51:22Z</time>
      </trkpt>
      <trkpt lat="46.100456714630127" lon="8.995249271392822">
        <ele>1514.213623046875</ele>
        <time>2008-07-20T09:51:34Z</time>
      </trkpt>
      <trkpt lat="46.100521087646484" lon="8.995506763458252">
        <ele>1515.175048828125</ele>
        <time>2008-07-20T09:51:47Z</time>
      </trkpt>
      <trkpt lat="46.100564002990723" lon="8.995742797851563">
        <ele>1516.136474609375</ele>
        <time>2008-07-20T09:52:00Z</time>
      </trkpt>
      <trkpt lat="46.100606918334961" lon="8.995957374572754">
        <ele>1516.136474609375</ele>
        <time>2008-07-20T09:52:11Z</time>
      </trkpt>
      <trkpt lat="46.100735664367676" lon="8.996193408966065">
        <ele>1516.136474609375</ele>
        <time>2008-07-20T09:52:24Z</time>
      </trkpt>
      <trkpt lat="46.10088586807251" lon="8.996407985687256">
        <ele>1517.578369140625</ele>
        <time>2008-07-20T09:52:37Z</time>
      </trkpt>
      <trkpt lat="46.101014614105225" lon="8.996579647064209">
        <ele>1519.0205078125</ele>
        <time>2008-07-20T09:52:49Z</time>
      </trkpt>
      <trkpt lat="46.101143360137939" lon="8.99681568145752">
        <ele>1521.423583984375</ele>
        <time>2008-07-20T09:53:02Z</time>
      </trkpt>
      <trkpt lat="46.101229190826416" lon="8.997094631195068">
        <ele>1522.86572265625</ele>
        <time>2008-07-20T09:53:15Z</time>
      </trkpt>
      <trkpt lat="46.101272106170654" lon="8.997395038604736">
        <ele>1523.346435546875</ele>
        <time>2008-07-20T09:53:28Z</time>
      </trkpt>
      <trkpt lat="46.101293563842773" lon="8.997673988342285">
        <ele>1523.826904296875</ele>
        <time>2008-07-20T09:53:41Z</time>
      </trkpt>
      <trkpt lat="46.101357936859131" lon="8.997888565063477">
        <ele>1523.826904296875</ele>
        <time>2008-07-20T09:53:52Z</time>
      </trkpt>
      <trkpt lat="46.101465225219727" lon="8.998146057128906">
        <ele>1524.788330078125</ele>
        <time>2008-07-20T09:54:06Z</time>
      </trkpt>
      <trkpt lat="46.101572513580322" lon="8.998360633850098">
        <ele>1526.230224609375</ele>
        <time>2008-07-20T09:54:18Z</time>
      </trkpt>
      <trkpt lat="46.101658344268799" lon="8.998532295227051">
        <ele>1527.191650390625</ele>
        <time>2008-07-20T09:54:29Z</time>
      </trkpt>
      <trkpt lat="46.101765632629395" lon="8.998725414276123">
        <ele>1528.633544921875</ele>
        <time>2008-07-20T09:54:41Z</time>
      </trkpt>
      <trkpt lat="46.101851463317871" lon="8.998875617980957">
        <ele>1529.5947265625</ele>
        <time>2008-07-20T09:54:51Z</time>
      </trkpt>
      <trkpt lat="46.101980209350586" lon="8.99904727935791">
        <ele>1531.036865234375</ele>
        <time>2008-07-20T09:55:03Z</time>
      </trkpt>
      <trkpt lat="46.102066040039063" lon="8.999176025390625">
        <ele>1531.998046875</ele>
        <time>2008-07-20T09:55:13Z</time>
      </trkpt>
      <trkpt lat="46.102108955383301" lon="8.999197483062744">
        <ele>1532.47900390625</ele>
        <time>2008-07-20T09:55:16Z</time>
      </trkpt>
      <trkpt lat="46.10213041305542" lon="8.999240398406982">
        <ele>1532.95947265625</ele>
        <time>2008-07-20T09:55:20Z</time>
      </trkpt>
      <trkpt lat="46.102237701416016" lon="8.999369144439697">
        <ele>1533.440185546875</ele>
        <time>2008-07-20T09:55:31Z</time>
      </trkpt>
      <trkpt lat="46.102323532104492" lon="8.99954080581665">
        <ele>1534.401611328125</ele>
        <time>2008-07-20T09:55:43Z</time>
      </trkpt>
      <trkpt lat="46.10238790512085" lon="8.999605178833008">
        <ele>1534.88232421875</ele>
        <time>2008-07-20T09:55:49Z</time>
      </trkpt>
      <trkpt lat="46.102495193481445" lon="8.999819755554199">
        <ele>1536.32421875</ele>
        <time>2008-07-20T09:56:02Z</time>
      </trkpt>
      <trkpt lat="46.10262393951416" lon="9.00005578994751">
        <ele>1537.76611328125</ele>
        <time>2008-07-20T09:56:16Z</time>
      </trkpt>
      <trkpt lat="46.102731227874756" lon="9.000270366668701">
        <ele>1539.688720703125</ele>
        <time>2008-07-20T09:56:30Z</time>
      </trkpt>
      <trkpt lat="46.102817058563232" lon="9.000484943389893">
        <ele>1540.64990234375</ele>
        <time>2008-07-20T09:56:42Z</time>
      </trkpt>
      <trkpt lat="46.102924346923828" lon="9.000678062438965">
        <ele>1541.130615234375</ele>
        <time>2008-07-20T09:56:54Z</time>
      </trkpt>
      <trkpt lat="46.103010177612305" lon="9.000871181488037">
        <ele>1542.092041015625</ele>
        <time>2008-07-20T09:57:05Z</time>
      </trkpt>
      <trkpt lat="46.103074550628662" lon="9.001107215881348">
        <ele>1543.05322265625</ele>
        <time>2008-07-20T09:57:18Z</time>
      </trkpt>
      <trkpt lat="46.103160381317139" lon="9.001386165618897">
        <ele>1544.0146484375</ele>
        <time>2008-07-20T09:57:32Z</time>
      </trkpt>
      <trkpt lat="46.103224754333496" lon="9.001579284667969">
        <ele>1544.975830078125</ele>
        <time>2008-07-20T09:57:43Z</time>
      </trkpt>
      <trkpt lat="46.103267669677734" lon="9.00179386138916">
        <ele>1545.937255859375</ele>
        <time>2008-07-20T09:57:54Z</time>
      </trkpt>
      <trkpt lat="46.103310585021973" lon="9.002008438110352">
        <ele>1546.8984375</ele>
        <time>2008-07-20T09:58:05Z</time>
      </trkpt>
      <trkpt lat="46.10337495803833" lon="9.002201557159424">
        <ele>1547.85986328125</ele>
        <time>2008-07-20T09:58:17Z</time>
      </trkpt>
      <trkpt lat="46.103439331054687" lon="9.002416133880615">
        <ele>1549.302001953125</ele>
        <time>2008-07-20T09:58:29Z</time>
      </trkpt>
      <trkpt lat="46.103525161743164" lon="9.002609252929688">
        <ele>1550.743896484375</ele>
        <time>2008-07-20T09:58:41Z</time>
      </trkpt>
      <trkpt lat="46.10363245010376" lon="9.002866744995117">
        <ele>1551.705322265625</ele>
        <time>2008-07-20T09:58:57Z</time>
      </trkpt>
      <trkpt lat="46.103739738464355" lon="9.003016948699951">
        <ele>1553.147216796875</ele>
        <time>2008-07-20T09:59:08Z</time>
      </trkpt>
      <trkpt lat="46.103825569152832" lon="9.003188610076904">
        <ele>1554.589111328125</ele>
        <time>2008-07-20T09:59:20Z</time>
      </trkpt>
      <trkpt lat="46.103932857513428" lon="9.003338813781738">
        <ele>1555.06982421875</ele>
        <time>2008-07-20T09:59:32Z</time>
      </trkpt>
      <trkpt lat="46.104018688201904" lon="9.003489017486572">
        <ele>1556.031005859375</ele>
        <time>2008-07-20T09:59:42Z</time>
      </trkpt>
      <trkpt lat="46.104104518890381" lon="9.003660678863525">
        <ele>1556.992431640625</ele>
        <time>2008-07-20T09:59:54Z</time>
      </trkpt>
      <trkpt lat="46.104190349578857" lon="9.003832340240479">
        <ele>1558.434326171875</ele>
        <time>2008-07-20T10:00:05Z</time>
      </trkpt>
      <trkpt lat="46.104254722595215" lon="9.003961086273193">
        <ele>1558.9150390625</ele>
        <time>2008-07-20T10:00:15Z</time>
      </trkpt>
      <trkpt lat="46.104319095611572" lon="9.004089832305908">
        <ele>1559.395751953125</ele>
        <time>2008-07-20T10:00:24Z</time>
      </trkpt>
      <trkpt lat="46.104404926300049" lon="9.004261493682861">
        <ele>1560.837646484375</ele>
        <time>2008-07-20T10:00:36Z</time>
      </trkpt>
      <trkpt lat="46.104426383972168" lon="9.004325866699219">
        <ele>1561.799072265625</ele>
        <time>2008-07-20T10:00:43Z</time>
      </trkpt>
      <trkpt lat="46.104447841644287" lon="9.004390239715576">
        <ele>1562.279541015625</ele>
        <time>2008-07-20T10:00:54Z</time>
      </trkpt>
      <trkpt lat="46.104469299316406" lon="9.004454612731934">
        <ele>1562.76025390625</ele>
        <time>2008-07-20T10:01:04Z</time>
      </trkpt>
      <trkpt lat="46.104533672332764" lon="9.004583358764648">
        <ele>1563.240966796875</ele>
        <time>2008-07-20T10:01:15Z</time>
      </trkpt>
      <trkpt lat="46.104576587677002" lon="9.004755020141602">
        <ele>1564.202392578125</ele>
        <time>2008-07-20T10:01:29Z</time>
      </trkpt>
      <trkpt lat="46.10461950302124" lon="9.004905223846436">
        <ele>1565.163818359375</ele>
        <time>2008-07-20T10:01:40Z</time>
      </trkpt>
      <trkpt lat="46.104576587677002" lon="9.00503396987915">
        <ele>1566.605712890625</ele>
        <time>2008-07-20T10:01:51Z</time>
      </trkpt>
      <trkpt lat="46.104576587677002" lon="9.00503396987915">
        <ele>1567.08642578125</ele>
        <time>2008-07-20T10:01:52Z</time>
      </trkpt>
      <trkpt lat="46.104533672332764" lon="9.005205631256104">
        <ele>1567.56689453125</ele>
        <time>2008-07-20T10:02:05Z</time>
      </trkpt>
      <trkpt lat="46.104512214660645" lon="9.005355834960938">
        <ele>1569.009033203125</ele>
        <time>2008-07-20T10:02:17Z</time>
      </trkpt>
      <trkpt lat="46.104490756988525" lon="9.00554895401001">
        <ele>1570.931640625</ele>
        <time>2008-07-20T10:02:30Z</time>
      </trkpt>
      <trkpt lat="46.104512214660645" lon="9.005742073059082">
        <ele>1572.37353515625</ele>
        <time>2008-07-20T10:02:44Z</time>
      </trkpt>
      <trkpt lat="46.104512214660645" lon="9.005913734436035">
        <ele>1572.854248046875</ele>
        <time>2008-07-20T10:02:57Z</time>
      </trkpt>
      <trkpt lat="46.104555130004883" lon="9.006106853485107">
        <ele>1573.8154296875</ele>
        <time>2008-07-20T10:03:11Z</time>
      </trkpt>
      <trkpt lat="46.104598045349121" lon="9.00629997253418">
        <ele>1575.25732421875</ele>
        <time>2008-07-20T10:03:26Z</time>
      </trkpt>
      <trkpt lat="46.104640960693359" lon="9.006471633911133">
        <ele>1576.21875</ele>
        <time>2008-07-20T10:03:38Z</time>
      </trkpt>
      <trkpt lat="46.104683876037598" lon="9.006643295288086">
        <ele>1577.66064453125</ele>
        <time>2008-07-20T10:03:50Z</time>
      </trkpt>
      <trkpt lat="46.104726791381836" lon="9.006772041320801">
        <ele>1578.6220703125</ele>
        <time>2008-07-20T10:04:02Z</time>
      </trkpt>
      <trkpt lat="46.104769706726074" lon="9.006943702697754">
        <ele>1580.064208984375</ele>
        <time>2008-07-20T10:04:16Z</time>
      </trkpt>
      <trkpt lat="46.104834079742432" lon="9.007093906402588">
        <ele>1581.025634765625</ele>
        <time>2008-07-20T10:04:30Z</time>
      </trkpt>
      <trkpt lat="46.104898452758789" lon="9.007244110107422">
        <ele>1583.4287109375</ele>
        <time>2008-07-20T10:04:43Z</time>
      </trkpt>
      <trkpt lat="46.10487699508667" lon="9.007394313812256">
        <ele>1584.870849609375</ele>
        <time>2008-07-20T10:04:55Z</time>
      </trkpt>
      <trkpt lat="46.104834079742432" lon="9.007458686828613">
        <ele>1585.351318359375</ele>
        <time>2008-07-20T10:05:02Z</time>
      </trkpt>
      <trkpt lat="46.104726791381836" lon="9.007587432861328">
        <ele>1585.83203125</ele>
        <time>2008-07-20T10:05:17Z</time>
      </trkpt>
      <trkpt lat="46.10461950302124" lon="9.007651805877686">
        <ele>1587.27392578125</ele>
        <time>2008-07-20T10:05:28Z</time>
      </trkpt>
      <trkpt lat="46.104490756988525" lon="9.007737636566162">
        <ele>1588.716064453125</ele>
        <time>2008-07-20T10:05:38Z</time>
      </trkpt>
      <trkpt lat="46.104340553283691" lon="9.007844924926758">
        <ele>1590.638427734375</ele>
        <time>2008-07-20T10:05:49Z</time>
      </trkpt>
      <trkpt lat="46.104211807250977" lon="9.007995128631592">
        <ele>1592.561279296875</ele>
        <time>2008-07-20T10:06:01Z</time>
      </trkpt>
      <trkpt lat="46.104104518890381" lon="9.008188247680664">
        <ele>1594.96435546875</ele>
        <time>2008-07-20T10:06:12Z</time>
      </trkpt>
      <trkpt lat="46.104040145874023" lon="9.008424282073975">
        <ele>1596.88720703125</ele>
        <time>2008-07-20T10:06:23Z</time>
      </trkpt>
      <trkpt lat="46.104040145874023" lon="9.008681774139404">
        <ele>1597.8486328125</ele>
        <time>2008-07-20T10:06:36Z</time>
      </trkpt>
      <trkpt lat="46.104104518890381" lon="9.008982181549072">
        <ele>1598.3291015625</ele>
        <time>2008-07-20T10:06:50Z</time>
      </trkpt>
      <trkpt lat="46.104147434234619" lon="9.009196758270264">
        <ele>1598.3291015625</ele>
        <time>2008-07-20T10:07:01Z</time>
      </trkpt>
      <trkpt lat="46.104190349578857" lon="9.009389877319336">
        <ele>1597.8486328125</ele>
        <time>2008-07-20T10:07:11Z</time>
      </trkpt>
      <trkpt lat="46.104254722595215" lon="9.009625911712647">
        <ele>1598.809814453125</ele>
        <time>2008-07-20T10:07:23Z</time>
      </trkpt>
      <trkpt lat="46.104297637939453" lon="9.009711742401123">
        <ele>1599.29052734375</ele>
        <time>2008-07-20T10:07:28Z</time>
      </trkpt>
      <trkpt lat="46.104233264923096" lon="9.009926319122315">
        <ele>1600.251953125</ele>
        <time>2008-07-20T10:07:40Z</time>
      </trkpt>
      <trkpt lat="46.1041259765625" lon="9.010162353515625">
        <ele>1600.732421875</ele>
        <time>2008-07-20T10:07:50Z</time>
      </trkpt>
      <trkpt lat="46.1041259765625" lon="9.010484218597412">
        <ele>1601.213134765625</ele>
        <time>2008-07-20T10:08:00Z</time>
      </trkpt>
      <trkpt lat="46.104018688201904" lon="9.010763168334961">
        <ele>1601.213134765625</ele>
        <time>2008-07-20T10:08:09Z</time>
      </trkpt>
      <trkpt lat="46.103825569152832" lon="9.010698795318604">
        <ele>1601.69384765625</ele>
        <time>2008-07-20T10:08:17Z</time>
      </trkpt>
      <trkpt lat="46.103589534759521" lon="9.010698795318604">
        <ele>1601.213134765625</ele>
        <time>2008-07-20T10:08:27Z</time>
      </trkpt>
      <trkpt lat="46.10337495803833" lon="9.010655879974365">
        <ele>1600.251953125</ele>
        <time>2008-07-20T10:08:36Z</time>
      </trkpt>
      <trkpt lat="46.103160381317139" lon="9.010655879974365">
        <ele>1599.771240234375</ele>
        <time>2008-07-20T10:08:45Z</time>
      </trkpt>
      <trkpt lat="46.102817058563232" lon="9.010741710662842">
        <ele>1598.809814453125</ele>
        <time>2008-07-20T10:08:57Z</time>
      </trkpt>
      <trkpt lat="46.102495193481445" lon="9.010870456695557">
        <ele>1597.8486328125</ele>
        <time>2008-07-20T10:09:08Z</time>
      </trkpt>
      <trkpt lat="46.102151870727539" lon="9.011085033416748">
        <ele>1596.88720703125</ele>
        <time>2008-07-20T10:09:18Z</time>
      </trkpt>
      <trkpt lat="46.101915836334229" lon="9.011363983154297">
        <ele>1595.92578125</ele>
        <time>2008-07-20T10:09:26Z</time>
      </trkpt>
      <trkpt lat="46.101679801940918" lon="9.011814594268799">
        <ele>1595.445068359375</ele>
        <time>2008-07-20T10:09:36Z</time>
      </trkpt>
      <trkpt lat="46.101615428924561" lon="9.012072086334229">
        <ele>1594.96435546875</ele>
        <time>2008-07-20T10:09:41Z</time>
      </trkpt>
      <trkpt lat="46.101658344268799" lon="9.012415409088135">
        <ele>1594.96435546875</ele>
        <time>2008-07-20T10:09:49Z</time>
      </trkpt>
      <trkpt lat="46.10163688659668" lon="9.012629985809326">
        <ele>1595.92578125</ele>
        <time>2008-07-20T10:09:56Z</time>
      </trkpt>
      <trkpt lat="46.101486682891846" lon="9.012715816497803">
        <ele>1597.8486328125</ele>
        <time>2008-07-20T10:10:02Z</time>
      </trkpt>
      <trkpt lat="46.101315021514893" lon="9.012715816497803">
        <ele>1599.29052734375</ele>
        <time>2008-07-20T10:10:10Z</time>
      </trkpt>
      <trkpt lat="46.10112190246582" lon="9.012823104858398">
        <ele>1600.732421875</ele>
        <time>2008-07-20T10:10:20Z</time>
      </trkpt>
      <trkpt lat="46.100971698760986" lon="9.012973308563232">
        <ele>1601.69384765625</ele>
        <time>2008-07-20T10:10:31Z</time>
      </trkpt>
      <trkpt lat="46.100842952728271" lon="9.013123512268066">
        <ele>1603.1357421875</ele>
        <time>2008-07-20T10:10:41Z</time>
      </trkpt>
      <trkpt lat="46.100671291351318" lon="9.013316631317139">
        <ele>1606.01953125</ele>
        <time>2008-07-20T10:10:55Z</time>
      </trkpt>
      <trkpt lat="46.100564002990723" lon="9.013488292694092">
        <ele>1607.9423828125</ele>
        <time>2008-07-20T10:11:06Z</time>
      </trkpt>
      <trkpt lat="46.100435256958008" lon="9.013659954071045">
        <ele>1609.86474609375</ele>
        <time>2008-07-20T10:11:17Z</time>
      </trkpt>
      <trkpt lat="46.100349426269531" lon="9.013831615447998">
        <ele>1610.826171875</ele>
        <time>2008-07-20T10:11:28Z</time>
      </trkpt>
      <trkpt lat="46.100327968597412" lon="9.013853073120117">
        <ele>1610.826171875</ele>
        <time>2008-07-20T10:11:35Z</time>
      </trkpt>
      <trkpt lat="46.100306510925293" lon="9.013853073120117">
        <ele>1610.826171875</ele>
        <time>2008-07-20T10:11:36Z</time>
      </trkpt>
      <trkpt lat="46.100263595581055" lon="9.013831615447998">
        <ele>1609.86474609375</ele>
        <time>2008-07-20T10:11:40Z</time>
      </trkpt>
      <trkpt lat="46.100177764892578" lon="9.013767242431641">
        <ele>1609.38427734375</ele>
        <time>2008-07-20T10:11:46Z</time>
      </trkpt>
      <trkpt lat="46.100113391876221" lon="9.013745784759522">
        <ele>1607.461669921875</ele>
        <time>2008-07-20T10:11:54Z</time>
      </trkpt>
      <trkpt lat="46.100113391876221" lon="9.013745784759522">
        <ele>1606.98095703125</ele>
        <time>2008-07-20T10:11:58Z</time>
      </trkpt>
      <trkpt lat="46.099963188171387" lon="9.013960361480713">
        <ele>1606.500244140625</ele>
        <time>2008-07-20T11:26:01Z</time>
      </trkpt>
      <trkpt lat="46.100027561187744" lon="9.013981819152832">
        <ele>1600.251953125</ele>
        <time>2008-07-20T11:26:08Z</time>
      </trkpt>
      <trkpt lat="46.100049018859863" lon="9.013981819152832">
        <ele>1603.616455078125</ele>
        <time>2008-07-20T11:26:12Z</time>
      </trkpt>
      <trkpt lat="46.100113391876221" lon="9.01378870010376">
        <ele>1604.09716796875</ele>
        <time>2008-07-20T11:26:27Z</time>
      </trkpt>
      <trkpt lat="46.100113391876221" lon="9.013767242431641">
        <ele>1604.09716796875</ele>
        <time>2008-07-20T11:26:28Z</time>
      </trkpt>
      <trkpt lat="46.100199222564697" lon="9.013745784759522">
        <ele>1604.57763671875</ele>
        <time>2008-07-20T11:26:35Z</time>
      </trkpt>
      <trkpt lat="46.100285053253174" lon="9.013810157775879">
        <ele>1607.461669921875</ele>
        <time>2008-07-20T11:26:47Z</time>
      </trkpt>
      <trkpt lat="46.100349426269531" lon="9.013874530792236">
        <ele>1608.903564453125</ele>
        <time>2008-07-20T11:26:58Z</time>
      </trkpt>
      <trkpt lat="46.100349426269531" lon="9.013874530792236">
        <ele>1606.500244140625</ele>
        <time>2008-07-20T11:27:11Z</time>
      </trkpt>
      <trkpt lat="46.100327968597412" lon="9.013960361480713">
        <ele>1611.306884765625</ele>
        <time>2008-07-20T11:27:52Z</time>
      </trkpt>
      <trkpt lat="46.100285053253174" lon="9.014132022857666">
        <ele>1610.826171875</ele>
        <time>2008-07-20T11:28:07Z</time>
      </trkpt>
      <trkpt lat="46.100263595581055" lon="9.014239311218262">
        <ele>1610.345458984375</ele>
        <time>2008-07-20T11:28:19Z</time>
      </trkpt>
      <trkpt lat="46.100242137908936" lon="9.014368057250977">
        <ele>1610.345458984375</ele>
        <time>2008-07-20T11:28:29Z</time>
      </trkpt>
      <trkpt lat="46.100242137908936" lon="9.014410972595215">
        <ele>1610.826171875</ele>
        <time>2008-07-20T11:28:40Z</time>
      </trkpt>
      <trkpt lat="46.100220680236816" lon="9.014475345611572">
        <ele>1610.826171875</ele>
        <time>2008-07-20T11:28:52Z</time>
      </trkpt>
      <trkpt lat="46.100220680236816" lon="9.014496803283691">
        <ele>1610.826171875</ele>
        <time>2008-07-20T11:28:54Z</time>
      </trkpt>
      <trkpt lat="46.100220680236816" lon="9.014711380004883">
        <ele>1611.78759765625</ele>
        <time>2008-07-20T11:29:05Z</time>
      </trkpt>
      <trkpt lat="46.100220680236816" lon="9.014904499053955">
        <ele>1612.268310546875</ele>
        <time>2008-07-20T11:29:15Z</time>
      </trkpt>
      <trkpt lat="46.100220680236816" lon="9.015183448791504">
        <ele>1613.710205078125</ele>
        <time>2008-07-20T11:29:29Z</time>
      </trkpt>
      <trkpt lat="46.100285053253174" lon="9.015440940856934">
        <ele>1615.15234375</ele>
        <time>2008-07-20T11:29:41Z</time>
      </trkpt>
      <trkpt lat="46.10039234161377" lon="9.015719890594482">
        <ele>1617.074951171875</ele>
        <time>2008-07-20T11:29:54Z</time>
      </trkpt>
      <trkpt lat="46.100542545318604" lon="9.015870094299316">
        <ele>1618.99755859375</ele>
        <time>2008-07-20T11:30:06Z</time>
      </trkpt>
      <trkpt lat="46.100735664367676" lon="9.015848636627197">
        <ele>1619.958740234375</ele>
        <time>2008-07-20T11:30:17Z</time>
      </trkpt>
      <trkpt lat="46.100950241088867" lon="9.015848636627197">
        <ele>1619.958740234375</ele>
        <time>2008-07-20T11:30:29Z</time>
      </trkpt>
      <trkpt lat="46.101164817810059" lon="9.015934467315674">
        <ele>1619.958740234375</ele>
        <time>2008-07-20T11:30:40Z</time>
      </trkpt>
      <trkpt lat="46.101400852203369" lon="9.016063213348389">
        <ele>1619.478271484375</ele>
        <time>2008-07-20T11:30:50Z</time>
      </trkpt>
      <trkpt lat="46.101722717285156" lon="9.01627779006958">
        <ele>1617.555419921875</ele>
        <time>2008-07-20T11:31:00Z</time>
      </trkpt>
      <trkpt lat="46.102001667022705" lon="9.016427993774414">
        <ele>1616.59423828125</ele>
        <time>2008-07-20T11:31:07Z</time>
      </trkpt>
      <trkpt lat="46.102194786071777" lon="9.016406536102295">
        <ele>1615.633056640625</ele>
        <time>2008-07-20T11:31:11Z</time>
      </trkpt>
      <trkpt lat="46.102495193481445" lon="9.016363620758057">
        <ele>1614.19091796875</ele>
        <time>2008-07-20T11:31:17Z</time>
      </trkpt>
      <trkpt lat="46.102967262268066" lon="9.016556739807129">
        <ele>1612.268310546875</ele>
        <time>2008-07-20T11:31:26Z</time>
      </trkpt>
      <trkpt lat="46.103332042694092" lon="9.01677131652832">
        <ele>1611.78759765625</ele>
        <time>2008-07-20T11:31:33Z</time>
      </trkpt>
      <trkpt lat="46.103653907775879" lon="9.017157554626465">
        <ele>1611.306884765625</ele>
        <time>2008-07-20T11:31:40Z</time>
      </trkpt>
      <trkpt lat="46.103739738464355" lon="9.017479419708252">
        <ele>1610.826171875</ele>
        <time>2008-07-20T11:31:44Z</time>
      </trkpt>
      <trkpt lat="46.103889942169189" lon="9.017822742462158">
        <ele>1609.38427734375</ele>
        <time>2008-07-20T11:31:49Z</time>
      </trkpt>
      <trkpt lat="46.104233264923096" lon="9.01827335357666">
        <ele>1607.9423828125</ele>
        <time>2008-07-20T11:31:57Z</time>
      </trkpt>
      <trkpt lat="46.104362010955811" lon="9.018509387969971">
        <ele>1607.461669921875</ele>
        <time>2008-07-20T11:32:01Z</time>
      </trkpt>
      <trkpt lat="46.104512214660645" lon="9.019002914428711">
        <ele>1605.058349609375</ele>
        <time>2008-07-20T11:32:08Z</time>
      </trkpt>
      <trkpt lat="46.104683876037598" lon="9.019110202789307">
        <ele>1604.09716796875</ele>
        <time>2008-07-20T11:32:12Z</time>
      </trkpt>
      <trkpt lat="46.104791164398193" lon="9.019088745117188">
        <ele>1603.616455078125</ele>
        <time>2008-07-20T11:32:14Z</time>
      </trkpt>
      <trkpt lat="46.105241775512695" lon="9.01878833770752">
        <ele>1601.213134765625</ele>
        <time>2008-07-20T11:32:22Z</time>
      </trkpt>
      <trkpt lat="46.105499267578125" lon="9.018616676330566">
        <ele>1599.771240234375</ele>
        <time>2008-07-20T11:32:26Z</time>
      </trkpt>
      <trkpt lat="46.105649471282959" lon="9.018723964691162">
        <ele>1598.3291015625</ele>
        <time>2008-07-20T11:32:29Z</time>
      </trkpt>
      <trkpt lat="46.105692386627197" lon="9.018809795379639">
        <ele>1597.8486328125</ele>
        <time>2008-07-20T11:32:30Z</time>
      </trkpt>
      <trkpt lat="46.105906963348389" lon="9.019196033477783">
        <ele>1595.92578125</ele>
        <time>2008-07-20T11:32:35Z</time>
      </trkpt>
      <trkpt lat="46.106164455413818" lon="9.019410610198975">
        <ele>1594.96435546875</ele>
        <time>2008-07-20T11:32:39Z</time>
      </trkpt>
      <trkpt lat="46.106443405151367" lon="9.019474983215332">
        <ele>1593.5224609375</ele>
        <time>2008-07-20T11:32:43Z</time>
      </trkpt>
      <trkpt lat="46.106572151184082" lon="9.019560813903809">
        <ele>1593.041748046875</ele>
        <time>2008-07-20T11:32:45Z</time>
      </trkpt>
      <trkpt lat="46.107065677642822" lon="9.019989967346191">
        <ele>1589.196533203125</ele>
        <time>2008-07-20T11:32:52Z</time>
      </trkpt>
      <trkpt lat="46.107409000396729" lon="9.020075798034668">
        <ele>1587.754638671875</ele>
        <time>2008-07-20T11:32:56Z</time>
      </trkpt>
      <trkpt lat="46.107516288757324" lon="9.020075798034668">
        <ele>1587.27392578125</ele>
        <time>2008-07-20T11:32:57Z</time>
      </trkpt>
      <trkpt lat="46.107795238494873" lon="9.020118713378906">
        <ele>1585.351318359375</ele>
        <time>2008-07-20T11:33:00Z</time>
      </trkpt>
      <trkpt lat="46.108138561248779" lon="9.020097255706787">
        <ele>1583.4287109375</ele>
        <time>2008-07-20T11:33:04Z</time>
      </trkpt>
      <trkpt lat="46.108288764953613" lon="9.020311832427979">
        <ele>1581.506103515625</ele>
        <time>2008-07-20T11:33:08Z</time>
      </trkpt>
      <trkpt lat="46.108288764953613" lon="9.02052640914917">
        <ele>1580.544921875</ele>
        <time>2008-07-20T11:33:11Z</time>
      </trkpt>
      <trkpt lat="46.108245849609375" lon="9.021298885345459">
        <ele>1580.064208984375</ele>
        <time>2008-07-20T11:33:22Z</time>
      </trkpt>
      <trkpt lat="46.108267307281494" lon="9.021685123443604">
        <ele>1578.6220703125</ele>
        <time>2008-07-20T11:33:29Z</time>
      </trkpt>
      <trkpt lat="46.108438968658447" lon="9.021835327148438">
        <ele>1577.66064453125</ele>
        <time>2008-07-20T11:33:35Z</time>
      </trkpt>
      <trkpt lat="46.108460426330566" lon="9.021856784820557">
        <ele>1577.66064453125</ele>
        <time>2008-07-20T11:33:36Z</time>
      </trkpt>
      <trkpt lat="46.1086106300354" lon="9.02202844619751">
        <ele>1576.699462890625</ele>
        <time>2008-07-20T11:33:40Z</time>
      </trkpt>
      <trkpt lat="46.108889579772949" lon="9.022371768951416">
        <ele>1576.21875</ele>
        <time>2008-07-20T11:33:49Z</time>
      </trkpt>
      <trkpt lat="46.108846664428711" lon="9.022586345672607">
        <ele>1575.25732421875</ele>
        <time>2008-07-20T11:33:53Z</time>
      </trkpt>
      <trkpt lat="46.10863208770752" lon="9.02301549911499">
        <ele>1575.738037109375</ele>
        <time>2008-07-20T11:34:02Z</time>
      </trkpt>
      <trkpt lat="46.108696460723877" lon="9.023294448852539">
        <ele>1577.18017578125</ele>
        <time>2008-07-20T11:34:08Z</time>
      </trkpt>
      <trkpt lat="46.108825206756592" lon="9.023466110229492">
        <ele>1578.6220703125</ele>
        <time>2008-07-20T11:34:16Z</time>
      </trkpt>
      <trkpt lat="46.109104156494141" lon="9.023680686950684">
        <ele>1580.064208984375</ele>
        <time>2008-07-20T11:34:31Z</time>
      </trkpt>
      <trkpt lat="46.109318733215332" lon="9.023745059967041">
        <ele>1581.025634765625</ele>
        <time>2008-07-20T11:34:42Z</time>
      </trkpt>
      <trkpt lat="46.109426021575928" lon="9.023938179016113">
        <ele>1582.947998046875</ele>
        <time>2008-07-20T11:34:52Z</time>
      </trkpt>
      <trkpt lat="46.109554767608643" lon="9.024131298065186">
        <ele>1586.793212890625</ele>
        <time>2008-07-20T11:35:03Z</time>
      </trkpt>
      <trkpt lat="46.109683513641357" lon="9.024345874786377">
        <ele>1588.716064453125</ele>
        <time>2008-07-20T11:35:15Z</time>
      </trkpt>
      <trkpt lat="46.109812259674072" lon="9.024646282196045">
        <ele>1591.599853515625</ele>
        <time>2008-07-20T11:35:29Z</time>
      </trkpt>
      <trkpt lat="46.109898090362549" lon="9.024839401245117">
        <ele>1593.041748046875</ele>
        <time>2008-07-20T11:35:39Z</time>
      </trkpt>
      <trkpt lat="46.109962463378906" lon="9.024925231933594">
        <ele>1594.003173828125</ele>
        <time>2008-07-20T11:35:47Z</time>
      </trkpt>
      <trkpt lat="46.110005378723145" lon="9.024989604949951">
        <ele>1595.445068359375</ele>
        <time>2008-07-20T11:35:58Z</time>
      </trkpt>
      <trkpt lat="46.11011266708374" lon="9.025204181671143">
        <ele>1597.8486328125</ele>
        <time>2008-07-20T11:36:10Z</time>
      </trkpt>
      <trkpt lat="46.110219955444336" lon="9.025440216064453">
        <ele>1598.3291015625</ele>
        <time>2008-07-20T11:36:23Z</time>
      </trkpt>
      <trkpt lat="46.110284328460693" lon="9.025611877441406">
        <ele>1599.771240234375</ele>
        <time>2008-07-20T11:36:31Z</time>
      </trkpt>
      <trkpt lat="46.11037015914917" lon="9.025869369506836">
        <ele>1601.213134765625</ele>
        <time>2008-07-20T11:36:43Z</time>
      </trkpt>
      <trkpt lat="46.110434532165527" lon="9.026041030883789">
        <ele>1602.655029296875</ele>
        <time>2008-07-20T11:36:53Z</time>
      </trkpt>
      <trkpt lat="46.110455989837646" lon="9.026083946228027">
        <ele>1603.616455078125</ele>
        <time>2008-07-20T11:37:02Z</time>
      </trkpt>
      <trkpt lat="46.110455989837646" lon="9.026083946228027">
        <ele>1604.57763671875</ele>
        <time>2008-07-20T11:37:21Z</time>
      </trkpt>
      <trkpt lat="46.110455989837646" lon="9.026083946228027">
        <ele>1606.500244140625</ele>
        <time>2008-07-20T11:38:00Z</time>
      </trkpt>
      <trkpt lat="46.110498905181885" lon="9.026062488555908">
        <ele>1599.29052734375</ele>
        <time>2008-07-20T11:41:00Z</time>
      </trkpt>
      <trkpt lat="46.110477447509766" lon="9.026105403900147">
        <ele>1603.1357421875</ele>
        <time>2008-07-20T11:46:29Z</time>
      </trkpt>
      <trkpt lat="46.110477447509766" lon="9.026105403900147">
        <ele>1603.1357421875</ele>
        <time>2008-07-20T11:46:30Z</time>
      </trkpt>
      <trkpt lat="46.110477447509766" lon="9.026212692260742">
        <ele>1603.1357421875</ele>
        <time>2008-07-20T11:46:34Z</time>
      </trkpt>
      <trkpt lat="46.110541820526123" lon="9.026427268981934">
        <ele>1603.616455078125</ele>
        <time>2008-07-20T11:46:43Z</time>
      </trkpt>
      <trkpt lat="46.110584735870361" lon="9.026706218719482">
        <ele>1605.058349609375</ele>
        <time>2008-07-20T11:46:53Z</time>
      </trkpt>
      <trkpt lat="46.11060619354248" lon="9.027049541473389">
        <ele>1606.01953125</ele>
        <time>2008-07-20T11:47:05Z</time>
      </trkpt>
      <trkpt lat="46.110584735870361" lon="9.02752161026001">
        <ele>1606.98095703125</ele>
        <time>2008-07-20T11:47:18Z</time>
      </trkpt>
      <trkpt lat="46.110520362854004" lon="9.028036594390869">
        <ele>1607.9423828125</ele>
        <time>2008-07-20T11:47:31Z</time>
      </trkpt>
      <trkpt lat="46.110498905181885" lon="9.028294086456299">
        <ele>1608.903564453125</ele>
        <time>2008-07-20T11:47:38Z</time>
      </trkpt>
      <trkpt lat="46.110413074493408" lon="9.028573036193848">
        <ele>1608.903564453125</ele>
        <time>2008-07-20T11:47:45Z</time>
      </trkpt>
      <trkpt lat="46.110327243804932" lon="9.028787612915039">
        <ele>1608.4228515625</ele>
        <time>2008-07-20T11:47:50Z</time>
      </trkpt>
      <trkpt lat="46.110305786132812" lon="9.029045104980469">
        <ele>1608.4228515625</ele>
        <time>2008-07-20T11:47:56Z</time>
      </trkpt>
      <trkpt lat="46.110284328460693" lon="9.029388427734375">
        <ele>1607.9423828125</ele>
        <time>2008-07-20T11:48:03Z</time>
      </trkpt>
      <trkpt lat="46.110241413116455" lon="9.0297532081604">
        <ele>1607.9423828125</ele>
        <time>2008-07-20T11:48:11Z</time>
      </trkpt>
      <trkpt lat="46.110219955444336" lon="9.030075073242188">
        <ele>1606.98095703125</ele>
        <time>2008-07-20T11:48:17Z</time>
      </trkpt>
      <trkpt lat="46.110198497772217" lon="9.030139446258545">
        <ele>1606.500244140625</ele>
        <time>2008-07-20T11:48:18Z</time>
      </trkpt>
      <trkpt lat="46.110198497772217" lon="9.03050422668457">
        <ele>1606.01953125</ele>
        <time>2008-07-20T11:48:25Z</time>
      </trkpt>
      <trkpt lat="46.110219955444336" lon="9.031040668487549">
        <ele>1605.5390625</ele>
        <time>2008-07-20T11:48:34Z</time>
      </trkpt>
      <trkpt lat="46.110219955444336" lon="9.031105041503906">
        <ele>1605.058349609375</ele>
        <time>2008-07-20T11:48:35Z</time>
      </trkpt>
      <trkpt lat="46.110177040100098" lon="9.031276702880859">
        <ele>1605.058349609375</ele>
        <time>2008-07-20T11:48:38Z</time>
      </trkpt>
      <trkpt lat="46.110069751739502" lon="9.031491279602051">
        <ele>1604.09716796875</ele>
        <time>2008-07-20T11:48:42Z</time>
      </trkpt>
      <trkpt lat="46.109983921051025" lon="9.031856060028076">
        <ele>1603.616455078125</ele>
        <time>2008-07-20T11:48:48Z</time>
      </trkpt>
      <trkpt lat="46.110005378723145" lon="9.032135009765625">
        <ele>1603.616455078125</ele>
        <time>2008-07-20T11:48:52Z</time>
      </trkpt>
      <trkpt lat="46.110048294067383" lon="9.032413959503174">
        <ele>1603.1357421875</ele>
        <time>2008-07-20T11:48:56Z</time>
      </trkpt>
      <trkpt lat="46.110048294067383" lon="9.032542705535889">
        <ele>1603.616455078125</ele>
        <time>2008-07-20T11:48:58Z</time>
      </trkpt>
      <trkpt lat="46.110048294067383" lon="9.032800197601318">
        <ele>1603.1357421875</ele>
        <time>2008-07-20T11:49:02Z</time>
      </trkpt>
      <trkpt lat="46.110069751739502" lon="9.032971858978272">
        <ele>1603.1357421875</ele>
        <time>2008-07-20T11:49:05Z</time>
      </trkpt>
      <trkpt lat="46.109919548034668" lon="9.033186435699463">
        <ele>1603.1357421875</ele>
        <time>2008-07-20T11:49:13Z</time>
      </trkpt>
      <trkpt lat="46.109833717346191" lon="9.03325080871582">
        <ele>1603.1357421875</ele>
        <time>2008-07-20T11:49:16Z</time>
      </trkpt>
      <trkpt lat="46.109619140625" lon="9.033422470092773">
        <ele>1601.213134765625</ele>
        <time>2008-07-20T11:49:23Z</time>
      </trkpt>
      <trkpt lat="46.109340190887451" lon="9.033572673797607">
        <ele>1604.09716796875</ele>
        <time>2008-07-20T11:49:32Z</time>
      </trkpt>
      <trkpt lat="46.109061241149902" lon="9.033679962158203">
        <ele>1605.058349609375</ele>
        <time>2008-07-20T11:49:40Z</time>
      </trkpt>
      <trkpt lat="46.10886812210083" lon="9.033744335174561">
        <ele>1605.5390625</ele>
        <time>2008-07-20T11:49:47Z</time>
      </trkpt>
      <trkpt lat="46.108825206756592" lon="9.033808708190918">
        <ele>1605.058349609375</ele>
        <time>2008-07-20T11:49:52Z</time>
      </trkpt>
      <trkpt lat="46.108825206756592" lon="9.033808708190918">
        <ele>1600.732421875</ele>
        <time>2008-07-20T11:50:31Z</time>
      </trkpt>
      <trkpt lat="46.108739376068115" lon="9.034023284912109">
        <ele>1601.213134765625</ele>
        <time>2008-07-20T11:50:38Z</time>
      </trkpt>
      <trkpt lat="46.108524799346924" lon="9.034345149993897">
        <ele>1601.69384765625</ele>
        <time>2008-07-20T11:50:48Z</time>
      </trkpt>
      <trkpt lat="46.108224391937256" lon="9.034388065338135">
        <ele>1603.1357421875</ele>
        <time>2008-07-20T11:50:57Z</time>
      </trkpt>
      <trkpt lat="46.108052730560303" lon="9.034559726715088">
        <ele>1602.655029296875</ele>
        <time>2008-07-20T11:51:03Z</time>
      </trkpt>
      <trkpt lat="46.107923984527588" lon="9.034860134124756">
        <ele>1602.655029296875</ele>
        <time>2008-07-20T11:51:10Z</time>
      </trkpt>
      <trkpt lat="46.107838153839111" lon="9.035117626190186">
        <ele>1602.17431640625</ele>
        <time>2008-07-20T11:51:15Z</time>
      </trkpt>
      <trkpt lat="46.107816696166992" lon="9.035289287567139">
        <ele>1602.655029296875</ele>
        <time>2008-07-20T11:51:18Z</time>
      </trkpt>
      <trkpt lat="46.107645034790039" lon="9.035418033599854">
        <ele>1602.655029296875</ele>
        <time>2008-07-20T11:51:24Z</time>
      </trkpt>
      <trkpt lat="46.107559204101563" lon="9.035460948944092">
        <ele>1603.1357421875</ele>
        <time>2008-07-20T11:51:26Z</time>
      </trkpt>
      <trkpt lat="46.107387542724609" lon="9.035525321960449">
        <ele>1603.616455078125</ele>
        <time>2008-07-20T11:51:32Z</time>
      </trkpt>
      <trkpt lat="46.107258796691895" lon="9.035696983337402">
        <ele>1603.1357421875</ele>
        <time>2008-07-20T11:51:37Z</time>
      </trkpt>
      <trkpt lat="46.107344627380371" lon="9.035954475402832">
        <ele>1602.655029296875</ele>
        <time>2008-07-20T11:51:44Z</time>
      </trkpt>
      <trkpt lat="46.107473373413086" lon="9.036233425140381">
        <ele>1602.17431640625</ele>
        <time>2008-07-20T11:51:51Z</time>
      </trkpt>
      <trkpt lat="46.107602119445801" lon="9.036533832550049">
        <ele>1602.655029296875</ele>
        <time>2008-07-20T11:51:58Z</time>
      </trkpt>
      <trkpt lat="46.107795238494873" lon="9.036941528320313">
        <ele>1602.17431640625</ele>
        <time>2008-07-20T11:52:07Z</time>
      </trkpt>
      <trkpt lat="46.108031272888184" lon="9.037199020385742">
        <ele>1603.1357421875</ele>
        <time>2008-07-20T11:52:15Z</time>
      </trkpt>
      <trkpt lat="46.108288764953613" lon="9.037542343139648">
        <ele>1604.57763671875</ele>
        <time>2008-07-20T11:52:25Z</time>
      </trkpt>
      <trkpt lat="46.108481884002686" lon="9.037714004516602">
        <ele>1606.01953125</ele>
        <time>2008-07-20T11:52:31Z</time>
      </trkpt>
      <trkpt lat="46.108653545379639" lon="9.037907123565674">
        <ele>1607.461669921875</ele>
        <time>2008-07-20T11:52:37Z</time>
      </trkpt>
      <trkpt lat="46.108975410461426" lon="9.038121700286865">
        <ele>1606.500244140625</ele>
        <time>2008-07-20T11:52:46Z</time>
      </trkpt>
      <trkpt lat="46.109211444854736" lon="9.038207530975342">
        <ele>1606.01953125</ele>
        <time>2008-07-20T11:52:52Z</time>
      </trkpt>
      <trkpt lat="46.109468936920166" lon="9.038121700286865">
        <ele>1606.01953125</ele>
        <time>2008-07-20T11:52:59Z</time>
      </trkpt>
      <trkpt lat="46.109726428985596" lon="9.037971496582031">
        <ele>1606.500244140625</ele>
        <time>2008-07-20T11:53:07Z</time>
      </trkpt>
      <trkpt lat="46.109790802001953" lon="9.037950038909912">
        <ele>1606.01953125</ele>
        <time>2008-07-20T11:53:09Z</time>
      </trkpt>
      <trkpt lat="46.109919548034668" lon="9.03799295425415">
        <ele>1604.09716796875</ele>
        <time>2008-07-20T11:53:15Z</time>
      </trkpt>
      <trkpt lat="46.110091209411621" lon="9.038057327270508">
        <ele>1603.616455078125</ele>
        <time>2008-07-20T11:53:22Z</time>
      </trkpt>
      <trkpt lat="46.110262870788574" lon="9.038228988647461">
        <ele>1603.1357421875</ele>
        <time>2008-07-20T11:53:30Z</time>
      </trkpt>
      <trkpt lat="46.110391616821289" lon="9.038443565368652">
        <ele>1603.1357421875</ele>
        <time>2008-07-20T11:53:37Z</time>
      </trkpt>
      <trkpt lat="46.110498905181885" lon="9.038615226745606">
        <ele>1603.1357421875</ele>
        <time>2008-07-20T11:53:43Z</time>
      </trkpt>
      <trkpt lat="46.110541820526123" lon="9.03876543045044">
        <ele>1604.09716796875</ele>
        <time>2008-07-20T11:53:48Z</time>
      </trkpt>
      <trkpt lat="46.110563278198242" lon="9.038958549499512">
        <ele>1604.09716796875</ele>
        <time>2008-07-20T11:53:54Z</time>
      </trkpt>
      <trkpt lat="46.110649108886719" lon="9.039194583892822">
        <ele>1605.058349609375</ele>
        <time>2008-07-20T11:54:03Z</time>
      </trkpt>
      <trkpt lat="46.110734939575195" lon="9.039430618286133">
        <ele>1605.058349609375</ele>
        <time>2008-07-20T11:54:10Z</time>
      </trkpt>
      <trkpt lat="46.110842227935791" lon="9.039731025695801">
        <ele>1604.09716796875</ele>
        <time>2008-07-20T11:54:19Z</time>
      </trkpt>
      <trkpt lat="46.110992431640625" lon="9.039881229400635">
        <ele>1604.09716796875</ele>
        <time>2008-07-20T11:54:26Z</time>
      </trkpt>
      <trkpt lat="46.111207008361816" lon="9.040160179138184">
        <ele>1602.655029296875</ele>
        <time>2008-07-20T11:54:33Z</time>
      </trkpt>
      <trkpt lat="46.111485958099365" lon="9.040567874908447">
        <ele>1600.251953125</ele>
        <time>2008-07-20T11:54:41Z</time>
      </trkpt>
      <trkpt lat="46.111528873443604" lon="9.040632247924805">
        <ele>1600.251953125</ele>
        <time>2008-07-20T11:54:42Z</time>
      </trkpt>
      <trkpt lat="46.111700534820557" lon="9.041082859039307">
        <ele>1597.367919921875</ele>
        <time>2008-07-20T11:54:49Z</time>
      </trkpt>
      <trkpt lat="46.111829280853271" lon="9.04125452041626">
        <ele>1594.96435546875</ele>
        <time>2008-07-20T11:54:52Z</time>
      </trkpt>
      <trkpt lat="46.11187219619751" lon="9.041640758514404">
        <ele>1593.5224609375</ele>
        <time>2008-07-20T11:54:57Z</time>
      </trkpt>
      <trkpt lat="46.111893653869629" lon="9.041790962219238">
        <ele>1593.041748046875</ele>
        <time>2008-07-20T11:54:59Z</time>
      </trkpt>
      <trkpt lat="46.111807823181152" lon="9.042477607727051">
        <ele>1589.67724609375</ele>
        <time>2008-07-20T11:55:08Z</time>
      </trkpt>
      <trkpt lat="46.111807823181152" lon="9.042885303497315">
        <ele>1587.754638671875</ele>
        <time>2008-07-20T11:55:13Z</time>
      </trkpt>
      <trkpt lat="46.111721992492676" lon="9.043357372283936">
        <ele>1585.83203125</ele>
        <time>2008-07-20T11:55:19Z</time>
      </trkpt>
      <trkpt lat="46.111743450164795" lon="9.043765068054199">
        <ele>1584.39013671875</ele>
        <time>2008-07-20T11:55:24Z</time>
      </trkpt>
      <trkpt lat="46.111807823181152" lon="9.044065475463867">
        <ele>1582.947998046875</ele>
        <time>2008-07-20T11:55:28Z</time>
      </trkpt>
      <trkpt lat="46.111850738525391" lon="9.044215679168701">
        <ele>1581.506103515625</ele>
        <time>2008-07-20T11:55:30Z</time>
      </trkpt>
      <trkpt lat="46.111829280853271" lon="9.044601917266846">
        <ele>1579.583251953125</ele>
        <time>2008-07-20T11:55:35Z</time>
      </trkpt>
      <trkpt lat="46.111786365509033" lon="9.04475212097168">
        <ele>1578.6220703125</ele>
        <time>2008-07-20T11:55:37Z</time>
      </trkpt>
      <trkpt lat="46.111743450164795" lon="9.045159816741943">
        <ele>1576.21875</ele>
        <time>2008-07-20T11:55:42Z</time>
      </trkpt>
      <trkpt lat="46.111721992492676" lon="9.045331478118897">
        <ele>1575.25732421875</ele>
        <time>2008-07-20T11:55:44Z</time>
      </trkpt>
      <trkpt lat="46.111721992492676" lon="9.04550313949585">
        <ele>1574.77685546875</ele>
        <time>2008-07-20T11:55:46Z</time>
      </trkpt>
      <trkpt lat="46.111829280853271" lon="9.045846462249756">
        <ele>1573.3349609375</ele>
        <time>2008-07-20T11:55:51Z</time>
      </trkpt>
      <trkpt lat="46.111915111541748" lon="9.04599666595459">
        <ele>1572.854248046875</ele>
        <time>2008-07-20T11:55:54Z</time>
      </trkpt>
      <trkpt lat="46.112000942230225" lon="9.046189785003662">
        <ele>1571.892822265625</ele>
        <time>2008-07-20T11:55:57Z</time>
      </trkpt>
      <trkpt lat="46.112022399902344" lon="9.046339988708496">
        <ele>1570.931640625</ele>
        <time>2008-07-20T11:56:02Z</time>
      </trkpt>
      <trkpt lat="46.112000942230225" lon="9.046382904052734">
        <ele>1569.97021484375</ele>
        <time>2008-07-20T11:56:10Z</time>
      </trkpt>
      <trkpt lat="46.112043857574463" lon="9.046576023101807">
        <ele>1568.5283203125</ele>
        <time>2008-07-20T11:56:17Z</time>
      </trkpt>
      <trkpt lat="46.112086772918701" lon="9.046812057495117">
        <ele>1566.125</ele>
        <time>2008-07-20T11:56:22Z</time>
      </trkpt>
      <trkpt lat="46.112086772918701" lon="9.047155380249023">
        <ele>1564.68310546875</ele>
        <time>2008-07-20T11:56:29Z</time>
      </trkpt>
      <trkpt lat="46.11210823059082" lon="9.047198295593262">
        <ele>1564.68310546875</ele>
        <time>2008-07-20T11:56:30Z</time>
      </trkpt>
      <trkpt lat="46.112065315246582" lon="9.047756195068359">
        <ele>1562.279541015625</ele>
        <time>2008-07-20T11:56:38Z</time>
      </trkpt>
      <trkpt lat="46.112065315246582" lon="9.048142433166504">
        <ele>1561.318359375</ele>
        <time>2008-07-20T11:56:43Z</time>
      </trkpt>
      <trkpt lat="46.111979484558105" lon="9.048593044281006">
        <ele>1559.876220703125</ele>
        <time>2008-07-20T11:56:49Z</time>
      </trkpt>
      <trkpt lat="46.111915111541748" lon="9.048700332641602">
        <ele>1559.876220703125</ele>
        <time>2008-07-20T11:56:51Z</time>
      </trkpt>
      <trkpt lat="46.111850738525391" lon="9.048957824707031">
        <ele>1558.434326171875</ele>
        <time>2008-07-20T11:56:55Z</time>
      </trkpt>
      <trkpt lat="46.111807823181152" lon="9.049172401428223">
        <ele>1557.47314453125</ele>
        <time>2008-07-20T11:56:58Z</time>
      </trkpt>
      <trkpt lat="46.111764907836914" lon="9.049558639526367">
        <ele>1556.031005859375</ele>
        <time>2008-07-20T11:57:04Z</time>
      </trkpt>
      <trkpt lat="46.111636161804199" lon="9.049708843231201">
        <ele>1554.589111328125</ele>
        <time>2008-07-20T11:57:09Z</time>
      </trkpt>
      <trkpt lat="46.111593246459961" lon="9.050137996673584">
        <ele>1552.185791015625</ele>
        <time>2008-07-20T11:57:17Z</time>
      </trkpt>
      <trkpt lat="46.111485958099365" lon="9.050331115722656">
        <ele>1551.224609375</ele>
        <time>2008-07-20T11:57:21Z</time>
      </trkpt>
      <trkpt lat="46.111314296722412" lon="9.050459861755371">
        <ele>1551.224609375</ele>
        <time>2008-07-20T11:57:28Z</time>
      </trkpt>
      <trkpt lat="46.111271381378174" lon="9.050567150115967">
        <ele>1552.185791015625</ele>
        <time>2008-07-20T11:57:33Z</time>
      </trkpt>
      <trkpt lat="46.111249923706055" lon="9.050588607788086">
        <ele>1550.263427734375</ele>
        <time>2008-07-20T11:57:44Z</time>
      </trkpt>
      <trkpt lat="46.111207008361816" lon="9.050717353820801">
        <ele>1550.263427734375</ele>
        <time>2008-07-20T11:57:55Z</time>
      </trkpt>
      <trkpt lat="46.111185550689697" lon="9.050824642181397">
        <ele>1550.743896484375</ele>
        <time>2008-07-20T11:58:04Z</time>
      </trkpt>
      <trkpt lat="46.111164093017578" lon="9.050846099853516">
        <ele>1551.224609375</ele>
        <time>2008-07-20T11:58:12Z</time>
      </trkpt>
      <trkpt lat="46.11112117767334" lon="9.050867557525635">
        <ele>1551.705322265625</ele>
        <time>2008-07-20T11:58:29Z</time>
      </trkpt>
      <trkpt lat="46.111099720001221" lon="9.050867557525635">
        <ele>1552.185791015625</ele>
        <time>2008-07-20T11:58:38Z</time>
      </trkpt>
      <trkpt lat="46.111056804656982" lon="9.050931930541992">
        <ele>1551.224609375</ele>
        <time>2008-07-20T11:58:55Z</time>
      </trkpt>
      <trkpt lat="46.110992431640625" lon="9.051060676574707">
        <ele>1552.185791015625</ele>
        <time>2008-07-20T11:59:04Z</time>
      </trkpt>
      <trkpt lat="46.110970973968506" lon="9.051082134246826">
        <ele>1552.185791015625</ele>
        <time>2008-07-20T11:59:09Z</time>
      </trkpt>
      <trkpt lat="46.110820770263672" lon="9.05123233795166">
        <ele>1550.743896484375</ele>
        <time>2008-07-20T11:59:17Z</time>
      </trkpt>
      <trkpt lat="46.110670566558838" lon="9.051339626312256">
        <ele>1551.705322265625</ele>
        <time>2008-07-20T11:59:23Z</time>
      </trkpt>
      <trkpt lat="46.110563278198242" lon="9.051575660705566">
        <ele>1549.78271484375</ele>
        <time>2008-07-20T11:59:29Z</time>
      </trkpt>
      <trkpt lat="46.110477447509766" lon="9.051790237426758">
        <ele>1548.8212890625</ele>
        <time>2008-07-20T11:59:33Z</time>
      </trkpt>
      <trkpt lat="46.110455989837646" lon="9.052026271820068">
        <ele>1547.379150390625</ele>
        <time>2008-07-20T11:59:37Z</time>
      </trkpt>
      <trkpt lat="46.110305786132812" lon="9.052176475524902">
        <ele>1547.85986328125</ele>
        <time>2008-07-20T11:59:43Z</time>
      </trkpt>
      <trkpt lat="46.11011266708374" lon="9.052433967590332">
        <ele>1547.85986328125</ele>
        <time>2008-07-20T11:59:50Z</time>
      </trkpt>
      <trkpt lat="46.10987663269043" lon="9.052691459655762">
        <ele>1546.8984375</ele>
        <time>2008-07-20T11:59:58Z</time>
      </trkpt>
      <trkpt lat="46.109683513641357" lon="9.052906036376953">
        <ele>1546.8984375</ele>
        <time>2008-07-20T12:00:04Z</time>
      </trkpt>
      <trkpt lat="46.109511852264404" lon="9.053163528442383">
        <ele>1546.41796875</ele>
        <time>2008-07-20T12:00:11Z</time>
      </trkpt>
      <trkpt lat="46.10936164855957" lon="9.053549766540527">
        <ele>1544.975830078125</ele>
        <time>2008-07-20T12:00:19Z</time>
      </trkpt>
      <trkpt lat="46.109275817871094" lon="9.053699970245361">
        <ele>1544.975830078125</ele>
        <time>2008-07-20T12:00:24Z</time>
      </trkpt>
      <trkpt lat="46.109189987182617" lon="9.053850173950195">
        <ele>1545.937255859375</ele>
        <time>2008-07-20T12:00:31Z</time>
      </trkpt>
      <trkpt lat="46.109061241149902" lon="9.053893089294434">
        <ele>1545.937255859375</ele>
        <time>2008-07-20T12:00:37Z</time>
      </trkpt>
      <trkpt lat="46.108846664428711" lon="9.053850173950195">
        <ele>1545.937255859375</ele>
        <time>2008-07-20T12:00:45Z</time>
      </trkpt>
      <trkpt lat="46.108717918395996" lon="9.053936004638672">
        <ele>1546.41796875</ele>
        <time>2008-07-20T12:00:50Z</time>
      </trkpt>
      <trkpt lat="46.108589172363281" lon="9.054129123687744">
        <ele>1546.8984375</ele>
        <time>2008-07-20T12:00:56Z</time>
      </trkpt>
      <trkpt lat="46.108589172363281" lon="9.054386615753174">
        <ele>1544.975830078125</ele>
        <time>2008-07-20T12:01:02Z</time>
      </trkpt>
      <trkpt lat="46.108589172363281" lon="9.054450988769531">
        <ele>1544.4951171875</ele>
        <time>2008-07-20T12:01:03Z</time>
      </trkpt>
      <trkpt lat="46.108782291412354" lon="9.054901599884033">
        <ele>1540.64990234375</ele>
        <time>2008-07-20T12:01:10Z</time>
      </trkpt>
      <trkpt lat="46.109061241149902" lon="9.055545330047607">
        <ele>1536.32421875</ele>
        <time>2008-07-20T12:01:18Z</time>
      </trkpt>
      <trkpt lat="46.109232902526855" lon="9.056017398834229">
        <ele>1532.95947265625</ele>
        <time>2008-07-20T12:01:25Z</time>
      </trkpt>
      <trkpt lat="46.10936164855957" lon="9.056360721588135">
        <ele>1531.517333984375</ele>
        <time>2008-07-20T12:01:31Z</time>
      </trkpt>
      <trkpt lat="46.109447479248047" lon="9.056682586669922">
        <ele>1528.633544921875</ele>
        <time>2008-07-20T12:01:38Z</time>
      </trkpt>
      <trkpt lat="46.109447479248047" lon="9.056811332702637">
        <ele>1527.191650390625</ele>
        <time>2008-07-20T12:01:40Z</time>
      </trkpt>
      <trkpt lat="46.109511852264404" lon="9.057047367095947">
        <ele>1524.788330078125</ele>
        <time>2008-07-20T12:01:44Z</time>
      </trkpt>
      <trkpt lat="46.109597682952881" lon="9.057347774505615">
        <ele>1521.904296875</ele>
        <time>2008-07-20T12:01:50Z</time>
      </trkpt>
      <trkpt lat="46.109662055969238" lon="9.057540893554688">
        <ele>1520.46240234375</ele>
        <time>2008-07-20T12:01:55Z</time>
      </trkpt>
      <trkpt lat="46.109726428985596" lon="9.057862758636475">
        <ele>1518.05908203125</ele>
        <time>2008-07-20T12:02:00Z</time>
      </trkpt>
      <trkpt lat="46.109833717346191" lon="9.058463573455811">
        <ele>1515.65576171875</ele>
        <time>2008-07-20T12:02:09Z</time>
      </trkpt>
      <trkpt lat="46.109790802001953" lon="9.058806896209717">
        <ele>1515.175048828125</ele>
        <time>2008-07-20T12:02:16Z</time>
      </trkpt>
      <trkpt lat="46.109704971313477" lon="9.059171676635742">
        <ele>1514.213623046875</ele>
        <time>2008-07-20T12:02:24Z</time>
      </trkpt>
      <trkpt lat="46.109704971313477" lon="9.059257507324219">
        <ele>1512.771728515625</ele>
        <time>2008-07-20T12:02:30Z</time>
      </trkpt>
      <trkpt lat="46.109747886657715" lon="9.059407711029053">
        <ele>1511.329833984375</ele>
        <time>2008-07-20T12:02:35Z</time>
      </trkpt>
      <trkpt lat="46.10987663269043" lon="9.059600830078125">
        <ele>1509.8876953125</ele>
        <time>2008-07-20T12:02:41Z</time>
      </trkpt>
      <trkpt lat="46.110048294067383" lon="9.059793949127197">
        <ele>1508.44580078125</ele>
        <time>2008-07-20T12:02:47Z</time>
      </trkpt>
      <trkpt lat="46.11011266708374" lon="9.059922695159912">
        <ele>1507.96533203125</ele>
        <time>2008-07-20T12:02:50Z</time>
      </trkpt>
      <trkpt lat="46.110284328460693" lon="9.060029983520508">
        <ele>1507.96533203125</ele>
        <time>2008-07-20T12:02:55Z</time>
      </trkpt>
      <trkpt lat="46.11037015914917" lon="9.060072898864746">
        <ele>1508.44580078125</ele>
        <time>2008-07-20T12:02:59Z</time>
      </trkpt>
      <trkpt lat="46.110391616821289" lon="9.060158729553223">
        <ele>1507.484619140625</ele>
        <time>2008-07-20T12:03:04Z</time>
      </trkpt>
      <trkpt lat="46.11037015914917" lon="9.060180187225342">
        <ele>1506.04248046875</ele>
        <time>2008-07-20T12:03:11Z</time>
      </trkpt>
      <trkpt lat="46.110348701477051" lon="9.060180187225342">
        <ele>1501.716796875</ele>
        <time>2008-07-20T12:03:59Z</time>
      </trkpt>
      <trkpt lat="46.110284328460693" lon="9.060266017913818">
        <ele>1500.75537109375</ele>
        <time>2008-07-20T12:04:03Z</time>
      </trkpt>
      <trkpt lat="46.110219955444336" lon="9.060394763946533">
        <ele>1499.7939453125</ele>
        <time>2008-07-20T12:04:06Z</time>
      </trkpt>
      <trkpt lat="46.110241413116455" lon="9.060630798339844">
        <ele>1498.351806640625</ele>
        <time>2008-07-20T12:04:10Z</time>
      </trkpt>
      <trkpt lat="46.110327243804932" lon="9.060909748077393">
        <ele>1498.83251953125</ele>
        <time>2008-07-20T12:04:16Z</time>
      </trkpt>
      <trkpt lat="46.110455989837646" lon="9.061059951782227">
        <ele>1499.7939453125</ele>
        <time>2008-07-20T12:04:22Z</time>
      </trkpt>
      <trkpt lat="46.110455989837646" lon="9.061274528503418">
        <ele>1500.75537109375</ele>
        <time>2008-07-20T12:04:27Z</time>
      </trkpt>
      <trkpt lat="46.110477447509766" lon="9.061317443847656">
        <ele>1502.197265625</ele>
        <time>2008-07-20T12:04:33Z</time>
      </trkpt>
      <trkpt lat="46.110520362854004" lon="9.06146764755249">
        <ele>1504.6005859375</ele>
        <time>2008-07-20T12:04:44Z</time>
      </trkpt>
      <trkpt lat="46.110520362854004" lon="9.06146764755249">
        <ele>1504.6005859375</ele>
        <time>2008-07-20T12:04:45Z</time>
      </trkpt>
      <trkpt lat="46.110498905181885" lon="9.061596393585205">
        <ele>1504.1201171875</ele>
        <time>2008-07-20T12:04:53Z</time>
      </trkpt>
      <trkpt lat="46.110477447509766" lon="9.061660766601563">
        <ele>1504.1201171875</ele>
        <time>2008-07-20T12:04:56Z</time>
      </trkpt>
      <trkpt lat="46.110498905181885" lon="9.061853885650635">
        <ele>1503.15869140625</ele>
        <time>2008-07-20T12:05:02Z</time>
      </trkpt>
      <trkpt lat="46.110541820526123" lon="9.062089920043945">
        <ele>1502.677978515625</ele>
        <time>2008-07-20T12:05:08Z</time>
      </trkpt>
      <trkpt lat="46.1106276512146" lon="9.062261581420898">
        <ele>1502.677978515625</ele>
        <time>2008-07-20T12:05:13Z</time>
      </trkpt>
      <trkpt lat="46.110670566558838" lon="9.062411785125732">
        <ele>1502.677978515625</ele>
        <time>2008-07-20T12:05:19Z</time>
      </trkpt>
      <trkpt lat="46.110649108886719" lon="9.062433242797852">
        <ele>1500.27490234375</ele>
        <time>2008-07-20T12:05:26Z</time>
      </trkpt>
      <trkpt lat="46.11060619354248" lon="9.062433242797852">
        <ele>1499.313232421875</ele>
        <time>2008-07-20T12:05:32Z</time>
      </trkpt>
      <trkpt lat="46.110455989837646" lon="9.062368869781494">
        <ele>1495.468017578125</ele>
        <time>2008-07-20T12:05:45Z</time>
      </trkpt>
      <trkpt lat="46.11037015914917" lon="9.062347412109375">
        <ele>1496.909912109375</ele>
        <time>2008-07-20T12:05:54Z</time>
      </trkpt>
      <trkpt lat="46.11037015914917" lon="9.062347412109375">
        <ele>1497.390625</ele>
        <time>2008-07-20T12:05:55Z</time>
      </trkpt>
      <trkpt lat="46.110284328460693" lon="9.062283039093018">
        <ele>1499.313232421875</ele>
        <time>2008-07-20T12:06:05Z</time>
      </trkpt>
      <trkpt lat="46.110177040100098" lon="9.06221866607666">
        <ele>1501.236083984375</ele>
        <time>2008-07-20T12:06:17Z</time>
      </trkpt>
      <trkpt lat="46.110048294067383" lon="9.062154293060303">
        <ele>1502.197265625</ele>
        <time>2008-07-20T12:06:29Z</time>
      </trkpt>
      <trkpt lat="46.109919548034668" lon="9.062154293060303">
        <ele>1503.15869140625</ele>
        <time>2008-07-20T12:06:41Z</time>
      </trkpt>
      <trkpt lat="46.109833717346191" lon="9.062197208404541">
        <ele>1504.6005859375</ele>
        <time>2008-07-20T12:06:52Z</time>
      </trkpt>
      <trkpt lat="46.109747886657715" lon="9.062240123748779">
        <ele>1507.00390625</ele>
        <time>2008-07-20T12:07:04Z</time>
      </trkpt>
      <trkpt lat="46.109704971313477" lon="9.062283039093018">
        <ele>1508.926513671875</ele>
        <time>2008-07-20T12:07:13Z</time>
      </trkpt>
      <trkpt lat="46.109597682952881" lon="9.062347412109375">
        <ele>1510.368408203125</ele>
        <time>2008-07-20T12:07:26Z</time>
      </trkpt>
      <trkpt lat="46.109576225280762" lon="9.062390327453613">
        <ele>1510.84912109375</ele>
        <time>2008-07-20T12:07:29Z</time>
      </trkpt>
      <trkpt lat="46.109490394592285" lon="9.06247615814209">
        <ele>1510.84912109375</ele>
        <time>2008-07-20T12:07:39Z</time>
      </trkpt>
      <trkpt lat="46.109404563903809" lon="9.062604904174805">
        <ele>1510.84912109375</ele>
        <time>2008-07-20T12:07:51Z</time>
      </trkpt>
      <trkpt lat="46.109318733215332" lon="9.0627121925354">
        <ele>1510.368408203125</ele>
        <time>2008-07-20T12:07:57Z</time>
      </trkpt>
      <trkpt lat="46.109189987182617" lon="9.062798023223877">
        <ele>1509.8876953125</ele>
        <time>2008-07-20T12:08:03Z</time>
      </trkpt>
      <trkpt lat="46.109104156494141" lon="9.062776565551758">
        <ele>1509.4072265625</ele>
        <time>2008-07-20T12:08:06Z</time>
      </trkpt>
      <trkpt lat="46.108911037445068" lon="9.062776565551758">
        <ele>1506.523193359375</ele>
        <time>2008-07-20T12:08:14Z</time>
      </trkpt>
      <trkpt lat="46.108760833740234" lon="9.06273365020752">
        <ele>1504.6005859375</ele>
        <time>2008-07-20T12:08:20Z</time>
      </trkpt>
      <trkpt lat="46.108546257019043" lon="9.0627121925354">
        <ele>1502.197265625</ele>
        <time>2008-07-20T12:08:29Z</time>
      </trkpt>
      <trkpt lat="46.108396053314209" lon="9.0627121925354">
        <ele>1501.236083984375</ele>
        <time>2008-07-20T12:08:36Z</time>
      </trkpt>
      <trkpt lat="46.108224391937256" lon="9.0627121925354">
        <ele>1500.75537109375</ele>
        <time>2008-07-20T12:08:43Z</time>
      </trkpt>
      <trkpt lat="46.108095645904541" lon="9.062755107879639">
        <ele>1500.27490234375</ele>
        <time>2008-07-20T12:08:49Z</time>
      </trkpt>
      <trkpt lat="46.107923984527588" lon="9.062755107879639">
        <ele>1500.27490234375</ele>
        <time>2008-07-20T12:08:56Z</time>
      </trkpt>
      <trkpt lat="46.107773780822754" lon="9.062776565551758">
        <ele>1501.236083984375</ele>
        <time>2008-07-20T12:09:03Z</time>
      </trkpt>
      <trkpt lat="46.107602119445801" lon="9.062798023223877">
        <ele>1503.639404296875</ele>
        <time>2008-07-20T12:09:13Z</time>
      </trkpt>
      <trkpt lat="46.107430458068848" lon="9.062862396240234">
        <ele>1503.639404296875</ele>
        <time>2008-07-20T12:09:20Z</time>
      </trkpt>
      <trkpt lat="46.107280254364014" lon="9.062905311584473">
        <ele>1504.1201171875</ele>
        <time>2008-07-20T12:09:27Z</time>
      </trkpt>
      <trkpt lat="46.107151508331299" lon="9.063012599945068">
        <ele>1506.04248046875</ele>
        <time>2008-07-20T12:09:34Z</time>
      </trkpt>
      <trkpt lat="46.106958389282227" lon="9.063119888305664">
        <ele>1507.96533203125</ele>
        <time>2008-07-20T12:09:43Z</time>
      </trkpt>
      <trkpt lat="46.106894016265869" lon="9.063205718994141">
        <ele>1509.4072265625</ele>
        <time>2008-07-20T12:09:49Z</time>
      </trkpt>
      <trkpt lat="46.106894016265869" lon="9.063184261322022">
        <ele>1511.810546875</ele>
        <time>2008-07-20T12:12:46Z</time>
      </trkpt>
      <trkpt lat="46.106894016265869" lon="9.063205718994141">
        <ele>1509.8876953125</ele>
        <time>2008-07-20T12:13:51Z</time>
      </trkpt>
      <trkpt lat="46.106894016265869" lon="9.063205718994141">
        <ele>1509.4072265625</ele>
        <time>2008-07-20T12:14:54Z</time>
      </trkpt>
      <trkpt lat="46.106894016265869" lon="9.063205718994141">
        <ele>1508.926513671875</ele>
        <time>2008-07-20T12:17:06Z</time>
      </trkpt>
      <trkpt lat="46.106915473937988" lon="9.063205718994141">
        <ele>1511.329833984375</ele>
        <time>2008-07-20T12:18:56Z</time>
      </trkpt>
      <trkpt lat="46.106915473937988" lon="9.063248634338379">
        <ele>1512.291015625</ele>
        <time>2008-07-20T12:19:39Z</time>
      </trkpt>
      <trkpt lat="46.106979846954346" lon="9.063377380371094">
        <ele>1510.368408203125</ele>
        <time>2008-07-20T12:19:43Z</time>
      </trkpt>
      <trkpt lat="46.107151508331299" lon="9.063656330108643">
        <ele>1510.84912109375</ele>
        <time>2008-07-20T12:19:50Z</time>
      </trkpt>
      <trkpt lat="46.107258796691895" lon="9.063849449157715">
        <ele>1512.771728515625</ele>
        <time>2008-07-20T12:19:57Z</time>
      </trkpt>
      <trkpt lat="46.107344627380371" lon="9.064021110534668">
        <ele>1513.73291015625</ele>
        <time>2008-07-20T12:20:04Z</time>
      </trkpt>
      <trkpt lat="46.107451915740967" lon="9.064278602600098">
        <ele>1515.175048828125</ele>
        <time>2008-07-20T12:20:14Z</time>
      </trkpt>
      <trkpt lat="46.107537746429443" lon="9.064450263977051">
        <ele>1517.097900390625</ele>
        <time>2008-07-20T12:20:22Z</time>
      </trkpt>
      <trkpt lat="46.107580661773682" lon="9.064643383026123">
        <ele>1518.05908203125</ele>
        <time>2008-07-20T12:20:30Z</time>
      </trkpt>
      <trkpt lat="46.107602119445801" lon="9.064836502075195">
        <ele>1517.578369140625</ele>
        <time>2008-07-20T12:20:38Z</time>
      </trkpt>
      <trkpt lat="46.10762357711792" lon="9.064879417419434">
        <ele>1516.6171875</ele>
        <time>2008-07-20T12:20:44Z</time>
      </trkpt>
      <trkpt lat="46.10762357711792" lon="9.064943790435791">
        <ele>1516.6171875</ele>
        <time>2008-07-20T12:20:50Z</time>
      </trkpt>
      <trkpt lat="46.107580661773682" lon="9.064943790435791">
        <ele>1517.097900390625</ele>
        <time>2008-07-20T12:20:54Z</time>
      </trkpt>
      <trkpt lat="46.107537746429443" lon="9.064922332763672">
        <ele>1517.097900390625</ele>
        <time>2008-07-20T12:20:58Z</time>
      </trkpt>
      <trkpt lat="46.107387542724609" lon="9.064879417419434">
        <ele>1517.578369140625</ele>
        <time>2008-07-20T12:21:10Z</time>
      </trkpt>
      <trkpt lat="46.107301712036133" lon="9.064900875091553">
        <ele>1517.097900390625</ele>
        <time>2008-07-20T12:21:18Z</time>
      </trkpt>
      <trkpt lat="46.107151508331299" lon="9.065008163452148">
        <ele>1517.097900390625</ele>
        <time>2008-07-20T12:21:24Z</time>
      </trkpt>
      <trkpt lat="46.107001304626465" lon="9.065244197845459">
        <ele>1519.0205078125</ele>
        <time>2008-07-20T12:21:32Z</time>
      </trkpt>
      <trkpt lat="46.10687255859375" lon="9.065566062927246">
        <ele>1519.501220703125</ele>
        <time>2008-07-20T12:21:41Z</time>
      </trkpt>
      <trkpt lat="46.106829643249512" lon="9.065780639648438">
        <ele>1520.46240234375</ele>
        <time>2008-07-20T12:21:47Z</time>
      </trkpt>
      <trkpt lat="46.106808185577393" lon="9.066059589385986">
        <ele>1521.904296875</ele>
        <time>2008-07-20T12:21:56Z</time>
      </trkpt>
      <trkpt lat="46.106743812561035" lon="9.066338539123535">
        <ele>1519.501220703125</ele>
        <time>2008-07-20T12:22:04Z</time>
      </trkpt>
      <trkpt lat="46.106722354888916" lon="9.066617488861084">
        <ele>1518.539794921875</ele>
        <time>2008-07-20T12:22:08Z</time>
      </trkpt>
      <trkpt lat="46.106700897216797" lon="9.066789150238037">
        <ele>1517.578369140625</ele>
        <time>2008-07-20T12:22:11Z</time>
      </trkpt>
      <trkpt lat="46.106636524200439" lon="9.067153930664063">
        <ele>1513.25244140625</ele>
        <time>2008-07-20T12:22:17Z</time>
      </trkpt>
      <trkpt lat="46.106421947479248" lon="9.067304134368897">
        <ele>1513.73291015625</ele>
        <time>2008-07-20T12:22:23Z</time>
      </trkpt>
      <trkpt lat="46.106228828430176" lon="9.06747579574585">
        <ele>1514.213623046875</ele>
        <time>2008-07-20T12:22:31Z</time>
      </trkpt>
      <trkpt lat="46.106057167053223" lon="9.067647457122803">
        <ele>1512.291015625</ele>
        <time>2008-07-20T12:22:38Z</time>
      </trkpt>
      <trkpt lat="46.106014251708984" lon="9.067690372467041">
        <ele>1511.810546875</ele>
        <time>2008-07-20T12:22:39Z</time>
      </trkpt>
      <trkpt lat="46.105928421020508" lon="9.067904949188232">
        <ele>1512.771728515625</ele>
        <time>2008-07-20T12:22:44Z</time>
      </trkpt>
      <trkpt lat="46.10588550567627" lon="9.068076610565186">
        <ele>1513.73291015625</ele>
        <time>2008-07-20T12:22:50Z</time>
      </trkpt>
      <trkpt lat="46.105778217315674" lon="9.068291187286377">
        <ele>1512.771728515625</ele>
        <time>2008-07-20T12:22:54Z</time>
      </trkpt>
      <trkpt lat="46.105713844299316" lon="9.068484306335449">
        <ele>1511.329833984375</ele>
        <time>2008-07-20T12:22:59Z</time>
      </trkpt>
      <trkpt lat="46.105692386627197" lon="9.068548679351807">
        <ele>1513.25244140625</ele>
        <time>2008-07-20T12:23:04Z</time>
      </trkpt>
      <trkpt lat="46.105585098266602" lon="9.068655967712402">
        <ele>1515.65576171875</ele>
        <time>2008-07-20T12:23:15Z</time>
      </trkpt>
      <trkpt lat="46.105563640594482" lon="9.068698883056641">
        <ele>1515.175048828125</ele>
        <time>2008-07-20T12:23:19Z</time>
      </trkpt>
      <trkpt lat="46.105542182922363" lon="9.068892002105713">
        <ele>1512.291015625</ele>
        <time>2008-07-20T12:23:25Z</time>
      </trkpt>
      <trkpt lat="46.105563640594482" lon="9.069128036499023">
        <ele>1508.44580078125</ele>
        <time>2008-07-20T12:23:29Z</time>
      </trkpt>
      <trkpt lat="46.105692386627197" lon="9.069449901580811">
        <ele>1507.484619140625</ele>
        <time>2008-07-20T12:23:35Z</time>
      </trkpt>
      <trkpt lat="46.105778217315674" lon="9.069578647613525">
        <ele>1507.96533203125</ele>
        <time>2008-07-20T12:23:40Z</time>
      </trkpt>
      <trkpt lat="46.105842590332031" lon="9.069771766662598">
        <ele>1508.926513671875</ele>
        <time>2008-07-20T12:23:46Z</time>
      </trkpt>
      <trkpt lat="46.10586404800415" lon="9.069814682006836">
        <ele>1510.368408203125</ele>
        <time>2008-07-20T12:23:50Z</time>
      </trkpt>
      <trkpt lat="46.10586404800415" lon="9.069879055023193">
        <ele>1510.368408203125</ele>
        <time>2008-07-20T12:23:56Z</time>
      </trkpt>
      <trkpt lat="46.105842590332031" lon="9.069921970367432">
        <ele>1510.84912109375</ele>
        <time>2008-07-20T12:24:02Z</time>
      </trkpt>
      <trkpt lat="46.105842590332031" lon="9.069921970367432">
        <ele>1510.84912109375</ele>
        <time>2008-07-20T12:24:04Z</time>
      </trkpt>
      <trkpt lat="46.105735301971436" lon="9.069900512695313">
        <ele>1505.56201171875</ele>
        <time>2008-07-20T12:24:12Z</time>
      </trkpt>
      <trkpt lat="46.105606555938721" lon="9.069836139678955">
        <ele>1505.081298828125</ele>
        <time>2008-07-20T12:24:16Z</time>
      </trkpt>
      <trkpt lat="46.105585098266602" lon="9.069857597351074">
        <ele>1505.081298828125</ele>
        <time>2008-07-20T12:24:20Z</time>
      </trkpt>
      <trkpt lat="46.105499267578125" lon="9.06996488571167">
        <ele>1506.523193359375</ele>
        <time>2008-07-20T12:24:31Z</time>
      </trkpt>
      <trkpt lat="46.105499267578125" lon="9.070007801055908">
        <ele>1506.523193359375</ele>
        <time>2008-07-20T12:24:34Z</time>
      </trkpt>
      <trkpt lat="46.105520725250244" lon="9.070093631744385">
        <ele>1507.484619140625</ele>
        <time>2008-07-20T12:24:39Z</time>
      </trkpt>
      <trkpt lat="46.105520725250244" lon="9.070136547088623">
        <ele>1509.4072265625</ele>
        <time>2008-07-20T12:24:48Z</time>
      </trkpt>
      <trkpt lat="46.105520725250244" lon="9.070136547088623">
        <ele>1510.84912109375</ele>
        <time>2008-07-20T12:25:19Z</time>
      </trkpt>
      <trkpt lat="46.105542182922363" lon="9.070200920104981">
        <ele>1511.329833984375</ele>
        <time>2008-07-20T12:25:29Z</time>
      </trkpt>
      <trkpt lat="46.105542182922363" lon="9.070200920104981">
        <ele>1511.329833984375</ele>
        <time>2008-07-20T12:25:36Z</time>
      </trkpt>
      <trkpt lat="46.105520725250244" lon="9.070243835449219">
        <ele>1511.329833984375</ele>
        <time>2008-07-20T12:25:52Z</time>
      </trkpt>
      <trkpt lat="46.105413436889648" lon="9.070243835449219">
        <ele>1511.329833984375</ele>
        <time>2008-07-20T12:26:01Z</time>
      </trkpt>
      <trkpt lat="46.105306148529053" lon="9.070308208465576">
        <ele>1509.4072265625</ele>
        <time>2008-07-20T12:26:12Z</time>
      </trkpt>
      <trkpt lat="46.105220317840576" lon="9.070243835449219">
        <ele>1509.4072265625</ele>
        <time>2008-07-20T12:26:20Z</time>
      </trkpt>
      <trkpt lat="46.10511302947998" lon="9.070200920104981">
        <ele>1511.329833984375</ele>
        <time>2008-07-20T12:26:30Z</time>
      </trkpt>
      <trkpt lat="46.105091571807861" lon="9.070200920104981">
        <ele>1511.810546875</ele>
        <time>2008-07-20T12:26:33Z</time>
      </trkpt>
      <trkpt lat="46.104984283447266" lon="9.070351123809815">
        <ele>1512.771728515625</ele>
        <time>2008-07-20T12:26:46Z</time>
      </trkpt>
      <trkpt lat="46.104898452758789" lon="9.070436954498291">
        <ele>1514.213623046875</ele>
        <time>2008-07-20T12:26:55Z</time>
      </trkpt>
      <trkpt lat="46.104791164398193" lon="9.070522785186768">
        <ele>1516.136474609375</ele>
        <time>2008-07-20T12:27:06Z</time>
      </trkpt>
      <trkpt lat="46.104705333709717" lon="9.070587158203125">
        <ele>1519.0205078125</ele>
        <time>2008-07-20T12:27:16Z</time>
      </trkpt>
      <trkpt lat="46.104683876037598" lon="9.070651531219482">
        <ele>1518.539794921875</ele>
        <time>2008-07-20T12:27:21Z</time>
      </trkpt>
      <trkpt lat="46.104598045349121" lon="9.070887565612793">
        <ele>1517.097900390625</ele>
        <time>2008-07-20T12:27:28Z</time>
      </trkpt>
      <trkpt lat="46.104512214660645" lon="9.071080684661865">
        <ele>1514.213623046875</ele>
        <time>2008-07-20T12:27:34Z</time>
      </trkpt>
      <trkpt lat="46.104447841644287" lon="9.071187973022461">
        <ele>1511.810546875</ele>
        <time>2008-07-20T12:27:39Z</time>
      </trkpt>
      <trkpt lat="46.104447841644287" lon="9.071187973022461">
        <ele>1511.329833984375</ele>
        <time>2008-07-20T12:27:40Z</time>
      </trkpt>
      <trkpt lat="46.104426383972168" lon="9.071295261383057">
        <ele>1508.926513671875</ele>
        <time>2008-07-20T12:27:49Z</time>
      </trkpt>
      <trkpt lat="46.104404926300049" lon="9.071295261383057">
        <ele>1508.44580078125</ele>
        <time>2008-07-20T12:27:57Z</time>
      </trkpt>
      <trkpt lat="46.104404926300049" lon="9.071295261383057">
        <ele>1507.96533203125</ele>
        <time>2008-07-20T12:28:08Z</time>
      </trkpt>
      <trkpt lat="46.10438346862793" lon="9.071230888366699">
        <ele>1506.04248046875</ele>
        <time>2008-07-20T12:28:21Z</time>
      </trkpt>
      <trkpt lat="46.104340553283691" lon="9.071166515350342">
        <ele>1503.15869140625</ele>
        <time>2008-07-20T12:28:31Z</time>
      </trkpt>
      <trkpt lat="46.104340553283691" lon="9.071166515350342">
        <ele>1503.15869140625</ele>
        <time>2008-07-20T12:28:32Z</time>
      </trkpt>
      <trkpt lat="46.104276180267334" lon="9.07097339630127">
        <ele>1501.716796875</ele>
        <time>2008-07-20T12:28:39Z</time>
      </trkpt>
      <trkpt lat="46.104168891906738" lon="9.070823192596436">
        <ele>1502.197265625</ele>
        <time>2008-07-20T12:28:45Z</time>
      </trkpt>
      <trkpt lat="46.104018688201904" lon="9.07071590423584">
        <ele>1503.15869140625</ele>
        <time>2008-07-20T12:28:52Z</time>
      </trkpt>
      <trkpt lat="46.103889942169189" lon="9.070651531219482">
        <ele>1503.15869140625</ele>
        <time>2008-07-20T12:28:59Z</time>
      </trkpt>
      <trkpt lat="46.103825569152832" lon="9.070608615875244">
        <ele>1504.1201171875</ele>
        <time>2008-07-20T12:29:05Z</time>
      </trkpt>
      <trkpt lat="46.103696823120117" lon="9.070565700531006">
        <ele>1506.523193359375</ele>
        <time>2008-07-20T12:29:17Z</time>
      </trkpt>
      <trkpt lat="46.103610992431641" lon="9.070479869842529">
        <ele>1507.484619140625</ele>
        <time>2008-07-20T12:29:27Z</time>
      </trkpt>
      <trkpt lat="46.103525161743164" lon="9.070436954498291">
        <ele>1507.96533203125</ele>
        <time>2008-07-20T12:29:37Z</time>
      </trkpt>
      <trkpt lat="46.103439331054687" lon="9.07045841217041">
        <ele>1508.44580078125</ele>
        <time>2008-07-20T12:29:46Z</time>
      </trkpt>
      <trkpt lat="46.103417873382568" lon="9.070479869842529">
        <ele>1507.00390625</ele>
        <time>2008-07-20T12:29:55Z</time>
      </trkpt>
      <trkpt lat="46.103417873382568" lon="9.070479869842529">
        <ele>1506.523193359375</ele>
        <time>2008-07-20T12:29:57Z</time>
      </trkpt>
      <trkpt lat="46.103396415710449" lon="9.070651531219482">
        <ele>1504.1201171875</ele>
        <time>2008-07-20T12:30:01Z</time>
      </trkpt>
      <trkpt lat="46.103267669677734" lon="9.070909023284912">
        <ele>1503.639404296875</ele>
        <time>2008-07-20T12:30:07Z</time>
      </trkpt>
      <trkpt lat="46.103160381317139" lon="9.071166515350342">
        <ele>1503.15869140625</ele>
        <time>2008-07-20T12:30:14Z</time>
      </trkpt>
      <trkpt lat="46.103074550628662" lon="9.071402549743652">
        <ele>1503.639404296875</ele>
        <time>2008-07-20T12:30:20Z</time>
      </trkpt>
      <trkpt lat="46.103053092956543" lon="9.071552753448486">
        <ele>1505.081298828125</ele>
        <time>2008-07-20T12:30:26Z</time>
      </trkpt>
      <trkpt lat="46.103010177612305" lon="9.071767330169678">
        <ele>1507.00390625</ele>
        <time>2008-07-20T12:30:33Z</time>
      </trkpt>
      <trkpt lat="46.103010177612305" lon="9.071810245513916">
        <ele>1507.484619140625</ele>
        <time>2008-07-20T12:30:38Z</time>
      </trkpt>
      <trkpt lat="46.103010177612305" lon="9.071896076202393">
        <ele>1506.523193359375</ele>
        <time>2008-07-20T12:30:49Z</time>
      </trkpt>
      <trkpt lat="46.103010177612305" lon="9.072024822235107">
        <ele>1508.926513671875</ele>
        <time>2008-07-20T12:31:00Z</time>
      </trkpt>
      <trkpt lat="46.102988719940186" lon="9.072175025939941">
        <ele>1510.84912109375</ele>
        <time>2008-07-20T12:31:13Z</time>
      </trkpt>
      <trkpt lat="46.102967262268066" lon="9.072260856628418">
        <ele>1512.291015625</ele>
        <time>2008-07-20T12:31:22Z</time>
      </trkpt>
      <trkpt lat="46.102967262268066" lon="9.072368144989014">
        <ele>1514.213623046875</ele>
        <time>2008-07-20T12:31:32Z</time>
      </trkpt>
      <trkpt lat="46.102945804595947" lon="9.072475433349609">
        <ele>1515.65576171875</ele>
        <time>2008-07-20T12:31:43Z</time>
      </trkpt>
      <trkpt lat="46.102924346923828" lon="9.072582721710205">
        <ele>1516.6171875</ele>
        <time>2008-07-20T12:31:53Z</time>
      </trkpt>
      <trkpt lat="46.10288143157959" lon="9.072668552398682">
        <ele>1517.578369140625</ele>
        <time>2008-07-20T12:32:03Z</time>
      </trkpt>
      <trkpt lat="46.102817058563232" lon="9.072690010070801">
        <ele>1518.539794921875</ele>
        <time>2008-07-20T12:32:11Z</time>
      </trkpt>
      <trkpt lat="46.102795600891113" lon="9.072690010070801">
        <ele>1518.539794921875</ele>
        <time>2008-07-20T12:32:13Z</time>
      </trkpt>
      <trkpt lat="46.102688312530518" lon="9.072668552398682">
        <ele>1517.578369140625</ele>
        <time>2008-07-20T12:32:25Z</time>
      </trkpt>
      <trkpt lat="46.102645397186279" lon="9.072647094726563">
        <ele>1518.539794921875</ele>
        <time>2008-07-20T12:32:29Z</time>
      </trkpt>
      <trkpt lat="46.102581024169922" lon="9.072647094726563">
        <ele>1519.0205078125</ele>
        <time>2008-07-20T12:32:38Z</time>
      </trkpt>
      <trkpt lat="46.102473735809326" lon="9.072647094726563">
        <ele>1518.05908203125</ele>
        <time>2008-07-20T12:32:49Z</time>
      </trkpt>
      <trkpt lat="46.10236644744873" lon="9.072668552398682">
        <ele>1519.0205078125</ele>
        <time>2008-07-20T12:33:01Z</time>
      </trkpt>
      <trkpt lat="46.102259159088135" lon="9.072690010070801">
        <ele>1519.981689453125</ele>
        <time>2008-07-20T12:33:12Z</time>
      </trkpt>
      <trkpt lat="46.102151870727539" lon="9.07271146774292">
        <ele>1522.385009765625</ele>
        <time>2008-07-20T12:33:24Z</time>
      </trkpt>
      <trkpt lat="46.102108955383301" lon="9.072818756103516">
        <ele>1521.423583984375</ele>
        <time>2008-07-20T12:33:35Z</time>
      </trkpt>
      <trkpt lat="46.102066040039063" lon="9.072904586791992">
        <ele>1519.501220703125</ele>
        <time>2008-07-20T12:33:44Z</time>
      </trkpt>
      <trkpt lat="46.102001667022705" lon="9.072947502136231">
        <ele>1519.981689453125</ele>
        <time>2008-07-20T12:33:51Z</time>
      </trkpt>
      <trkpt lat="46.101958751678467" lon="9.073054790496826">
        <ele>1521.423583984375</ele>
        <time>2008-07-20T12:34:01Z</time>
      </trkpt>
      <trkpt lat="46.101958751678467" lon="9.073119163513184">
        <ele>1520.46240234375</ele>
        <time>2008-07-20T12:34:07Z</time>
      </trkpt>
      <trkpt lat="46.101937294006348" lon="9.073162078857422">
        <ele>1519.981689453125</ele>
        <time>2008-07-20T12:34:10Z</time>
      </trkpt>
      <trkpt lat="46.101851463317871" lon="9.073140621185303">
        <ele>1519.501220703125</ele>
        <time>2008-07-20T12:34:18Z</time>
      </trkpt>
      <trkpt lat="46.101744174957275" lon="9.073054790496826">
        <ele>1520.46240234375</ele>
        <time>2008-07-20T12:34:29Z</time>
      </trkpt>
      <trkpt lat="46.101722717285156" lon="9.073054790496826">
        <ele>1520.46240234375</ele>
        <time>2008-07-20T12:34:37Z</time>
      </trkpt>
      <trkpt lat="46.101722717285156" lon="9.073054790496826">
        <ele>1521.423583984375</ele>
        <time>2008-07-20T12:34:55Z</time>
      </trkpt>
      <trkpt lat="46.101551055908203" lon="9.073097705841065">
        <ele>1519.0205078125</ele>
        <time>2008-07-20T12:35:00Z</time>
      </trkpt>
      <trkpt lat="46.101400852203369" lon="9.073054790496826">
        <ele>1519.0205078125</ele>
        <time>2008-07-20T12:35:07Z</time>
      </trkpt>
      <trkpt lat="46.101357936859131" lon="9.072904586791992">
        <ele>1518.05908203125</ele>
        <time>2008-07-20T12:35:10Z</time>
      </trkpt>
      <trkpt lat="46.101250648498535" lon="9.072818756103516">
        <ele>1518.539794921875</ele>
        <time>2008-07-20T12:35:14Z</time>
      </trkpt>
      <trkpt lat="46.101229190826416" lon="9.072797298431397">
        <ele>1519.0205078125</ele>
        <time>2008-07-20T12:35:18Z</time>
      </trkpt>
      <trkpt lat="46.101100444793701" lon="9.072732925415039">
        <ele>1522.385009765625</ele>
        <time>2008-07-20T12:35:31Z</time>
      </trkpt>
      <trkpt lat="46.101014614105225" lon="9.072690010070801">
        <ele>1524.3076171875</ele>
        <time>2008-07-20T12:35:42Z</time>
      </trkpt>
      <trkpt lat="46.100928783416748" lon="9.072625637054443">
        <ele>1525.74951171875</ele>
        <time>2008-07-20T12:35:54Z</time>
      </trkpt>
      <trkpt lat="46.100842952728271" lon="9.072604179382324">
        <ele>1529.114013671875</ele>
        <time>2008-07-20T12:36:06Z</time>
      </trkpt>
      <trkpt lat="46.100821495056152" lon="9.072582721710205">
        <ele>1530.075439453125</ele>
        <time>2008-07-20T12:36:16Z</time>
      </trkpt>
      <trkpt lat="46.100757122039795" lon="9.072561264038086">
        <ele>1531.517333984375</ele>
        <time>2008-07-20T12:36:33Z</time>
      </trkpt>
      <trkpt lat="46.100692749023438" lon="9.072539806365967">
        <ele>1534.401611328125</ele>
        <time>2008-07-20T12:36:43Z</time>
      </trkpt>
      <trkpt lat="46.100692749023438" lon="9.072539806365967">
        <ele>1533.9208984375</ele>
        <time>2008-07-20T12:37:05Z</time>
      </trkpt>
      <trkpt lat="46.100671291351318" lon="9.072625637054443">
        <ele>1535.843505859375</ele>
        <time>2008-07-20T12:37:15Z</time>
      </trkpt>
      <trkpt lat="46.100671291351318" lon="9.072625637054443">
        <ele>1535.36279296875</ele>
        <time>2008-07-20T12:37:23Z</time>
      </trkpt>
      <trkpt lat="46.100649833679199" lon="9.072647094726563">
        <ele>1535.36279296875</ele>
        <time>2008-07-20T12:41:36Z</time>
      </trkpt>
      <trkpt lat="46.100649833679199" lon="9.072647094726563">
        <ele>1536.32421875</ele>
        <time>2008-07-20T12:42:00Z</time>
      </trkpt>
      <trkpt lat="46.10062837600708" lon="9.072732925415039">
        <ele>1535.36279296875</ele>
        <time>2008-07-20T12:42:09Z</time>
      </trkpt>
      <trkpt lat="46.100606918334961" lon="9.072818756103516">
        <ele>1535.36279296875</ele>
        <time>2008-07-20T12:42:17Z</time>
      </trkpt>
      <trkpt lat="46.100542545318604" lon="9.072947502136231">
        <ele>1534.88232421875</ele>
        <time>2008-07-20T12:42:27Z</time>
      </trkpt>
      <trkpt lat="46.100542545318604" lon="9.073076248168945">
        <ele>1532.95947265625</ele>
        <time>2008-07-20T12:42:37Z</time>
      </trkpt>
      <trkpt lat="46.100521087646484" lon="9.073140621185303">
        <ele>1531.517333984375</ele>
        <time>2008-07-20T12:42:46Z</time>
      </trkpt>
      <trkpt lat="46.100521087646484" lon="9.073183536529541">
        <ele>1530.55615234375</ele>
        <time>2008-07-20T12:42:56Z</time>
      </trkpt>
      <trkpt lat="46.100478172302246" lon="9.07320499420166">
        <ele>1530.55615234375</ele>
        <time>2008-07-20T12:43:00Z</time>
      </trkpt>
      <trkpt lat="46.100456714630127" lon="9.073226451873779">
        <ele>1529.5947265625</ele>
        <time>2008-07-20T12:43:08Z</time>
      </trkpt>
      <trkpt lat="46.100456714630127" lon="9.073247909545898">
        <ele>1526.7109375</ele>
        <time>2008-07-20T12:43:44Z</time>
      </trkpt>
      <trkpt lat="46.10037088394165" lon="9.073269367218018">
        <ele>1525.268798828125</ele>
        <time>2008-07-20T12:43:54Z</time>
      </trkpt>
      <trkpt lat="46.100306510925293" lon="9.073312282562256">
        <ele>1523.826904296875</ele>
        <time>2008-07-20T12:44:03Z</time>
      </trkpt>
      <trkpt lat="46.100263595581055" lon="9.073355197906494">
        <ele>1522.86572265625</ele>
        <time>2008-07-20T12:44:09Z</time>
      </trkpt>
      <trkpt lat="46.100263595581055" lon="9.073398113250732">
        <ele>1521.904296875</ele>
        <time>2008-07-20T12:44:12Z</time>
      </trkpt>
      <trkpt lat="46.100199222564697" lon="9.073419570922852">
        <ele>1522.385009765625</ele>
        <time>2008-07-20T12:44:17Z</time>
      </trkpt>
      <trkpt lat="46.100113391876221" lon="9.073419570922852">
        <ele>1525.268798828125</ele>
        <time>2008-07-20T12:44:28Z</time>
      </trkpt>
      <trkpt lat="46.100091934204102" lon="9.073376655578613">
        <ele>1528.15283203125</ele>
        <time>2008-07-20T12:44:37Z</time>
      </trkpt>
      <trkpt lat="46.100070476531982" lon="9.073355197906494">
        <ele>1528.15283203125</ele>
        <time>2008-07-20T12:44:40Z</time>
      </trkpt>
      <trkpt lat="46.099941730499268" lon="9.073269367218018">
        <ele>1528.15283203125</ele>
        <time>2008-07-20T12:44:52Z</time>
      </trkpt>
      <trkpt lat="46.09987735748291" lon="9.073226451873779">
        <ele>1531.036865234375</ele>
        <time>2008-07-20T12:45:03Z</time>
      </trkpt>
      <trkpt lat="46.099812984466553" lon="9.073247909545898">
        <ele>1533.9208984375</ele>
        <time>2008-07-20T12:45:13Z</time>
      </trkpt>
      <trkpt lat="46.099791526794434" lon="9.073290824890137">
        <ele>1536.32421875</ele>
        <time>2008-07-20T12:45:22Z</time>
      </trkpt>
      <trkpt lat="46.099748611450195" lon="9.073290824890137">
        <ele>1537.76611328125</ele>
        <time>2008-07-20T12:45:30Z</time>
      </trkpt>
      <trkpt lat="46.099705696105957" lon="9.073333740234375">
        <ele>1539.2080078125</ele>
        <time>2008-07-20T12:45:38Z</time>
      </trkpt>
      <trkpt lat="46.099662780761719" lon="9.073376655578613">
        <ele>1539.688720703125</ele>
        <time>2008-07-20T12:45:46Z</time>
      </trkpt>
      <trkpt lat="46.099576950073242" lon="9.073398113250732">
        <ele>1539.2080078125</ele>
        <time>2008-07-20T12:45:57Z</time>
      </trkpt>
      <trkpt lat="46.099576950073242" lon="9.073419570922852">
        <ele>1538.7275390625</ele>
        <time>2008-07-20T12:45:58Z</time>
      </trkpt>
      <trkpt lat="46.099491119384766" lon="9.073483943939209">
        <ele>1538.7275390625</ele>
        <time>2008-07-20T12:46:08Z</time>
      </trkpt>
      <trkpt lat="46.099426746368408" lon="9.073505401611328">
        <ele>1540.16943359375</ele>
        <time>2008-07-20T12:46:18Z</time>
      </trkpt>
      <trkpt lat="46.099362373352051" lon="9.073591232299805">
        <ele>1538.7275390625</ele>
        <time>2008-07-20T12:46:26Z</time>
      </trkpt>
      <trkpt lat="46.099212169647217" lon="9.073805809020996">
        <ele>1536.8046875</ele>
        <time>2008-07-20T12:46:33Z</time>
      </trkpt>
      <trkpt lat="46.099147796630859" lon="9.073977470397949">
        <ele>1537.76611328125</ele>
        <time>2008-07-20T12:46:38Z</time>
      </trkpt>
      <trkpt lat="46.099019050598145" lon="9.074084758758545">
        <ele>1536.32421875</ele>
        <time>2008-07-20T12:46:43Z</time>
      </trkpt>
      <trkpt lat="46.098911762237549" lon="9.074127674102783">
        <ele>1535.843505859375</ele>
        <time>2008-07-20T12:46:46Z</time>
      </trkpt>
      <trkpt lat="46.098847389221191" lon="9.074149131774902">
        <ele>1534.88232421875</ele>
        <time>2008-07-20T12:46:48Z</time>
      </trkpt>
      <trkpt lat="46.098740100860596" lon="9.074299335479736">
        <ele>1535.36279296875</ele>
        <time>2008-07-20T12:46:54Z</time>
      </trkpt>
      <trkpt lat="46.098589897155762" lon="9.074320793151856">
        <ele>1535.36279296875</ele>
        <time>2008-07-20T12:47:00Z</time>
      </trkpt>
      <trkpt lat="46.098482608795166" lon="9.074299335479736">
        <ele>1535.36279296875</ele>
        <time>2008-07-20T12:47:05Z</time>
      </trkpt>
      <trkpt lat="46.098418235778809" lon="9.074342250823975">
        <ele>1536.8046875</ele>
        <time>2008-07-20T12:47:13Z</time>
      </trkpt>
      <trkpt lat="46.098396778106689" lon="9.074342250823975">
        <ele>1536.8046875</ele>
        <time>2008-07-20T12:47:17Z</time>
      </trkpt>
      <trkpt lat="46.098332405090332" lon="9.074299335479736">
        <ele>1535.36279296875</ele>
        <time>2008-07-20T12:47:20Z</time>
      </trkpt>
      <trkpt lat="46.098160743713379" lon="9.074342250823975">
        <ele>1536.8046875</ele>
        <time>2008-07-20T12:47:25Z</time>
      </trkpt>
      <trkpt lat="46.09813928604126" lon="9.074363708496094">
        <ele>1537.285400390625</ele>
        <time>2008-07-20T12:47:30Z</time>
      </trkpt>
      <trkpt lat="46.098053455352783" lon="9.07447099685669">
        <ele>1535.36279296875</ele>
        <time>2008-07-20T12:47:35Z</time>
      </trkpt>
      <trkpt lat="46.098031997680664" lon="9.074578285217285">
        <ele>1535.843505859375</ele>
        <time>2008-07-20T12:47:40Z</time>
      </trkpt>
      <trkpt lat="46.097989082336426" lon="9.074664115905762">
        <ele>1536.8046875</ele>
        <time>2008-07-20T12:47:49Z</time>
      </trkpt>
      <trkpt lat="46.097989082336426" lon="9.074664115905762">
        <ele>1536.32421875</ele>
        <time>2008-07-20T12:47:51Z</time>
      </trkpt>
      <trkpt lat="46.097817420959473" lon="9.074835777282715">
        <ele>1535.843505859375</ele>
        <time>2008-07-20T12:47:57Z</time>
      </trkpt>
      <trkpt lat="46.097753047943115" lon="9.074878692626953">
        <ele>1535.36279296875</ele>
        <time>2008-07-20T12:48:02Z</time>
      </trkpt>
      <trkpt lat="46.097688674926758" lon="9.074900150299072">
        <ele>1533.9208984375</ele>
        <time>2008-07-20T12:48:04Z</time>
      </trkpt>
      <trkpt lat="46.097517013549805" lon="9.075136184692383">
        <ele>1530.55615234375</ele>
        <time>2008-07-20T12:48:11Z</time>
      </trkpt>
      <trkpt lat="46.097431182861328" lon="9.075286388397217">
        <ele>1530.075439453125</ele>
        <time>2008-07-20T12:48:15Z</time>
      </trkpt>
      <trkpt lat="46.097366809844971" lon="9.075522422790527">
        <ele>1530.075439453125</ele>
        <time>2008-07-20T12:48:20Z</time>
      </trkpt>
      <trkpt lat="46.09738826751709" lon="9.075608253479004">
        <ele>1530.075439453125</ele>
        <time>2008-07-20T12:48:23Z</time>
      </trkpt>
      <trkpt lat="46.097323894500732" lon="9.0757155418396">
        <ele>1531.036865234375</ele>
        <time>2008-07-20T12:48:29Z</time>
      </trkpt>
      <trkpt lat="46.09713077545166" lon="9.075865745544434">
        <ele>1532.47900390625</ele>
        <time>2008-07-20T12:48:40Z</time>
      </trkpt>
      <trkpt lat="46.097002029418945" lon="9.076015949249268">
        <ele>1533.9208984375</ele>
        <time>2008-07-20T12:48:48Z</time>
      </trkpt>
      <trkpt lat="46.096937656402588" lon="9.076187610626221">
        <ele>1533.9208984375</ele>
        <time>2008-07-20T12:48:53Z</time>
      </trkpt>
      <trkpt lat="46.096830368041992" lon="9.076402187347412">
        <ele>1534.401611328125</ele>
        <time>2008-07-20T12:49:01Z</time>
      </trkpt>
      <trkpt lat="46.096787452697754" lon="9.076509475708008">
        <ele>1534.401611328125</ele>
        <time>2008-07-20T12:49:04Z</time>
      </trkpt>
      <trkpt lat="46.096615791320801" lon="9.07670259475708">
        <ele>1530.075439453125</ele>
        <time>2008-07-20T12:49:12Z</time>
      </trkpt>
      <trkpt lat="46.096615791320801" lon="9.076809883117676">
        <ele>1528.633544921875</ele>
        <time>2008-07-20T12:49:14Z</time>
      </trkpt>
      <trkpt lat="46.096615791320801" lon="9.076917171478272">
        <ele>1527.191650390625</ele>
        <time>2008-07-20T12:49:16Z</time>
      </trkpt>
      <trkpt lat="46.096551418304443" lon="9.077239036560059">
        <ele>1526.7109375</ele>
        <time>2008-07-20T12:49:21Z</time>
      </trkpt>
      <trkpt lat="46.096529960632324" lon="9.077496528625488">
        <ele>1526.230224609375</ele>
        <time>2008-07-20T12:49:28Z</time>
      </trkpt>
      <trkpt lat="46.096487045288086" lon="9.077775478363037">
        <ele>1524.788330078125</ele>
        <time>2008-07-20T12:49:34Z</time>
      </trkpt>
      <trkpt lat="46.096487045288086" lon="9.077839851379395">
        <ele>1524.3076171875</ele>
        <time>2008-07-20T12:49:35Z</time>
      </trkpt>
      <trkpt lat="46.096529960632324" lon="9.078032970428467">
        <ele>1523.346435546875</ele>
        <time>2008-07-20T12:49:40Z</time>
      </trkpt>
      <trkpt lat="46.096551418304443" lon="9.078118801116943">
        <ele>1523.346435546875</ele>
        <time>2008-07-20T12:49:44Z</time>
      </trkpt>
      <trkpt lat="46.096422672271729" lon="9.07820463180542">
        <ele>1523.346435546875</ele>
        <time>2008-07-20T12:49:52Z</time>
      </trkpt>
      <trkpt lat="46.096336841583252" lon="9.078376293182373">
        <ele>1523.826904296875</ele>
        <time>2008-07-20T12:49:58Z</time>
      </trkpt>
      <trkpt lat="46.096336841583252" lon="9.078569412231445">
        <ele>1523.826904296875</ele>
        <time>2008-07-20T12:50:03Z</time>
      </trkpt>
      <trkpt lat="46.096336841583252" lon="9.078612327575684">
        <ele>1523.826904296875</ele>
        <time>2008-07-20T12:50:05Z</time>
      </trkpt>
      <trkpt lat="46.096251010894775" lon="9.078762531280518">
        <ele>1523.826904296875</ele>
        <time>2008-07-20T12:50:12Z</time>
      </trkpt>
      <trkpt lat="46.096229553222656" lon="9.078826904296875">
        <ele>1524.788330078125</ele>
        <time>2008-07-20T12:50:18Z</time>
      </trkpt>
      <trkpt lat="46.096229553222656" lon="9.078805446624756">
        <ele>1524.3076171875</ele>
        <time>2008-07-20T12:50:25Z</time>
      </trkpt>
      <trkpt lat="46.096208095550537" lon="9.078912734985352">
        <ele>1524.788330078125</ele>
        <time>2008-07-20T12:50:49Z</time>
      </trkpt>
      <trkpt lat="46.096165180206299" lon="9.079041481018066">
        <ele>1526.7109375</ele>
        <time>2008-07-20T12:50:59Z</time>
      </trkpt>
      <trkpt lat="46.096165180206299" lon="9.079084396362305">
        <ele>1527.672119140625</ele>
        <time>2008-07-20T12:51:06Z</time>
      </trkpt>
      <trkpt lat="46.09614372253418" lon="9.079148769378662">
        <ele>1528.15283203125</ele>
        <time>2008-07-20T12:51:14Z</time>
      </trkpt>
      <trkpt lat="46.096122264862061" lon="9.079234600067139">
        <ele>1529.114013671875</ele>
        <time>2008-07-20T12:51:23Z</time>
      </trkpt>
      <trkpt lat="46.096079349517822" lon="9.079341888427734">
        <ele>1531.517333984375</ele>
        <time>2008-07-20T12:51:33Z</time>
      </trkpt>
      <trkpt lat="46.096036434173584" lon="9.07944917678833">
        <ele>1534.401611328125</ele>
        <time>2008-07-20T12:51:45Z</time>
      </trkpt>
      <trkpt lat="46.096014976501465" lon="9.079535007476807">
        <ele>1534.88232421875</ele>
        <time>2008-07-20T12:51:55Z</time>
      </trkpt>
      <trkpt lat="46.095993518829346" lon="9.079642295837402">
        <ele>1534.88232421875</ele>
        <time>2008-07-20T12:52:06Z</time>
      </trkpt>
      <trkpt lat="46.096014976501465" lon="9.079728126525879">
        <ele>1534.88232421875</ele>
        <time>2008-07-20T12:52:15Z</time>
      </trkpt>
      <trkpt lat="46.095972061157227" lon="9.079792499542236">
        <ele>1534.88232421875</ele>
        <time>2008-07-20T12:52:23Z</time>
      </trkpt>
      <trkpt lat="46.095907688140869" lon="9.079792499542236">
        <ele>1535.36279296875</ele>
        <time>2008-07-20T12:52:32Z</time>
      </trkpt>
      <trkpt lat="46.095843315124512" lon="9.079899787902832">
        <ele>1536.8046875</ele>
        <time>2008-07-20T12:52:43Z</time>
      </trkpt>
      <trkpt lat="46.095778942108154" lon="9.079985618591309">
        <ele>1537.76611328125</ele>
        <time>2008-07-20T12:52:54Z</time>
      </trkpt>
      <trkpt lat="46.095778942108154" lon="9.080049991607666">
        <ele>1538.246826171875</ele>
        <time>2008-07-20T12:52:59Z</time>
      </trkpt>
      <trkpt lat="46.095778942108154" lon="9.080071449279785">
        <ele>1538.246826171875</ele>
        <time>2008-07-20T12:53:01Z</time>
      </trkpt>
      <trkpt lat="46.095821857452393" lon="9.080157279968262">
        <ele>1539.2080078125</ele>
        <time>2008-07-20T12:53:11Z</time>
      </trkpt>
      <trkpt lat="46.095778942108154" lon="9.080221652984619">
        <ele>1539.2080078125</ele>
        <time>2008-07-20T12:53:20Z</time>
      </trkpt>
      <trkpt lat="46.095778942108154" lon="9.080221652984619">
        <ele>1539.2080078125</ele>
        <time>2008-07-20T12:53:21Z</time>
      </trkpt>
      <trkpt lat="46.095693111419678" lon="9.080221652984619">
        <ele>1539.2080078125</ele>
        <time>2008-07-20T12:53:30Z</time>
      </trkpt>
      <trkpt lat="46.095607280731201" lon="9.0802001953125">
        <ele>1538.246826171875</ele>
        <time>2008-07-20T12:53:38Z</time>
      </trkpt>
      <trkpt lat="46.095521450042725" lon="9.080221652984619">
        <ele>1538.246826171875</ele>
        <time>2008-07-20T12:53:47Z</time>
      </trkpt>
      <trkpt lat="46.095521450042725" lon="9.080243110656738">
        <ele>1538.246826171875</ele>
        <time>2008-07-20T12:53:55Z</time>
      </trkpt>
      <trkpt lat="46.095435619354248" lon="9.080286026000977">
        <ele>1540.64990234375</ele>
        <time>2008-07-20T12:57:13Z</time>
      </trkpt>
      <trkpt lat="46.095306873321533" lon="9.080500602722168">
        <ele>1539.688720703125</ele>
        <time>2008-07-20T12:57:21Z</time>
      </trkpt>
      <trkpt lat="46.095285415649414" lon="9.080522060394287">
        <ele>1539.688720703125</ele>
        <time>2008-07-20T12:57:22Z</time>
      </trkpt>
      <trkpt lat="46.095221042633057" lon="9.080629348754883">
        <ele>1538.7275390625</ele>
        <time>2008-07-20T12:57:24Z</time>
      </trkpt>
      <trkpt lat="46.095092296600342" lon="9.080822467803955">
        <ele>1537.76611328125</ele>
        <time>2008-07-20T12:57:28Z</time>
      </trkpt>
      <trkpt lat="46.094920635223389" lon="9.081015586853027">
        <ele>1536.8046875</ele>
        <time>2008-07-20T12:57:34Z</time>
      </trkpt>
      <trkpt lat="46.094791889190674" lon="9.081273078918457">
        <ele>1536.32421875</ele>
        <time>2008-07-20T12:57:41Z</time>
      </trkpt>
      <trkpt lat="46.094727516174316" lon="9.081423282623291">
        <ele>1536.8046875</ele>
        <time>2008-07-20T12:57:46Z</time>
      </trkpt>
      <trkpt lat="46.094663143157959" lon="9.081637859344482">
        <ele>1535.36279296875</ele>
        <time>2008-07-20T12:57:52Z</time>
      </trkpt>
      <trkpt lat="46.09464168548584" lon="9.081680774688721">
        <ele>1535.36279296875</ele>
        <time>2008-07-20T12:57:53Z</time>
      </trkpt>
      <trkpt lat="46.094555854797363" lon="9.081766605377197">
        <ele>1535.843505859375</ele>
        <time>2008-07-20T12:57:58Z</time>
      </trkpt>
      <trkpt lat="46.094405651092529" lon="9.081830978393555">
        <ele>1537.76611328125</ele>
        <time>2008-07-20T12:58:05Z</time>
      </trkpt>
      <trkpt lat="46.094255447387695" lon="9.081916809082031">
        <ele>1537.285400390625</ele>
        <time>2008-07-20T12:58:13Z</time>
      </trkpt>
      <trkpt lat="46.094083786010742" lon="9.082088470458984">
        <ele>1536.32421875</ele>
        <time>2008-07-20T12:58:20Z</time>
      </trkpt>
      <trkpt lat="46.093933582305908" lon="9.08219575881958">
        <ele>1536.8046875</ele>
        <time>2008-07-20T12:58:25Z</time>
      </trkpt>
      <trkpt lat="46.093869209289551" lon="9.082345962524414">
        <ele>1537.76611328125</ele>
        <time>2008-07-20T12:58:30Z</time>
      </trkpt>
      <trkpt lat="46.093783378601074" lon="9.082474708557129">
        <ele>1536.8046875</ele>
        <time>2008-07-20T12:58:35Z</time>
      </trkpt>
      <trkpt lat="46.093761920928955" lon="9.082581996917725">
        <ele>1536.32421875</ele>
        <time>2008-07-20T12:58:37Z</time>
      </trkpt>
      <trkpt lat="46.093697547912598" lon="9.08268928527832">
        <ele>1535.36279296875</ele>
        <time>2008-07-20T12:58:39Z</time>
      </trkpt>
      <trkpt lat="46.093676090240479" lon="9.082818031311035">
        <ele>1534.88232421875</ele>
        <time>2008-07-20T12:58:41Z</time>
      </trkpt>
      <trkpt lat="46.093547344207764" lon="9.08294677734375">
        <ele>1536.8046875</ele>
        <time>2008-07-20T12:58:45Z</time>
      </trkpt>
      <trkpt lat="46.093525886535645" lon="9.082989692687988">
        <ele>1536.8046875</ele>
        <time>2008-07-20T12:58:47Z</time>
      </trkpt>
      <trkpt lat="46.093461513519287" lon="9.08320426940918">
        <ele>1536.32421875</ele>
        <time>2008-07-20T12:58:53Z</time>
      </trkpt>
      <trkpt lat="46.093525886535645" lon="9.083418846130371">
        <ele>1534.401611328125</ele>
        <time>2008-07-20T12:58:58Z</time>
      </trkpt>
      <trkpt lat="46.093547344207764" lon="9.083526134490967">
        <ele>1533.440185546875</ele>
        <time>2008-07-20T12:59:01Z</time>
      </trkpt>
      <trkpt lat="46.093440055847168" lon="9.083719253540039">
        <ele>1534.88232421875</ele>
        <time>2008-07-20T12:59:07Z</time>
      </trkpt>
      <trkpt lat="46.09339714050293" lon="9.083762168884277">
        <ele>1533.9208984375</ele>
        <time>2008-07-20T12:59:12Z</time>
      </trkpt>
      <trkpt lat="46.093354225158691" lon="9.083783626556397">
        <ele>1534.401611328125</ele>
        <time>2008-07-20T12:59:21Z</time>
      </trkpt>
      <trkpt lat="46.093289852142334" lon="9.083762168884277">
        <ele>1535.36279296875</ele>
        <time>2008-07-20T12:59:30Z</time>
      </trkpt>
      <trkpt lat="46.093225479125977" lon="9.083740711212158">
        <ele>1534.88232421875</ele>
        <time>2008-07-20T12:59:40Z</time>
      </trkpt>
      <trkpt lat="46.093225479125977" lon="9.083740711212158">
        <ele>1534.88232421875</ele>
        <time>2008-07-20T12:59:41Z</time>
      </trkpt>
      <trkpt lat="46.093032360076904" lon="9.083654880523682">
        <ele>1534.401611328125</ele>
        <time>2008-07-20T12:59:50Z</time>
      </trkpt>
      <trkpt lat="46.092860698699951" lon="9.083654880523682">
        <ele>1535.36279296875</ele>
        <time>2008-07-20T12:59:58Z</time>
      </trkpt>
      <trkpt lat="46.092689037322998" lon="9.083676338195801">
        <ele>1534.88232421875</ele>
        <time>2008-07-20T13:00:05Z</time>
      </trkpt>
      <trkpt lat="46.092431545257568" lon="9.083740711212158">
        <ele>1533.9208984375</ele>
        <time>2008-07-20T13:00:12Z</time>
      </trkpt>
      <trkpt lat="46.092281341552734" lon="9.083783626556397">
        <ele>1534.401611328125</ele>
        <time>2008-07-20T13:00:16Z</time>
      </trkpt>
      <trkpt lat="46.092023849487305" lon="9.083912372589111">
        <ele>1532.47900390625</ele>
        <time>2008-07-20T13:00:25Z</time>
      </trkpt>
      <trkpt lat="46.091980934143066" lon="9.083933830261231">
        <ele>1531.998046875</ele>
        <time>2008-07-20T13:00:26Z</time>
      </trkpt>
      <trkpt lat="46.09189510345459" lon="9.084084033966065">
        <ele>1533.440185546875</ele>
        <time>2008-07-20T13:00:32Z</time>
      </trkpt>
      <trkpt lat="46.091809272766113" lon="9.084298610687256">
        <ele>1534.401611328125</ele>
        <time>2008-07-20T13:00:40Z</time>
      </trkpt>
      <trkpt lat="46.091680526733398" lon="9.084491729736328">
        <ele>1534.88232421875</ele>
        <time>2008-07-20T13:00:48Z</time>
      </trkpt>
      <trkpt lat="46.091551780700684" lon="9.084727764129639">
        <ele>1534.88232421875</ele>
        <time>2008-07-20T13:00:57Z</time>
      </trkpt>
      <trkpt lat="46.09138011932373" lon="9.085006713867188">
        <ele>1533.440185546875</ele>
        <time>2008-07-20T13:01:04Z</time>
      </trkpt>
      <trkpt lat="46.091229915618896" lon="9.085135459899902">
        <ele>1532.47900390625</ele>
        <time>2008-07-20T13:01:09Z</time>
      </trkpt>
      <trkpt lat="46.091122627258301" lon="9.085371494293213">
        <ele>1530.55615234375</ele>
        <time>2008-07-20T13:01:14Z</time>
      </trkpt>
      <trkpt lat="46.091122627258301" lon="9.085371494293213">
        <ele>1531.036865234375</ele>
        <time>2008-07-20T13:01:19Z</time>
      </trkpt>
      <trkpt lat="46.091079711914063" lon="9.085392951965332">
        <ele>1531.517333984375</ele>
        <time>2008-07-20T13:01:29Z</time>
      </trkpt>
      <trkpt lat="46.091015338897705" lon="9.085478782653809">
        <ele>1532.95947265625</ele>
        <time>2008-07-20T13:01:39Z</time>
      </trkpt>
      <trkpt lat="46.090908050537109" lon="9.085543155670166">
        <ele>1533.440185546875</ele>
        <time>2008-07-20T13:01:46Z</time>
      </trkpt>
      <trkpt lat="46.090865135192871" lon="9.085586071014404">
        <ele>1534.401611328125</ele>
        <time>2008-07-20T13:01:52Z</time>
      </trkpt>
      <trkpt lat="46.090800762176514" lon="9.085671901702881">
        <ele>1536.32421875</ele>
        <time>2008-07-20T13:02:01Z</time>
      </trkpt>
      <trkpt lat="46.090736389160156" lon="9.085757732391357">
        <ele>1538.246826171875</ele>
        <time>2008-07-20T13:02:12Z</time>
      </trkpt>
      <trkpt lat="46.090672016143799" lon="9.085800647735596">
        <ele>1538.246826171875</ele>
        <time>2008-07-20T13:02:19Z</time>
      </trkpt>
      <trkpt lat="46.09065055847168" lon="9.085800647735596">
        <ele>1538.246826171875</ele>
        <time>2008-07-20T13:02:22Z</time>
      </trkpt>
      <trkpt lat="46.090478897094727" lon="9.085907936096191">
        <ele>1538.7275390625</ele>
        <time>2008-07-20T13:02:32Z</time>
      </trkpt>
      <trkpt lat="46.090478897094727" lon="9.085907936096191">
        <ele>1538.246826171875</ele>
        <time>2008-07-20T13:02:38Z</time>
      </trkpt>
      <trkpt lat="46.090435981750488" lon="9.08595085144043">
        <ele>1539.2080078125</ele>
        <time>2008-07-20T13:02:47Z</time>
      </trkpt>
      <trkpt lat="46.090350151062012" lon="9.085993766784668">
        <ele>1539.688720703125</ele>
        <time>2008-07-20T13:02:56Z</time>
      </trkpt>
      <trkpt lat="46.090242862701416" lon="9.086058139801025">
        <ele>1540.64990234375</ele>
        <time>2008-07-20T13:03:07Z</time>
      </trkpt>
      <trkpt lat="46.090199947357178" lon="9.086143970489502">
        <ele>1542.092041015625</ele>
        <time>2008-07-20T13:03:17Z</time>
      </trkpt>
      <trkpt lat="46.090157032012939" lon="9.086229801177979">
        <ele>1544.0146484375</ele>
        <time>2008-07-20T13:03:26Z</time>
      </trkpt>
      <trkpt lat="46.090092658996582" lon="9.086315631866455">
        <ele>1544.975830078125</ele>
        <time>2008-07-20T13:03:36Z</time>
      </trkpt>
      <trkpt lat="46.090049743652344" lon="9.086422920227051">
        <ele>1545.937255859375</ele>
        <time>2008-07-20T13:03:46Z</time>
      </trkpt>
      <trkpt lat="46.090006828308105" lon="9.086487293243408">
        <ele>1545.937255859375</ele>
        <time>2008-07-20T13:03:54Z</time>
      </trkpt>
      <trkpt lat="46.089920997619629" lon="9.086551666259766">
        <ele>1545.937255859375</ele>
        <time>2008-07-20T13:03:59Z</time>
      </trkpt>
      <trkpt lat="46.089792251586914" lon="9.086616039276123">
        <ele>1544.975830078125</ele>
        <time>2008-07-20T13:04:05Z</time>
      </trkpt>
      <trkpt lat="46.089684963226318" lon="9.086723327636719">
        <ele>1545.937255859375</ele>
        <time>2008-07-20T13:04:13Z</time>
      </trkpt>
      <trkpt lat="46.089556217193604" lon="9.086852073669434">
        <ele>1544.975830078125</ele>
        <time>2008-07-20T13:04:22Z</time>
      </trkpt>
      <trkpt lat="46.089448928833008" lon="9.087023735046387">
        <ele>1542.57275390625</ele>
        <time>2008-07-20T13:04:28Z</time>
      </trkpt>
      <trkpt lat="46.089363098144531" lon="9.087238311767578">
        <ele>1540.16943359375</ele>
        <time>2008-07-20T13:04:35Z</time>
      </trkpt>
      <trkpt lat="46.089277267456055" lon="9.087517261505127">
        <ele>1540.64990234375</ele>
        <time>2008-07-20T13:04:42Z</time>
      </trkpt>
      <trkpt lat="46.089255809783936" lon="9.087710380554199">
        <ele>1541.611328125</ele>
        <time>2008-07-20T13:04:50Z</time>
      </trkpt>
      <trkpt lat="46.089191436767578" lon="9.087967872619629">
        <ele>1542.57275390625</ele>
        <time>2008-07-20T13:05:00Z</time>
      </trkpt>
      <trkpt lat="46.089169979095459" lon="9.088053703308106">
        <ele>1543.05322265625</ele>
        <time>2008-07-20T13:05:07Z</time>
      </trkpt>
      <trkpt lat="46.089169979095459" lon="9.088118076324463">
        <ele>1541.611328125</ele>
        <time>2008-07-20T13:05:15Z</time>
      </trkpt>
      <trkpt lat="46.08914852142334" lon="9.088118076324463">
        <ele>1542.092041015625</ele>
        <time>2008-07-20T13:05:24Z</time>
      </trkpt>
      <trkpt lat="46.089019775390625" lon="9.088118076324463">
        <ele>1543.05322265625</ele>
        <time>2008-07-20T13:05:37Z</time>
      </trkpt>
      <trkpt lat="46.088976860046387" lon="9.088118076324463">
        <ele>1543.05322265625</ele>
        <time>2008-07-20T13:05:44Z</time>
      </trkpt>
      <trkpt lat="46.088848114013672" lon="9.088096618652344">
        <ele>1544.975830078125</ele>
        <time>2008-07-20T13:05:57Z</time>
      </trkpt>
      <trkpt lat="46.088762283325195" lon="9.088096618652344">
        <ele>1545.937255859375</ele>
        <time>2008-07-20T13:06:05Z</time>
      </trkpt>
      <trkpt lat="46.0886549949646" lon="9.088160991668701">
        <ele>1547.379150390625</ele>
        <time>2008-07-20T13:06:18Z</time>
      </trkpt>
      <trkpt lat="46.088547706604004" lon="9.08820390701294">
        <ele>1548.340576171875</ele>
        <time>2008-07-20T13:06:26Z</time>
      </trkpt>
      <trkpt lat="46.08839750289917" lon="9.088332653045654">
        <ele>1549.302001953125</ele>
        <time>2008-07-20T13:06:36Z</time>
      </trkpt>
      <trkpt lat="46.088247299194336" lon="9.088461399078369">
        <ele>1550.743896484375</ele>
        <time>2008-07-20T13:06:47Z</time>
      </trkpt>
      <trkpt lat="46.08814001083374" lon="9.088525772094727">
        <ele>1553.147216796875</ele>
        <time>2008-07-20T13:06:55Z</time>
      </trkpt>
      <trkpt lat="46.087968349456787" lon="9.088633060455322">
        <ele>1555.06982421875</ele>
        <time>2008-07-20T13:07:05Z</time>
      </trkpt>
      <trkpt lat="46.087839603424072" lon="9.08869743347168">
        <ele>1555.550537109375</ele>
        <time>2008-07-20T13:07:14Z</time>
      </trkpt>
      <trkpt lat="46.087710857391357" lon="9.088804721832275">
        <ele>1556.031005859375</ele>
        <time>2008-07-20T13:07:23Z</time>
      </trkpt>
      <trkpt lat="46.087603569030762" lon="9.088976383209229">
        <ele>1556.51171875</ele>
        <time>2008-07-20T13:07:32Z</time>
      </trkpt>
      <trkpt lat="46.087496280670166" lon="9.089148044586182">
        <ele>1556.992431640625</ele>
        <time>2008-07-20T13:07:43Z</time>
      </trkpt>
      <trkpt lat="46.087410449981689" lon="9.089384078979492">
        <ele>1556.031005859375</ele>
        <time>2008-07-20T13:07:55Z</time>
      </trkpt>
      <trkpt lat="46.087410449981689" lon="9.089384078979492">
        <ele>1556.51171875</ele>
        <time>2008-07-20T13:08:01Z</time>
      </trkpt>
      <trkpt lat="46.087410449981689" lon="9.089405536651611">
        <ele>1557.47314453125</ele>
        <time>2008-07-20T13:08:55Z</time>
      </trkpt>
      <trkpt lat="46.087346076965332" lon="9.089534282684326">
        <ele>1556.031005859375</ele>
        <time>2008-07-20T13:09:01Z</time>
      </trkpt>
      <trkpt lat="46.087260246276855" lon="9.089577198028565">
        <ele>1555.06982421875</ele>
        <time>2008-07-20T13:09:05Z</time>
      </trkpt>
      <trkpt lat="46.087110042572021" lon="9.089512825012207">
        <ele>1553.147216796875</ele>
        <time>2008-07-20T13:09:13Z</time>
      </trkpt>
      <trkpt lat="46.087024211883545" lon="9.089469909667969">
        <ele>1553.147216796875</ele>
        <time>2008-07-20T13:09:18Z</time>
      </trkpt>
      <trkpt lat="46.087002754211426" lon="9.089469909667969">
        <ele>1552.185791015625</ele>
        <time>2008-07-20T13:09:46Z</time>
      </trkpt>
      <trkpt lat="46.086874008178711" lon="9.08944845199585">
        <ele>1551.705322265625</ele>
        <time>2008-07-20T13:09:51Z</time>
      </trkpt>
      <trkpt lat="46.08665943145752" lon="9.089405536651611">
        <ele>1550.743896484375</ele>
        <time>2008-07-20T13:09:58Z</time>
      </trkpt>
      <trkpt lat="46.086595058441162" lon="9.089426994323731">
        <ele>1550.743896484375</ele>
        <time>2008-07-20T13:10:03Z</time>
      </trkpt>
      <trkpt lat="46.086573600769043" lon="9.08944845199585">
        <ele>1550.743896484375</ele>
        <time>2008-07-20T13:10:05Z</time>
      </trkpt>
      <trkpt lat="46.086552143096924" lon="9.089534282684326">
        <ele>1551.224609375</ele>
        <time>2008-07-20T13:10:13Z</time>
      </trkpt>
      <trkpt lat="46.086552143096924" lon="9.089534282684326">
        <ele>1546.41796875</ele>
        <time>2008-07-20T13:10:27Z</time>
      </trkpt>
      <trkpt lat="46.086530685424805" lon="9.089555740356445">
        <ele>1541.130615234375</ele>
        <time>2008-07-20T13:17:26Z</time>
      </trkpt>
      <trkpt lat="46.086487770080566" lon="9.089512825012207">
        <ele>1541.611328125</ele>
        <time>2008-07-20T13:17:30Z</time>
      </trkpt>
      <trkpt lat="46.086337566375732" lon="9.089491367340088">
        <ele>1539.2080078125</ele>
        <time>2008-07-20T13:17:37Z</time>
      </trkpt>
      <trkpt lat="46.086187362670898" lon="9.089362621307373">
        <ele>1538.246826171875</ele>
        <time>2008-07-20T13:17:44Z</time>
      </trkpt>
      <trkpt lat="46.086122989654541" lon="9.089276790618897">
        <ele>1537.76611328125</ele>
        <time>2008-07-20T13:17:49Z</time>
      </trkpt>
      <trkpt lat="46.086037158966064" lon="9.089212417602539">
        <ele>1537.285400390625</ele>
        <time>2008-07-20T13:17:54Z</time>
      </trkpt>
      <trkpt lat="46.085951328277588" lon="9.089126586914063">
        <ele>1535.843505859375</ele>
        <time>2008-07-20T13:17:58Z</time>
      </trkpt>
      <trkpt lat="46.085951328277588" lon="9.089062213897705">
        <ele>1535.36279296875</ele>
        <time>2008-07-20T13:18:01Z</time>
      </trkpt>
      <trkpt lat="46.085994243621826" lon="9.089083671569824">
        <ele>1535.36279296875</ele>
        <time>2008-07-20T13:18:04Z</time>
      </trkpt>
      <trkpt lat="46.086080074310303" lon="9.089062213897705">
        <ele>1534.401611328125</ele>
        <time>2008-07-20T13:18:09Z</time>
      </trkpt>
      <trkpt lat="46.086251735687256" lon="9.088997840881348">
        <ele>1532.47900390625</ele>
        <time>2008-07-20T13:18:17Z</time>
      </trkpt>
      <trkpt lat="46.086359024047852" lon="9.088804721832275">
        <ele>1531.036865234375</ele>
        <time>2008-07-20T13:18:25Z</time>
      </trkpt>
      <trkpt lat="46.086487770080566" lon="9.088525772094727">
        <ele>1526.7109375</ele>
        <time>2008-07-20T13:18:32Z</time>
      </trkpt>
      <trkpt lat="46.086573600769043" lon="9.088246822357178">
        <ele>1522.385009765625</ele>
        <time>2008-07-20T13:18:39Z</time>
      </trkpt>
      <trkpt lat="46.086723804473877" lon="9.088139533996582">
        <ele>1518.539794921875</ele>
        <time>2008-07-20T13:18:45Z</time>
      </trkpt>
      <trkpt lat="46.086723804473877" lon="9.088010787963867">
        <ele>1516.136474609375</ele>
        <time>2008-07-20T13:18:50Z</time>
      </trkpt>
      <trkpt lat="46.086573600769043" lon="9.08768892288208">
        <ele>1509.8876953125</ele>
        <time>2008-07-20T13:18:59Z</time>
      </trkpt>
      <trkpt lat="46.086487770080566" lon="9.087603092193604">
        <ele>1508.44580078125</ele>
        <time>2008-07-20T13:19:02Z</time>
      </trkpt>
      <trkpt lat="46.086423397064209" lon="9.087603092193604">
        <ele>1507.484619140625</ele>
        <time>2008-07-20T13:19:04Z</time>
      </trkpt>
      <trkpt lat="46.086380481719971" lon="9.087538719177246">
        <ele>1507.00390625</ele>
        <time>2008-07-20T13:19:08Z</time>
      </trkpt>
      <trkpt lat="46.08640193939209" lon="9.087495803833008">
        <ele>1506.04248046875</ele>
        <time>2008-07-20T13:19:10Z</time>
      </trkpt>
      <trkpt lat="46.086444854736328" lon="9.08743143081665">
        <ele>1505.081298828125</ele>
        <time>2008-07-20T13:19:12Z</time>
      </trkpt>
      <trkpt lat="46.086702346801758" lon="9.087388515472412">
        <ele>1500.75537109375</ele>
        <time>2008-07-20T13:19:19Z</time>
      </trkpt>
      <trkpt lat="46.086788177490234" lon="9.087388515472412">
        <ele>1498.83251953125</ele>
        <time>2008-07-20T13:19:21Z</time>
      </trkpt>
      <trkpt lat="46.086852550506592" lon="9.08743143081665">
        <ele>1497.390625</ele>
        <time>2008-07-20T13:19:24Z</time>
      </trkpt>
      <trkpt lat="46.08689546585083" lon="9.087324142456055">
        <ele>1494.9873046875</ele>
        <time>2008-07-20T13:19:29Z</time>
      </trkpt>
      <trkpt lat="46.086809635162354" lon="9.08719539642334">
        <ele>1492.584228515625</ele>
        <time>2008-07-20T13:19:32Z</time>
      </trkpt>
      <trkpt lat="46.086509227752686" lon="9.086873531341553">
        <ele>1485.85498046875</ele>
        <time>2008-07-20T13:19:41Z</time>
      </trkpt>
      <trkpt lat="46.086530685424805" lon="9.086723327636719">
        <ele>1483.93212890625</ele>
        <time>2008-07-20T13:19:45Z</time>
      </trkpt>
      <trkpt lat="46.086573600769043" lon="9.086680412292481">
        <ele>1482.490234375</ele>
        <time>2008-07-20T13:19:46Z</time>
      </trkpt>
      <trkpt lat="46.086723804473877" lon="9.086551666259766">
        <ele>1480.567626953125</ele>
        <time>2008-07-20T13:19:49Z</time>
      </trkpt>
      <trkpt lat="46.086788177490234" lon="9.086294174194336">
        <ele>1478.64501953125</ele>
        <time>2008-07-20T13:19:53Z</time>
      </trkpt>
      <trkpt lat="46.086723804473877" lon="9.08618688583374">
        <ele>1476.722412109375</ele>
        <time>2008-07-20T13:19:55Z</time>
      </trkpt>
      <trkpt lat="46.086487770080566" lon="9.086036682128906">
        <ele>1473.83837890625</ele>
        <time>2008-07-20T13:19:59Z</time>
      </trkpt>
      <trkpt lat="46.086359024047852" lon="9.086015224456787">
        <ele>1471.915771484375</ele>
        <time>2008-07-20T13:20:01Z</time>
      </trkpt>
      <trkpt lat="46.08614444732666" lon="9.086101055145264">
        <ele>1469.9931640625</ele>
        <time>2008-07-20T13:20:06Z</time>
      </trkpt>
      <trkpt lat="46.086058616638184" lon="9.08618688583374">
        <ele>1469.5126953125</ele>
        <time>2008-07-20T13:20:09Z</time>
      </trkpt>
      <trkpt lat="46.086101531982422" lon="9.086101055145264">
        <ele>1468.070556640625</ele>
        <time>2008-07-20T13:20:15Z</time>
      </trkpt>
      <trkpt lat="46.08614444732666" lon="9.086015224456787">
        <ele>1467.109130859375</ele>
        <time>2008-07-20T13:20:19Z</time>
      </trkpt>
      <trkpt lat="46.086251735687256" lon="9.085736274719238">
        <ele>1462.783203125</ele>
        <time>2008-07-20T13:20:29Z</time>
      </trkpt>
      <trkpt lat="46.086509227752686" lon="9.085521697998047">
        <ele>1460.860595703125</ele>
        <time>2008-07-20T13:20:38Z</time>
      </trkpt>
      <trkpt lat="46.086616516113281" lon="9.085478782653809">
        <ele>1460.860595703125</ele>
        <time>2008-07-20T13:20:41Z</time>
      </trkpt>
      <trkpt lat="46.086788177490234" lon="9.085500240325928">
        <ele>1460.3798828125</ele>
        <time>2008-07-20T13:20:45Z</time>
      </trkpt>
      <trkpt lat="46.086938381195068" lon="9.085628986358643">
        <ele>1457.49609375</ele>
        <time>2008-07-20T13:20:49Z</time>
      </trkpt>
      <trkpt lat="46.087088584899902" lon="9.085907936096191">
        <ele>1454.131591796875</ele>
        <time>2008-07-20T13:20:55Z</time>
      </trkpt>
      <trkpt lat="46.087195873260498" lon="9.085714817047119">
        <ele>1453.170166015625</ele>
        <time>2008-07-20T13:21:00Z</time>
      </trkpt>
      <trkpt lat="46.087217330932617" lon="9.085650444030762">
        <ele>1452.689453125</ele>
        <time>2008-07-20T13:21:01Z</time>
      </trkpt>
      <trkpt lat="46.087367534637451" lon="9.085500240325928">
        <ele>1450.2861328125</ele>
        <time>2008-07-20T13:21:05Z</time>
      </trkpt>
      <trkpt lat="46.087517738342285" lon="9.085564613342285">
        <ele>1448.36328125</ele>
        <time>2008-07-20T13:21:09Z</time>
      </trkpt>
      <trkpt lat="46.087517738342285" lon="9.08545732498169">
        <ele>1447.8828125</ele>
        <time>2008-07-20T13:21:11Z</time>
      </trkpt>
      <trkpt lat="46.087517738342285" lon="9.085114002227783">
        <ele>1445.4794921875</ele>
        <time>2008-07-20T13:21:16Z</time>
      </trkpt>
      <trkpt lat="46.087667942047119" lon="9.084792137145996">
        <ele>1445.4794921875</ele>
        <time>2008-07-20T13:21:22Z</time>
      </trkpt>
      <trkpt lat="46.087710857391357" lon="9.084749221801758">
        <ele>1444.998779296875</ele>
        <time>2008-07-20T13:21:24Z</time>
      </trkpt>
      <trkpt lat="46.087946891784668" lon="9.084599018096924">
        <ele>1443.076171875</ele>
        <time>2008-07-20T13:21:32Z</time>
      </trkpt>
      <trkpt lat="46.088161468505859" lon="9.084513187408447">
        <ele>1441.63427734375</ele>
        <time>2008-07-20T13:21:37Z</time>
      </trkpt>
      <trkpt lat="46.088268756866455" lon="9.084405899047852">
        <ele>1441.153564453125</ele>
        <time>2008-07-20T13:21:42Z</time>
      </trkpt>
      <trkpt lat="46.088311672210693" lon="9.084341526031494">
        <ele>1440.1923828125</ele>
        <time>2008-07-20T13:21:51Z</time>
      </trkpt>
      <trkpt lat="46.088311672210693" lon="9.084320068359375">
        <ele>1441.63427734375</ele>
        <time>2008-07-20T13:22:14Z</time>
      </trkpt>
      <trkpt lat="46.088311672210693" lon="9.084320068359375">
        <ele>1440.6728515625</ele>
        <time>2008-07-20T13:23:06Z</time>
      </trkpt>
      <trkpt lat="46.088333129882813" lon="9.084320068359375">
        <ele>1440.6728515625</ele>
        <time>2008-07-20T13:23:14Z</time>
      </trkpt>
      <trkpt lat="46.088418960571289" lon="9.084212779998779">
        <ele>1441.153564453125</ele>
        <time>2008-07-20T13:23:21Z</time>
      </trkpt>
      <trkpt lat="46.088440418243408" lon="9.084169864654541">
        <ele>1441.153564453125</ele>
        <time>2008-07-20T13:23:24Z</time>
      </trkpt>
      <trkpt lat="46.088526248931885" lon="9.084041118621826">
        <ele>1441.153564453125</ele>
        <time>2008-07-20T13:23:34Z</time>
      </trkpt>
      <trkpt lat="46.088526248931885" lon="9.084019660949707">
        <ele>1441.63427734375</ele>
        <time>2008-07-20T13:23:35Z</time>
      </trkpt>
      <trkpt lat="46.088612079620361" lon="9.08395528793335">
        <ele>1441.63427734375</ele>
        <time>2008-07-20T13:23:41Z</time>
      </trkpt>
      <trkpt lat="46.088719367980957" lon="9.083847999572754">
        <ele>1443.076171875</ele>
        <time>2008-07-20T13:23:49Z</time>
      </trkpt>
      <trkpt lat="46.088848114013672" lon="9.083676338195801">
        <ele>1443.556884765625</ele>
        <time>2008-07-20T13:23:58Z</time>
      </trkpt>
      <trkpt lat="46.088998317718506" lon="9.083504676818848">
        <ele>1444.998779296875</ele>
        <time>2008-07-20T13:24:09Z</time>
      </trkpt>
      <trkpt lat="46.089105606079102" lon="9.083397388458252">
        <ele>1445.960205078125</ele>
        <time>2008-07-20T13:24:16Z</time>
      </trkpt>
      <trkpt lat="46.089255809783936" lon="9.083247184753418">
        <ele>1446.92138671875</ele>
        <time>2008-07-20T13:24:26Z</time>
      </trkpt>
      <trkpt lat="46.08940601348877" lon="9.083139896392822">
        <ele>1447.402099609375</ele>
        <time>2008-07-20T13:24:36Z</time>
      </trkpt>
      <trkpt lat="46.089534759521484" lon="9.083096981048584">
        <ele>1447.8828125</ele>
        <time>2008-07-20T13:24:45Z</time>
      </trkpt>
      <trkpt lat="46.089706420898437" lon="9.083161354064941">
        <ele>1446.44091796875</ele>
        <time>2008-07-20T13:24:55Z</time>
      </trkpt>
      <trkpt lat="46.089878082275391" lon="9.083247184753418">
        <ele>1445.4794921875</ele>
        <time>2008-07-20T13:25:06Z</time>
      </trkpt>
      <trkpt lat="46.089942455291748" lon="9.08344030380249">
        <ele>1445.960205078125</ele>
        <time>2008-07-20T13:25:13Z</time>
      </trkpt>
      <trkpt lat="46.090092658996582" lon="9.083762168884277">
        <ele>1445.4794921875</ele>
        <time>2008-07-20T13:25:24Z</time>
      </trkpt>
      <trkpt lat="46.09013557434082" lon="9.083783626556397">
        <ele>1444.03759765625</ele>
        <time>2008-07-20T13:25:31Z</time>
      </trkpt>
      <trkpt lat="46.090157032012939" lon="9.083740711212158">
        <ele>1444.03759765625</ele>
        <time>2008-07-20T13:25:35Z</time>
      </trkpt>
      <trkpt lat="46.090157032012939" lon="9.083676338195801">
        <ele>1451.247314453125</ele>
        <time>2008-07-20T13:25:43Z</time>
      </trkpt>
      <trkpt lat="46.09013557434082" lon="9.083547592163086">
        <ele>1448.36328125</ele>
        <time>2008-07-20T13:25:51Z</time>
      </trkpt>
      <trkpt lat="46.090199947357178" lon="9.083418846130371">
        <ele>1448.36328125</ele>
        <time>2008-07-20T13:26:02Z</time>
      </trkpt>
      <trkpt lat="46.090264320373535" lon="9.083354473114014">
        <ele>1448.36328125</ele>
        <time>2008-07-20T13:26:10Z</time>
      </trkpt>
      <trkpt lat="46.090328693389893" lon="9.08320426940918">
        <ele>1452.689453125</ele>
        <time>2008-07-20T13:26:24Z</time>
      </trkpt>
      <trkpt lat="46.090500354766846" lon="9.083118438720703">
        <ele>1451.247314453125</ele>
        <time>2008-07-20T13:26:44Z</time>
      </trkpt>
      <trkpt lat="46.090629100799561" lon="9.083054065704346">
        <ele>1450.7666015625</ele>
        <time>2008-07-20T13:26:58Z</time>
      </trkpt>
      <trkpt lat="46.09065055847168" lon="9.083054065704346">
        <ele>1451.247314453125</ele>
        <time>2008-07-20T13:27:07Z</time>
      </trkpt>
      <trkpt lat="46.090736389160156" lon="9.083075523376465">
        <ele>1448.843994140625</ele>
        <time>2008-07-20T13:27:36Z</time>
      </trkpt>
      <trkpt lat="46.090843677520752" lon="9.083054065704346">
        <ele>1449.32470703125</ele>
        <time>2008-07-20T13:27:45Z</time>
      </trkpt>
      <trkpt lat="46.090972423553467" lon="9.082968235015869">
        <ele>1452.208740234375</ele>
        <time>2008-07-20T13:27:59Z</time>
      </trkpt>
      <trkpt lat="46.091058254241943" lon="9.082796573638916">
        <ele>1456.053955078125</ele>
        <time>2008-07-20T13:28:14Z</time>
      </trkpt>
      <trkpt lat="46.091122627258301" lon="9.082753658294678">
        <ele>1458.93798828125</ele>
        <time>2008-07-20T13:28:25Z</time>
      </trkpt>
      <trkpt lat="46.091208457946777" lon="9.082753658294678">
        <ele>1460.860595703125</ele>
        <time>2008-07-20T13:28:35Z</time>
      </trkpt>
      <trkpt lat="46.091337203979492" lon="9.082753658294678">
        <ele>1460.860595703125</ele>
        <time>2008-07-20T13:28:50Z</time>
      </trkpt>
      <trkpt lat="46.091423034667969" lon="9.082753658294678">
        <ele>1460.860595703125</ele>
        <time>2008-07-20T13:29:01Z</time>
      </trkpt>
      <trkpt lat="46.091487407684326" lon="9.082667827606201">
        <ele>1463.744384765625</ele>
        <time>2008-07-20T13:29:11Z</time>
      </trkpt>
      <trkpt lat="46.091573238372803" lon="9.082560539245606">
        <ele>1466.147705078125</ele>
        <time>2008-07-20T13:29:27Z</time>
      </trkpt>
      <trkpt lat="46.091680526733398" lon="9.082474708557129">
        <ele>1466.62841796875</ele>
        <time>2008-07-20T13:29:43Z</time>
      </trkpt>
      <trkpt lat="46.091809272766113" lon="9.082345962524414">
        <ele>1472.396484375</ele>
        <time>2008-07-20T13:29:58Z</time>
      </trkpt>
      <trkpt lat="46.091916561126709" lon="9.082260131835938">
        <ele>1476.24169921875</ele>
        <time>2008-07-20T13:30:11Z</time>
      </trkpt>
      <trkpt lat="46.092066764831543" lon="9.082217216491699">
        <ele>1475.2802734375</ele>
        <time>2008-07-20T13:30:25Z</time>
      </trkpt>
      <trkpt lat="46.092195510864258" lon="9.082260131835938">
        <ele>1474.319091796875</ele>
        <time>2008-07-20T13:30:38Z</time>
      </trkpt>
      <trkpt lat="46.092302799224854" lon="9.082367420196533">
        <ele>1472.396484375</ele>
        <time>2008-07-20T13:30:50Z</time>
      </trkpt>
      <trkpt lat="46.092453002929688" lon="9.082517623901367">
        <ele>1471.915771484375</ele>
        <time>2008-07-20T13:31:05Z</time>
      </trkpt>
      <trkpt lat="46.09264612197876" lon="9.082624912261963">
        <ele>1471.915771484375</ele>
        <time>2008-07-20T13:31:19Z</time>
      </trkpt>
      <trkpt lat="46.092710494995117" lon="9.082646369934082">
        <ele>1471.915771484375</ele>
        <time>2008-07-20T13:31:25Z</time>
      </trkpt>
      <trkpt lat="46.092774868011475" lon="9.082624912261963">
        <ele>1472.877197265625</ele>
        <time>2008-07-20T13:31:34Z</time>
      </trkpt>
      <trkpt lat="46.092817783355713" lon="9.082517623901367">
        <ele>1475.2802734375</ele>
        <time>2008-07-20T13:31:44Z</time>
      </trkpt>
      <trkpt lat="46.092817783355713" lon="9.082474708557129">
        <ele>1475.760986328125</ele>
        <time>2008-07-20T13:31:47Z</time>
      </trkpt>
      <trkpt lat="46.092860698699951" lon="9.082345962524414">
        <ele>1476.24169921875</ele>
        <time>2008-07-20T13:31:59Z</time>
      </trkpt>
      <trkpt lat="46.09288215637207" lon="9.08219575881958">
        <ele>1477.68359375</ele>
        <time>2008-07-20T13:32:10Z</time>
      </trkpt>
      <trkpt lat="46.092903614044189" lon="9.081981182098389">
        <ele>1479.606201171875</ele>
        <time>2008-07-20T13:32:23Z</time>
      </trkpt>
      <trkpt lat="46.092903614044189" lon="9.081809520721436">
        <ele>1481.04833984375</ele>
        <time>2008-07-20T13:32:34Z</time>
      </trkpt>
      <trkpt lat="46.092946529388428" lon="9.081637859344482">
        <ele>1481.52880859375</ele>
        <time>2008-07-20T13:32:46Z</time>
      </trkpt>
      <trkpt lat="46.092967987060547" lon="9.081594944000244">
        <ele>1482.009521484375</ele>
        <time>2008-07-20T13:32:51Z</time>
      </trkpt>
      <trkpt lat="46.093053817749023" lon="9.081487655639648">
        <ele>1483.93212890625</ele>
        <time>2008-07-20T13:33:02Z</time>
      </trkpt>
      <trkpt lat="46.093118190765381" lon="9.081401824951172">
        <ele>1485.85498046875</ele>
        <time>2008-07-20T13:33:13Z</time>
      </trkpt>
      <trkpt lat="46.093225479125977" lon="9.081315994262695">
        <ele>1486.816162109375</ele>
        <time>2008-07-20T13:33:25Z</time>
      </trkpt>
      <trkpt lat="46.093375682830811" lon="9.081230163574219">
        <ele>1487.777587890625</ele>
        <time>2008-07-20T13:33:34Z</time>
      </trkpt>
      <trkpt lat="46.093461513519287" lon="9.081122875213623">
        <ele>1487.777587890625</ele>
        <time>2008-07-20T13:33:39Z</time>
      </trkpt>
      <trkpt lat="46.093461513519287" lon="9.081101417541504">
        <ele>1487.296875</ele>
        <time>2008-07-20T13:33:44Z</time>
      </trkpt>
      <trkpt lat="46.093504428863525" lon="9.081079959869385">
        <ele>1489.219482421875</ele>
        <time>2008-07-20T13:34:06Z</time>
      </trkpt>
      <trkpt lat="46.093504428863525" lon="9.081058502197266">
        <ele>1488.25830078125</ele>
        <time>2008-07-20T13:34:13Z</time>
      </trkpt>
      <trkpt lat="46.093590259552002" lon="9.080994129180908">
        <ele>1490.180908203125</ele>
        <time>2008-07-20T13:34:24Z</time>
      </trkpt>
      <trkpt lat="46.093611717224121" lon="9.080908298492432">
        <ele>1489.7001953125</ele>
        <time>2008-07-20T13:34:32Z</time>
      </trkpt>
      <trkpt lat="46.093611717224121" lon="9.080801010131836">
        <ele>1486.816162109375</ele>
        <time>2008-07-20T13:34:42Z</time>
      </trkpt>
      <trkpt lat="46.093590259552002" lon="9.080758094787598">
        <ele>1486.335693359375</ele>
        <time>2008-07-20T13:34:45Z</time>
      </trkpt>
      <trkpt lat="46.093590259552002" lon="9.080586433410645">
        <ele>1484.893798828125</ele>
        <time>2008-07-20T13:34:55Z</time>
      </trkpt>
      <trkpt lat="46.093590259552002" lon="9.080350399017334">
        <ele>1482.970703125</ele>
        <time>2008-07-20T13:35:01Z</time>
      </trkpt>
      <trkpt lat="46.093697547912598" lon="9.080092906951904">
        <ele>1481.04833984375</ele>
        <time>2008-07-20T13:35:07Z</time>
      </trkpt>
      <trkpt lat="46.093847751617432" lon="9.079878330230713">
        <ele>1479.12548828125</ele>
        <time>2008-07-20T13:35:14Z</time>
      </trkpt>
      <trkpt lat="46.094019412994385" lon="9.079556465148926">
        <ele>1477.68359375</ele>
        <time>2008-07-20T13:35:23Z</time>
      </trkpt>
      <trkpt lat="46.0941481590271" lon="9.079320430755615">
        <ele>1475.2802734375</ele>
        <time>2008-07-20T13:35:29Z</time>
      </trkpt>
      <trkpt lat="46.094169616699219" lon="9.079234600067139">
        <ele>1474.319091796875</ele>
        <time>2008-07-20T13:35:31Z</time>
      </trkpt>
      <trkpt lat="46.09438419342041" lon="9.078934192657471">
        <ele>1472.396484375</ele>
        <time>2008-07-20T13:35:38Z</time>
      </trkpt>
      <trkpt lat="46.094491481781006" lon="9.078869819641113">
        <ele>1471.43505859375</ele>
        <time>2008-07-20T13:35:41Z</time>
      </trkpt>
      <trkpt lat="46.094834804534912" lon="9.07869815826416">
        <ele>1469.5126953125</ele>
        <time>2008-07-20T13:35:49Z</time>
      </trkpt>
      <trkpt lat="46.09489917755127" lon="9.078676700592041">
        <ele>1469.5126953125</ele>
        <time>2008-07-20T13:35:55Z</time>
      </trkpt>
      <trkpt lat="46.094920635223389" lon="9.078655242919922">
        <ele>1468.55126953125</ele>
        <time>2008-07-20T13:36:02Z</time>
      </trkpt>
      <trkpt lat="46.094942092895508" lon="9.078633785247803">
        <ele>1468.070556640625</ele>
        <time>2008-07-20T13:36:08Z</time>
      </trkpt>
      <trkpt lat="46.094942092895508" lon="9.078612327575684">
        <ele>1467.589599609375</ele>
        <time>2008-07-20T13:36:10Z</time>
      </trkpt>
      <trkpt lat="46.094942092895508" lon="9.078526496887207">
        <ele>1467.109130859375</ele>
        <time>2008-07-20T13:36:19Z</time>
      </trkpt>
      <trkpt lat="46.094963550567627" lon="9.07846212387085">
        <ele>1466.147705078125</ele>
        <time>2008-07-20T13:36:26Z</time>
      </trkpt>
      <trkpt lat="46.095006465911865" lon="9.078354835510254">
        <ele>1464.22509765625</ele>
        <time>2008-07-20T13:36:37Z</time>
      </trkpt>
      <trkpt lat="46.094985008239746" lon="9.078333377838135">
        <ele>1464.22509765625</ele>
        <time>2008-07-20T13:36:40Z</time>
      </trkpt>
      <trkpt lat="46.094985008239746" lon="9.078226089477539">
        <ele>1463.263916015625</ele>
        <time>2008-07-20T13:36:44Z</time>
      </trkpt>
      <trkpt lat="46.094920635223389" lon="9.077882766723633">
        <ele>1463.744384765625</ele>
        <time>2008-07-20T13:36:54Z</time>
      </trkpt>
      <trkpt lat="46.094791889190674" lon="9.077582359313965">
        <ele>1461.822021484375</ele>
        <time>2008-07-20T13:37:01Z</time>
      </trkpt>
      <trkpt lat="46.094791889190674" lon="9.077539443969727">
        <ele>1461.34130859375</ele>
        <time>2008-07-20T13:37:02Z</time>
      </trkpt>
      <trkpt lat="46.094706058502197" lon="9.077260494232178">
        <ele>1457.49609375</ele>
        <time>2008-07-20T13:37:09Z</time>
      </trkpt>
      <trkpt lat="46.094727516174316" lon="9.077110290527344">
        <ele>1454.612060546875</ele>
        <time>2008-07-20T13:37:14Z</time>
      </trkpt>
      <trkpt lat="46.094834804534912" lon="9.076938629150391">
        <ele>1450.2861328125</ele>
        <time>2008-07-20T13:37:22Z</time>
      </trkpt>
      <trkpt lat="46.09489917755127" lon="9.07670259475708">
        <ele>1444.51806640625</ele>
        <time>2008-07-20T13:37:32Z</time>
      </trkpt>
      <trkpt lat="46.094985008239746" lon="9.076530933380127">
        <ele>1444.03759765625</ele>
        <time>2008-07-20T13:37:41Z</time>
      </trkpt>
      <trkpt lat="46.094920635223389" lon="9.076316356658936">
        <ele>1444.51806640625</ele>
        <time>2008-07-20T13:37:49Z</time>
      </trkpt>
      <trkpt lat="46.09489917755127" lon="9.076273441314697">
        <ele>1444.998779296875</ele>
        <time>2008-07-20T13:37:54Z</time>
      </trkpt>
      <trkpt lat="46.09489917755127" lon="9.076166152954102">
        <ele>1443.556884765625</ele>
        <time>2008-07-20T13:38:04Z</time>
      </trkpt>
      <trkpt lat="46.09487771987915" lon="9.076123237609863">
        <ele>1442.114990234375</ele>
        <time>2008-07-20T13:38:13Z</time>
      </trkpt>
      <trkpt lat="46.09489917755127" lon="9.076101779937744">
        <ele>1441.63427734375</ele>
        <time>2008-07-20T13:38:21Z</time>
      </trkpt>
      <trkpt lat="46.09489917755127" lon="9.076058864593506">
        <ele>1440.6728515625</ele>
        <time>2008-07-20T13:38:25Z</time>
      </trkpt>
      <trkpt lat="46.09487771987915" lon="9.075822830200195">
        <ele>1438.75048828125</ele>
        <time>2008-07-20T13:38:33Z</time>
      </trkpt>
      <trkpt lat="46.09489917755127" lon="9.075350761413574">
        <ele>1436.34716796875</ele>
        <time>2008-07-20T13:38:41Z</time>
      </trkpt>
      <trkpt lat="46.094942092895508" lon="9.075071811676025">
        <ele>1433.943603515625</ele>
        <time>2008-07-20T13:38:47Z</time>
      </trkpt>
      <trkpt lat="46.094985008239746" lon="9.074814319610596">
        <ele>1430.098388671875</ele>
        <time>2008-07-20T13:38:53Z</time>
      </trkpt>
      <trkpt lat="46.095006465911865" lon="9.074578285217285">
        <ele>1425.7724609375</ele>
        <time>2008-07-20T13:38:59Z</time>
      </trkpt>
      <trkpt lat="46.095113754272461" lon="9.074342250823975">
        <ele>1422.888671875</ele>
        <time>2008-07-20T13:39:05Z</time>
      </trkpt>
      <trkpt lat="46.095263957977295" lon="9.074149131774902">
        <ele>1421.92724609375</ele>
        <time>2008-07-20T13:39:12Z</time>
      </trkpt>
      <trkpt lat="46.095242500305176" lon="9.074041843414307">
        <ele>1421.446533203125</ele>
        <time>2008-07-20T13:39:16Z</time>
      </trkpt>
      <trkpt lat="46.095199584960938" lon="9.073762893676758">
        <ele>1417.60107421875</ele>
        <time>2008-07-20T13:39:23Z</time>
      </trkpt>
      <trkpt lat="46.095199584960938" lon="9.073655605316162">
        <ele>1415.197998046875</ele>
        <time>2008-07-20T13:39:26Z</time>
      </trkpt>
      <trkpt lat="46.095263957977295" lon="9.073355197906494">
        <ele>1409.43017578125</ele>
        <time>2008-07-20T13:39:34Z</time>
      </trkpt>
      <trkpt lat="46.095349788665771" lon="9.07320499420166">
        <ele>1407.02685546875</ele>
        <time>2008-07-20T13:39:39Z</time>
      </trkpt>
      <trkpt lat="46.095371246337891" lon="9.073011875152588">
        <ele>1404.14306640625</ele>
        <time>2008-07-20T13:39:47Z</time>
      </trkpt>
      <trkpt lat="46.095371246337891" lon="9.07296895980835">
        <ele>1403.662109375</ele>
        <time>2008-07-20T13:39:54Z</time>
      </trkpt>
      <trkpt lat="46.095371246337891" lon="9.072926044464111">
        <ele>1403.181396484375</ele>
        <time>2008-07-20T13:39:57Z</time>
      </trkpt>
      <trkpt lat="46.095371246337891" lon="9.072818756103516">
        <ele>1401.739501953125</ele>
        <time>2008-07-20T13:40:08Z</time>
      </trkpt>
      <trkpt lat="46.095371246337891" lon="9.07271146774292">
        <ele>1399.81689453125</ele>
        <time>2008-07-20T13:40:19Z</time>
      </trkpt>
      <trkpt lat="46.095371246337891" lon="9.072625637054443">
        <ele>1397.894287109375</ele>
        <time>2008-07-20T13:40:27Z</time>
      </trkpt>
      <trkpt lat="46.095371246337891" lon="9.072539806365967">
        <ele>1395.9716796875</ele>
        <time>2008-07-20T13:40:35Z</time>
      </trkpt>
      <trkpt lat="46.095349788665771" lon="9.072475433349609">
        <ele>1394.049072265625</ele>
        <time>2008-07-20T13:40:44Z</time>
      </trkpt>
      <trkpt lat="46.095328330993652" lon="9.072432518005371">
        <ele>1393.087646484375</ele>
        <time>2008-07-20T13:40:58Z</time>
      </trkpt>
      <trkpt lat="46.095306873321533" lon="9.072389602661133">
        <ele>1390.203857421875</ele>
        <time>2008-07-20T13:41:08Z</time>
      </trkpt>
      <trkpt lat="46.095285415649414" lon="9.072346687316895">
        <ele>1389.72314453125</ele>
        <time>2008-07-20T13:41:15Z</time>
      </trkpt>
      <trkpt lat="46.095285415649414" lon="9.072303771972656">
        <ele>1389.242431640625</ele>
        <time>2008-07-20T13:41:24Z</time>
      </trkpt>
      <trkpt lat="46.095285415649414" lon="9.072282314300537">
        <ele>1389.242431640625</ele>
        <time>2008-07-20T13:41:36Z</time>
      </trkpt>
      <trkpt lat="46.095263957977295" lon="9.072239398956299">
        <ele>1387.80029296875</ele>
        <time>2008-07-20T13:41:45Z</time>
      </trkpt>
      <trkpt lat="46.095263957977295" lon="9.072175025939941">
        <ele>1386.8388671875</ele>
        <time>2008-07-20T13:41:56Z</time>
      </trkpt>
      <trkpt lat="46.095263957977295" lon="9.072067737579346">
        <ele>1385.39697265625</ele>
        <time>2008-07-20T13:42:06Z</time>
      </trkpt>
      <trkpt lat="46.095263957977295" lon="9.071938991546631">
        <ele>1383.955078125</ele>
        <time>2008-07-20T13:42:18Z</time>
      </trkpt>
      <trkpt lat="46.095263957977295" lon="9.071810245513916">
        <ele>1382.51318359375</ele>
        <time>2008-07-20T13:42:28Z</time>
      </trkpt>
      <trkpt lat="46.095242500305176" lon="9.07172441482544">
        <ele>1381.5517578125</ele>
        <time>2008-07-20T13:42:37Z</time>
      </trkpt>
      <trkpt lat="46.095221042633057" lon="9.071595668792725">
        <ele>1380.10986328125</ele>
        <time>2008-07-20T13:42:48Z</time>
      </trkpt>
      <trkpt lat="46.095221042633057" lon="9.071488380432129">
        <ele>1378.66796875</ele>
        <time>2008-07-20T13:42:59Z</time>
      </trkpt>
      <trkpt lat="46.095199584960938" lon="9.071402549743652">
        <ele>1377.70654296875</ele>
        <time>2008-07-20T13:43:08Z</time>
      </trkpt>
      <trkpt lat="46.095199584960938" lon="9.071402549743652">
        <ele>1378.187255859375</ele>
        <time>2008-07-20T13:43:16Z</time>
      </trkpt>
      <trkpt lat="46.095178127288818" lon="9.071359634399414">
        <ele>1377.70654296875</ele>
        <time>2008-07-20T13:43:27Z</time>
      </trkpt>
      <trkpt lat="46.095156669616699" lon="9.071359634399414">
        <ele>1376.745361328125</ele>
        <time>2008-07-20T13:43:35Z</time>
      </trkpt>
      <trkpt lat="46.09513521194458" lon="9.071445465087891">
        <ele>1374.82275390625</ele>
        <time>2008-07-20T13:43:46Z</time>
      </trkpt>
      <trkpt lat="46.095113754272461" lon="9.071531295776367">
        <ele>1373.380859375</ele>
        <time>2008-07-20T13:43:56Z</time>
      </trkpt>
      <trkpt lat="46.095092296600342" lon="9.071574211120606">
        <ele>1372.41943359375</ele>
        <time>2008-07-20T13:44:03Z</time>
      </trkpt>
      <trkpt lat="46.095070838928223" lon="9.071595668792725">
        <ele>1370.977294921875</ele>
        <time>2008-07-20T13:44:09Z</time>
      </trkpt>
      <trkpt lat="46.095070838928223" lon="9.071617126464844">
        <ele>1370.015869140625</ele>
        <time>2008-07-20T13:44:16Z</time>
      </trkpt>
      <trkpt lat="46.095049381256104" lon="9.071617126464844">
        <ele>1369.535400390625</ele>
        <time>2008-07-20T13:44:17Z</time>
      </trkpt>
      <trkpt lat="46.094963550567627" lon="9.071788787841797">
        <ele>1365.690185546875</ele>
        <time>2008-07-20T13:44:26Z</time>
      </trkpt>
      <trkpt lat="46.09487771987915" lon="9.071938991546631">
        <ele>1362.325439453125</ele>
        <time>2008-07-20T13:44:33Z</time>
      </trkpt>
      <trkpt lat="46.094770431518555" lon="9.072089195251465">
        <ele>1358.9609375</ele>
        <time>2008-07-20T13:44:41Z</time>
      </trkpt>
      <trkpt lat="46.094684600830078" lon="9.072196483612061">
        <ele>1356.5576171875</ele>
        <time>2008-07-20T13:44:48Z</time>
      </trkpt>
      <trkpt lat="46.094663143157959" lon="9.07221794128418">
        <ele>1356.076904296875</ele>
        <time>2008-07-20T13:44:53Z</time>
      </trkpt>
      <trkpt lat="46.094663143157959" lon="9.07221794128418">
        <ele>1357.038330078125</ele>
        <time>2008-07-20T13:45:21Z</time>
      </trkpt>
      <trkpt lat="46.094663143157959" lon="9.07221794128418">
        <ele>1356.076904296875</ele>
        <time>2008-07-20T13:45:34Z</time>
      </trkpt>
      <trkpt lat="46.09464168548584" lon="9.072260856628418">
        <ele>1355.59619140625</ele>
        <time>2008-07-20T13:45:55Z</time>
      </trkpt>
      <trkpt lat="46.094598770141602" lon="9.072346687316895">
        <ele>1354.154296875</ele>
        <time>2008-07-20T13:46:04Z</time>
      </trkpt>
      <trkpt lat="46.094512939453125" lon="9.072411060333252">
        <ele>1352.712158203125</ele>
        <time>2008-07-20T13:46:16Z</time>
      </trkpt>
      <trkpt lat="46.094448566436768" lon="9.07245397567749">
        <ele>1351.270263671875</ele>
        <time>2008-07-20T13:46:25Z</time>
      </trkpt>
      <trkpt lat="46.094405651092529" lon="9.072432518005371">
        <ele>1350.78955078125</ele>
        <time>2008-07-20T13:46:32Z</time>
      </trkpt>
      <trkpt lat="46.094405651092529" lon="9.072411060333252">
        <ele>1349.828369140625</ele>
        <time>2008-07-20T13:46:34Z</time>
      </trkpt>
      <trkpt lat="46.094405651092529" lon="9.072303771972656">
        <ele>1348.38623046875</ele>
        <time>2008-07-20T13:46:44Z</time>
      </trkpt>
      <trkpt lat="46.094405651092529" lon="9.072260856628418">
        <ele>1346.9443359375</ele>
        <time>2008-07-20T13:46:53Z</time>
      </trkpt>
      <trkpt lat="46.094427108764648" lon="9.07221794128418">
        <ele>1344.541015625</ele>
        <time>2008-07-20T13:47:02Z</time>
      </trkpt>
      <trkpt lat="46.094405651092529" lon="9.072153568267822">
        <ele>1343.09912109375</ele>
        <time>2008-07-20T13:47:10Z</time>
      </trkpt>
      <trkpt lat="46.094405651092529" lon="9.072003364562988">
        <ele>1341.176513671875</ele>
        <time>2008-07-20T13:47:20Z</time>
      </trkpt>
      <trkpt lat="46.094405651092529" lon="9.071896076202393">
        <ele>1339.734375</ele>
        <time>2008-07-20T13:47:29Z</time>
      </trkpt>
      <trkpt lat="46.09438419342041" lon="9.071810245513916">
        <ele>1338.29248046875</ele>
        <time>2008-07-20T13:47:38Z</time>
      </trkpt>
      <trkpt lat="46.09438419342041" lon="9.07172441482544">
        <ele>1336.850341796875</ele>
        <time>2008-07-20T13:47:47Z</time>
      </trkpt>
      <trkpt lat="46.094362735748291" lon="9.071638584136963">
        <ele>1334.927978515625</ele>
        <time>2008-07-20T13:47:56Z</time>
      </trkpt>
      <trkpt lat="46.094362735748291" lon="9.071531295776367">
        <ele>1333.966552734375</ele>
        <time>2008-07-20T13:48:05Z</time>
      </trkpt>
      <trkpt lat="46.094341278076172" lon="9.071424007415772">
        <ele>1331.563232421875</ele>
        <time>2008-07-20T13:48:15Z</time>
      </trkpt>
      <trkpt lat="46.094341278076172" lon="9.071338176727295">
        <ele>1329.640625</ele>
        <time>2008-07-20T13:48:24Z</time>
      </trkpt>
      <trkpt lat="46.094341278076172" lon="9.071230888366699">
        <ele>1328.679443359375</ele>
        <time>2008-07-20T13:48:33Z</time>
      </trkpt>
      <trkpt lat="46.094298362731934" lon="9.071145057678223">
        <ele>1327.237548828125</ele>
        <time>2008-07-20T13:48:42Z</time>
      </trkpt>
      <trkpt lat="46.094298362731934" lon="9.071037769317627">
        <ele>1326.276123046875</ele>
        <time>2008-07-20T13:48:52Z</time>
      </trkpt>
      <trkpt lat="46.094276905059814" lon="9.070994853973389">
        <ele>1325.314697265625</ele>
        <time>2008-07-20T13:48:55Z</time>
      </trkpt>
      <trkpt lat="46.094276905059814" lon="9.07095193862915">
        <ele>1323.87255859375</ele>
        <time>2008-07-20T13:49:03Z</time>
      </trkpt>
      <trkpt lat="46.094276905059814" lon="9.070887565612793">
        <ele>1323.87255859375</ele>
        <time>2008-07-20T13:49:10Z</time>
      </trkpt>
      <trkpt lat="46.094276905059814" lon="9.070823192596436">
        <ele>1323.39208984375</ele>
        <time>2008-07-20T13:49:14Z</time>
      </trkpt>
      <trkpt lat="46.094298362731934" lon="9.07071590423584">
        <ele>1321.949951171875</ele>
        <time>2008-07-20T13:49:22Z</time>
      </trkpt>
      <trkpt lat="46.094319820404053" lon="9.070630073547363">
        <ele>1321.46923828125</ele>
        <time>2008-07-20T13:49:31Z</time>
      </trkpt>
      <trkpt lat="46.094319820404053" lon="9.070565700531006">
        <ele>1321.46923828125</ele>
        <time>2008-07-20T13:49:40Z</time>
      </trkpt>
      <trkpt lat="46.094341278076172" lon="9.070436954498291">
        <ele>1320.508056640625</ele>
        <time>2008-07-20T13:49:50Z</time>
      </trkpt>
      <trkpt lat="46.09438419342041" lon="9.070329666137695">
        <ele>1320.508056640625</ele>
        <time>2008-07-20T13:49:59Z</time>
      </trkpt>
      <trkpt lat="46.09438419342041" lon="9.070265293121338">
        <ele>1320.508056640625</ele>
        <time>2008-07-20T13:50:04Z</time>
      </trkpt>
      <trkpt lat="46.094427108764648" lon="9.070200920104981">
        <ele>1319.546875</ele>
        <time>2008-07-20T13:50:14Z</time>
      </trkpt>
      <trkpt lat="46.094448566436768" lon="9.070136547088623">
        <ele>1318.104736328125</ele>
        <time>2008-07-20T13:50:22Z</time>
      </trkpt>
      <trkpt lat="46.094448566436768" lon="9.070072174072266">
        <ele>1316.18212890625</ele>
        <time>2008-07-20T13:50:29Z</time>
      </trkpt>
      <trkpt lat="46.094427108764648" lon="9.070029258728027">
        <ele>1314.740234375</ele>
        <time>2008-07-20T13:50:38Z</time>
      </trkpt>
      <trkpt lat="46.094448566436768" lon="9.070007801055908">
        <ele>1313.29833984375</ele>
        <time>2008-07-20T13:50:45Z</time>
      </trkpt>
      <trkpt lat="46.094470024108887" lon="9.069986343383789">
        <ele>1311.8564453125</ele>
        <time>2008-07-20T13:50:52Z</time>
      </trkpt>
      <trkpt lat="46.094512939453125" lon="9.06996488571167">
        <ele>1309.93359375</ele>
        <time>2008-07-20T13:51:00Z</time>
      </trkpt>
      <trkpt lat="46.094512939453125" lon="9.069943428039551">
        <ele>1308.972412109375</ele>
        <time>2008-07-20T13:51:06Z</time>
      </trkpt>
      <trkpt lat="46.094512939453125" lon="9.069900512695313">
        <ele>1306.56884765625</ele>
        <time>2008-07-20T13:51:17Z</time>
      </trkpt>
      <trkpt lat="46.094512939453125" lon="9.069836139678955">
        <ele>1304.165771484375</ele>
        <time>2008-07-20T13:51:28Z</time>
      </trkpt>
      <trkpt lat="46.094534397125244" lon="9.069771766662598">
        <ele>1301.28173828125</ele>
        <time>2008-07-20T13:51:39Z</time>
      </trkpt>
      <trkpt lat="46.094577312469482" lon="9.069685935974121">
        <ele>1298.87841796875</ele>
        <time>2008-07-20T13:51:49Z</time>
      </trkpt>
      <trkpt lat="46.094598770141602" lon="9.069643020629883">
        <ele>1296.955810546875</ele>
        <time>2008-07-20T13:52:00Z</time>
      </trkpt>
      <trkpt lat="46.094598770141602" lon="9.069578647613525">
        <ele>1294.072021484375</ele>
        <time>2008-07-20T13:52:10Z</time>
      </trkpt>
      <trkpt lat="46.094577312469482" lon="9.069535732269287">
        <ele>1293.110595703125</ele>
        <time>2008-07-20T13:52:18Z</time>
      </trkpt>
      <trkpt lat="46.094577312469482" lon="9.069428443908691">
        <ele>1290.2265625</ele>
        <time>2008-07-20T13:52:28Z</time>
      </trkpt>
      <trkpt lat="46.094577312469482" lon="9.069342613220215">
        <ele>1287.342529296875</ele>
        <time>2008-07-20T13:52:39Z</time>
      </trkpt>
      <trkpt lat="46.094555854797363" lon="9.069278240203857">
        <ele>1285.900634765625</ele>
        <time>2008-07-20T13:52:48Z</time>
      </trkpt>
      <trkpt lat="46.094491481781006" lon="9.069192409515381">
        <ele>1283.0166015625</ele>
        <time>2008-07-20T13:52:58Z</time>
      </trkpt>
      <trkpt lat="46.094448566436768" lon="9.069128036499023">
        <ele>1280.613525390625</ele>
        <time>2008-07-20T13:53:10Z</time>
      </trkpt>
      <trkpt lat="46.094448566436768" lon="9.069085121154785">
        <ele>1279.17138671875</ele>
        <time>2008-07-20T13:53:15Z</time>
      </trkpt>
      <trkpt lat="46.09438419342041" lon="9.069063663482666">
        <ele>1277.7294921875</ele>
        <time>2008-07-20T13:53:25Z</time>
      </trkpt>
      <trkpt lat="46.094319820404053" lon="9.069085121154785">
        <ele>1276.28759765625</ele>
        <time>2008-07-20T13:53:37Z</time>
      </trkpt>
      <trkpt lat="46.094276905059814" lon="9.069042205810547">
        <ele>1274.845458984375</ele>
        <time>2008-07-20T13:53:46Z</time>
      </trkpt>
      <trkpt lat="46.094319820404053" lon="9.069020748138428">
        <ele>1274.36474609375</ele>
        <time>2008-07-20T13:53:57Z</time>
      </trkpt>
      <trkpt lat="46.094319820404053" lon="9.068999290466309">
        <ele>1273.884033203125</ele>
        <time>2008-07-20T13:54:05Z</time>
      </trkpt>
      <trkpt lat="46.094341278076172" lon="9.068934917449951">
        <ele>1271.480712890625</ele>
        <time>2008-07-20T13:54:14Z</time>
      </trkpt>
      <trkpt lat="46.09438419342041" lon="9.068870544433594">
        <ele>1270.51953125</ele>
        <time>2008-07-20T13:54:22Z</time>
      </trkpt>
      <trkpt lat="46.094427108764648" lon="9.068806171417236">
        <ele>1269.07763671875</ele>
        <time>2008-07-20T13:54:31Z</time>
      </trkpt>
      <trkpt lat="46.094427108764648" lon="9.068763256072998">
        <ele>1268.1162109375</ele>
        <time>2008-07-20T13:54:38Z</time>
      </trkpt>
      <trkpt lat="46.094427108764648" lon="9.068698883056641">
        <ele>1266.193603515625</ele>
        <time>2008-07-20T13:54:46Z</time>
      </trkpt>
      <trkpt lat="46.09438419342041" lon="9.068677425384522">
        <ele>1264.751708984375</ele>
        <time>2008-07-20T13:54:54Z</time>
      </trkpt>
      <trkpt lat="46.094341278076172" lon="9.068655967712402">
        <ele>1263.309814453125</ele>
        <time>2008-07-20T13:55:03Z</time>
      </trkpt>
      <trkpt lat="46.094298362731934" lon="9.068655967712402">
        <ele>1262.348388671875</ele>
        <time>2008-07-20T13:55:12Z</time>
      </trkpt>
      <trkpt lat="46.094212532043457" lon="9.068634510040283">
        <ele>1259.94482421875</ele>
        <time>2008-07-20T13:55:22Z</time>
      </trkpt>
      <trkpt lat="46.094169616699219" lon="9.068613052368164">
        <ele>1258.5029296875</ele>
        <time>2008-07-20T13:55:29Z</time>
      </trkpt>
      <trkpt lat="46.094105243682861" lon="9.068613052368164">
        <ele>1257.06103515625</ele>
        <time>2008-07-20T13:55:39Z</time>
      </trkpt>
      <trkpt lat="46.094062328338623" lon="9.068591594696045">
        <ele>1255.619140625</ele>
        <time>2008-07-20T13:55:48Z</time>
      </trkpt>
      <trkpt lat="46.094040870666504" lon="9.068591594696045">
        <ele>1255.138427734375</ele>
        <time>2008-07-20T13:55:56Z</time>
      </trkpt>
      <trkpt lat="46.093955039978027" lon="9.068613052368164">
        <ele>1253.696533203125</ele>
        <time>2008-07-20T13:56:06Z</time>
      </trkpt>
      <trkpt lat="46.093912124633789" lon="9.068613052368164">
        <ele>1253.2158203125</ele>
        <time>2008-07-20T13:56:15Z</time>
      </trkpt>
      <trkpt lat="46.093912124633789" lon="9.068591594696045">
        <ele>1248.4091796875</ele>
        <time>2008-07-20T13:57:33Z</time>
      </trkpt>
      <trkpt lat="46.093912124633789" lon="9.068570137023926">
        <ele>1248.4091796875</ele>
        <time>2008-07-20T13:57:42Z</time>
      </trkpt>
      <trkpt lat="46.093955039978027" lon="9.06846284866333">
        <ele>1245.525390625</ele>
        <time>2008-07-20T13:57:47Z</time>
      </trkpt>
      <trkpt lat="46.094105243682861" lon="9.068183898925781">
        <ele>1240.238037109375</ele>
        <time>2008-07-20T13:57:53Z</time>
      </trkpt>
      <trkpt lat="46.094276905059814" lon="9.067840576171875">
        <ele>1234.950927734375</ele>
        <time>2008-07-20T13:57:59Z</time>
      </trkpt>
      <trkpt lat="46.094427108764648" lon="9.067561626434326">
        <ele>1230.144287109375</ele>
        <time>2008-07-20T13:58:07Z</time>
      </trkpt>
      <trkpt lat="46.094470024108887" lon="9.067497253417969">
        <ele>1229.66357421875</ele>
        <time>2008-07-20T13:58:12Z</time>
      </trkpt>
      <trkpt lat="46.094491481781006" lon="9.06747579574585">
        <ele>1229.182861328125</ele>
        <time>2008-07-20T13:58:31Z</time>
      </trkpt>
      <trkpt lat="46.094555854797363" lon="9.067389965057373">
        <ele>1229.182861328125</ele>
        <time>2008-07-20T13:58:42Z</time>
      </trkpt>
      <trkpt lat="46.094577312469482" lon="9.067347049713135">
        <ele>1229.182861328125</ele>
        <time>2008-07-20T13:58:48Z</time>
      </trkpt>
      <trkpt lat="46.094620227813721" lon="9.067304134368897">
        <ele>1229.66357421875</ele>
        <time>2008-07-20T13:59:03Z</time>
      </trkpt>
      <trkpt lat="46.094663143157959" lon="9.06721830368042">
        <ele>1227.26025390625</ele>
        <time>2008-07-20T13:59:12Z</time>
      </trkpt>
      <trkpt lat="46.094663143157959" lon="9.067132472991943">
        <ele>1224.85693359375</ele>
        <time>2008-07-20T13:59:20Z</time>
      </trkpt>
      <trkpt lat="46.094663143157959" lon="9.067025184631348">
        <ele>1221.01171875</ele>
        <time>2008-07-20T13:59:32Z</time>
      </trkpt>
      <trkpt lat="46.09464168548584" lon="9.066939353942871">
        <ele>1219.089111328125</ele>
        <time>2008-07-20T13:59:42Z</time>
      </trkpt>
      <trkpt lat="46.094620227813721" lon="9.066853523254395">
        <ele>1217.16650390625</ele>
        <time>2008-07-20T13:59:51Z</time>
      </trkpt>
      <trkpt lat="46.094620227813721" lon="9.066853523254395">
        <ele>1217.16650390625</ele>
        <time>2008-07-20T13:59:53Z</time>
      </trkpt>
      <trkpt lat="46.094577312469482" lon="9.066660404205322">
        <ele>1211.879150390625</ele>
        <time>2008-07-20T13:59:59Z</time>
      </trkpt>
      <trkpt lat="46.094534397125244" lon="9.066402912139893">
        <ele>1206.111083984375</ele>
        <time>2008-07-20T14:00:06Z</time>
      </trkpt>
      <trkpt lat="46.094512939453125" lon="9.06623125076294">
        <ele>1201.785400390625</ele>
        <time>2008-07-20T14:00:12Z</time>
      </trkpt>
      <trkpt lat="46.094512939453125" lon="9.066145420074463">
        <ele>1199.382080078125</ele>
        <time>2008-07-20T14:00:19Z</time>
      </trkpt>
      <trkpt lat="46.094512939453125" lon="9.066081047058106">
        <ele>1196.498291015625</ele>
        <time>2008-07-20T14:00:30Z</time>
      </trkpt>
      <trkpt lat="46.094491481781006" lon="9.066038131713867">
        <ele>1196.017578125</ele>
        <time>2008-07-20T14:00:40Z</time>
      </trkpt>
      <trkpt lat="46.094491481781006" lon="9.065952301025391">
        <ele>1192.65283203125</ele>
        <time>2008-07-20T14:00:49Z</time>
      </trkpt>
      <trkpt lat="46.094470024108887" lon="9.065845012664795">
        <ele>1189.2880859375</ele>
        <time>2008-07-20T14:00:59Z</time>
      </trkpt>
      <trkpt lat="46.094470024108887" lon="9.065759181976318">
        <ele>1186.404296875</ele>
        <time>2008-07-20T14:01:08Z</time>
      </trkpt>
      <trkpt lat="46.094491481781006" lon="9.065673351287842">
        <ele>1183.520263671875</ele>
        <time>2008-07-20T14:01:19Z</time>
      </trkpt>
      <trkpt lat="46.094491481781006" lon="9.065566062927246">
        <ele>1181.1171875</ele>
        <time>2008-07-20T14:01:28Z</time>
      </trkpt>
      <trkpt lat="46.094491481781006" lon="9.065544605255127">
        <ele>1180.636474609375</ele>
        <time>2008-07-20T14:01:29Z</time>
      </trkpt>
      <trkpt lat="46.094512939453125" lon="9.065415859222412">
        <ele>1177.752197265625</ele>
        <time>2008-07-20T14:01:34Z</time>
      </trkpt>
      <trkpt lat="46.094555854797363" lon="9.065308570861816">
        <ele>1175.82958984375</ele>
        <time>2008-07-20T14:01:38Z</time>
      </trkpt>
      <trkpt lat="46.094577312469482" lon="9.065051078796387">
        <ele>1170.061767578125</ele>
        <time>2008-07-20T14:01:46Z</time>
      </trkpt>
      <trkpt lat="46.094577312469482" lon="9.064922332763672">
        <ele>1167.658447265625</ele>
        <time>2008-07-20T14:01:53Z</time>
      </trkpt>
      <trkpt lat="46.094555854797363" lon="9.064793586730957">
        <ele>1163.33251953125</ele>
        <time>2008-07-20T14:01:59Z</time>
      </trkpt>
      <trkpt lat="46.094555854797363" lon="9.064772129058838">
        <ele>1162.37109375</ele>
        <time>2008-07-20T14:02:00Z</time>
      </trkpt>
      <trkpt lat="46.094555854797363" lon="9.064514636993408">
        <ele>1154.2001953125</ele>
        <time>2008-07-20T14:02:08Z</time>
      </trkpt>
      <trkpt lat="46.094555854797363" lon="9.064321517944336">
        <ele>1150.83544921875</ele>
        <time>2008-07-20T14:02:13Z</time>
      </trkpt>
      <trkpt lat="46.094512939453125" lon="9.064257144927979">
        <ele>1149.3935546875</ele>
        <time>2008-07-20T14:02:17Z</time>
      </trkpt>
      <trkpt lat="46.094470024108887" lon="9.064235687255859">
        <ele>1148.43212890625</ele>
        <time>2008-07-20T14:02:23Z</time>
      </trkpt>
      <trkpt lat="46.094491481781006" lon="9.064192771911621">
        <ele>1147.470703125</ele>
        <time>2008-07-20T14:02:30Z</time>
      </trkpt>
      <trkpt lat="46.094512939453125" lon="9.064128398895264">
        <ele>1145.548095703125</ele>
        <time>2008-07-20T14:02:39Z</time>
      </trkpt>
      <trkpt lat="46.094534397125244" lon="9.064064025878906">
        <ele>1144.586669921875</ele>
        <time>2008-07-20T14:02:49Z</time>
      </trkpt>
      <trkpt lat="46.094555854797363" lon="9.06397819519043">
        <ele>1143.144775390625</ele>
        <time>2008-07-20T14:03:01Z</time>
      </trkpt>
      <trkpt lat="46.094577312469482" lon="9.063913822174072">
        <ele>1139.299560546875</ele>
        <time>2008-07-20T14:03:12Z</time>
      </trkpt>
      <trkpt lat="46.094555854797363" lon="9.063827991485596">
        <ele>1136.896240234375</ele>
        <time>2008-07-20T14:03:21Z</time>
      </trkpt>
      <trkpt lat="46.094555854797363" lon="9.063742160797119">
        <ele>1133.051025390625</ele>
        <time>2008-07-20T14:03:32Z</time>
      </trkpt>
      <trkpt lat="46.094555854797363" lon="9.063699245452881">
        <ele>1130.1669921875</ele>
        <time>2008-07-20T14:03:40Z</time>
      </trkpt>
      <trkpt lat="46.094534397125244" lon="9.063677787780762">
        <ele>1130.1669921875</ele>
        <time>2008-07-20T14:03:48Z</time>
      </trkpt>
      <trkpt lat="46.094534397125244" lon="9.063634872436523">
        <ele>1128.244384765625</ele>
        <time>2008-07-20T14:03:57Z</time>
      </trkpt>
      <trkpt lat="46.094512939453125" lon="9.063613414764404">
        <ele>1127.283203125</ele>
        <time>2008-07-20T14:04:06Z</time>
      </trkpt>
      <trkpt lat="46.094512939453125" lon="9.063570499420166">
        <ele>1124.399169921875</ele>
        <time>2008-07-20T14:04:16Z</time>
      </trkpt>
      <trkpt lat="46.094534397125244" lon="9.063506126403809">
        <ele>1121.995849609375</ele>
        <time>2008-07-20T14:04:24Z</time>
      </trkpt>
      <trkpt lat="46.094491481781006" lon="9.06346321105957">
        <ele>1120.553955078125</ele>
        <time>2008-07-20T14:04:32Z</time>
      </trkpt>
      <trkpt lat="46.094470024108887" lon="9.063398838043213">
        <ele>1117.189453125</ele>
        <time>2008-07-20T14:04:43Z</time>
      </trkpt>
      <trkpt lat="46.094470024108887" lon="9.063355922698975">
        <ele>1114.30517578125</ele>
        <time>2008-07-20T14:04:52Z</time>
      </trkpt>
      <trkpt lat="46.094448566436768" lon="9.063313007354736">
        <ele>1112.382568359375</ele>
        <time>2008-07-20T14:05:00Z</time>
      </trkpt>
      <trkpt lat="46.094448566436768" lon="9.063270092010498">
        <ele>1110.940673828125</ele>
        <time>2008-07-20T14:05:08Z</time>
      </trkpt>
      <trkpt lat="46.094427108764648" lon="9.063248634338379">
        <ele>1109.498779296875</ele>
        <time>2008-07-20T14:05:14Z</time>
      </trkpt>
      <trkpt lat="46.094427108764648" lon="9.063205718994141">
        <ele>1108.056884765625</ele>
        <time>2008-07-20T14:05:21Z</time>
      </trkpt>
      <trkpt lat="46.094427108764648" lon="9.063162803649902">
        <ele>1106.61474609375</ele>
        <time>2008-07-20T14:05:29Z</time>
      </trkpt>
      <trkpt lat="46.094448566436768" lon="9.063119888305664">
        <ele>1105.1728515625</ele>
        <time>2008-07-20T14:05:36Z</time>
      </trkpt>
      <trkpt lat="46.094470024108887" lon="9.063076972961426">
        <ele>1103.250244140625</ele>
        <time>2008-07-20T14:05:43Z</time>
      </trkpt>
      <trkpt lat="46.094427108764648" lon="9.063034057617188">
        <ele>1100.846923828125</ele>
        <time>2008-07-20T14:05:51Z</time>
      </trkpt>
      <trkpt lat="46.094405651092529" lon="9.062948226928711">
        <ele>1098.443359375</ele>
        <time>2008-07-20T14:06:00Z</time>
      </trkpt>
      <trkpt lat="46.094427108764648" lon="9.062840938568115">
        <ele>1094.59814453125</ele>
        <time>2008-07-20T14:06:13Z</time>
      </trkpt>
      <trkpt lat="46.094405651092529" lon="9.0627121925354">
        <ele>1090.7529296875</ele>
        <time>2008-07-20T14:06:25Z</time>
      </trkpt>
      <trkpt lat="46.09438419342041" lon="9.062626361846924">
        <ele>1088.83056640625</ele>
        <time>2008-07-20T14:06:34Z</time>
      </trkpt>
      <trkpt lat="46.094427108764648" lon="9.062604904174805">
        <ele>1087.388427734375</ele>
        <time>2008-07-20T14:06:41Z</time>
      </trkpt>
      <trkpt lat="46.094491481781006" lon="9.062561988830566">
        <ele>1084.504638671875</ele>
        <time>2008-07-20T14:06:50Z</time>
      </trkpt>
      <trkpt lat="46.094512939453125" lon="9.062540531158447">
        <ele>1083.062255859375</ele>
        <time>2008-07-20T14:06:57Z</time>
      </trkpt>
      <trkpt lat="46.094512939453125" lon="9.062497615814209">
        <ele>1081.620361328125</ele>
        <time>2008-07-20T14:07:04Z</time>
      </trkpt>
      <trkpt lat="46.094555854797363" lon="9.062497615814209">
        <ele>1080.178466796875</ele>
        <time>2008-07-20T14:07:10Z</time>
      </trkpt>
      <trkpt lat="46.094555854797363" lon="9.062497615814209">
        <ele>1080.178466796875</ele>
        <time>2008-07-20T14:07:11Z</time>
      </trkpt>
      <trkpt lat="46.094620227813721" lon="9.062497615814209">
        <ele>1078.255859375</ele>
        <time>2008-07-20T14:07:21Z</time>
      </trkpt>
      <trkpt lat="46.094684600830078" lon="9.062519073486328">
        <ele>1077.294677734375</ele>
        <time>2008-07-20T14:07:27Z</time>
      </trkpt>
      <trkpt lat="46.094748973846436" lon="9.062561988830566">
        <ele>1073.929931640625</ele>
        <time>2008-07-20T14:07:36Z</time>
      </trkpt>
      <trkpt lat="46.094834804534912" lon="9.062604904174805">
        <ele>1072.00732421875</ele>
        <time>2008-07-20T14:07:47Z</time>
      </trkpt>
      <trkpt lat="46.094920635223389" lon="9.062647819519043">
        <ele>1071.046142578125</ele>
        <time>2008-07-20T14:07:58Z</time>
      </trkpt>
      <trkpt lat="46.094963550567627" lon="9.062647819519043">
        <ele>1069.604248046875</ele>
        <time>2008-07-20T14:08:06Z</time>
      </trkpt>
      <trkpt lat="46.095027923583984" lon="9.062669277191162">
        <ele>1067.68115234375</ele>
        <time>2008-07-20T14:08:14Z</time>
      </trkpt>
      <trkpt lat="46.095049381256104" lon="9.062690734863281">
        <ele>1064.79736328125</ele>
        <time>2008-07-20T14:08:23Z</time>
      </trkpt>
      <trkpt lat="46.095092296600342" lon="9.062690734863281">
        <ele>1064.316650390625</ele>
        <time>2008-07-20T14:08:28Z</time>
      </trkpt>
      <trkpt lat="46.095113754272461" lon="9.062669277191162">
        <ele>1063.8359375</ele>
        <time>2008-07-20T14:08:30Z</time>
      </trkpt>
      <trkpt lat="46.095199584960938" lon="9.0627121925354">
        <ele>1063.8359375</ele>
        <time>2008-07-20T14:08:37Z</time>
      </trkpt>
      <trkpt lat="46.095263957977295" lon="9.0627121925354">
        <ele>1062.874755859375</ele>
        <time>2008-07-20T14:08:46Z</time>
      </trkpt>
      <trkpt lat="46.095306873321533" lon="9.0627121925354">
        <ele>1061.432861328125</ele>
        <time>2008-07-20T14:08:52Z</time>
      </trkpt>
      <trkpt lat="46.095349788665771" lon="9.06273365020752">
        <ele>1060.471435546875</ele>
        <time>2008-07-20T14:09:01Z</time>
      </trkpt>
      <trkpt lat="46.095414161682129" lon="9.06273365020752">
        <ele>1057.10693359375</ele>
        <time>2008-07-20T14:09:10Z</time>
      </trkpt>
      <trkpt lat="46.095435619354248" lon="9.062776565551758">
        <ele>1055.184326171875</ele>
        <time>2008-07-20T14:09:18Z</time>
      </trkpt>
      <trkpt lat="46.095542907714844" lon="9.062819480895996">
        <ele>1054.22314453125</ele>
        <time>2008-07-20T14:09:24Z</time>
      </trkpt>
      <trkpt lat="46.095650196075439" lon="9.06296968460083">
        <ele>1053.742431640625</ele>
        <time>2008-07-20T14:09:37Z</time>
      </trkpt>
      <trkpt lat="46.095650196075439" lon="9.063034057617188">
        <ele>1054.22314453125</ele>
        <time>2008-07-20T14:09:51Z</time>
      </trkpt>
      <trkpt lat="46.095650196075439" lon="9.063034057617188">
        <ele>1054.22314453125</ele>
        <time>2008-07-20T14:09:54Z</time>
      </trkpt>
      <trkpt lat="46.095693111419678" lon="9.063055515289307">
        <ele>1053.742431640625</ele>
        <time>2008-07-20T14:09:58Z</time>
      </trkpt>
      <trkpt lat="46.095671653747559" lon="9.063119888305664">
        <ele>1053.742431640625</ele>
        <time>2008-07-20T14:10:03Z</time>
      </trkpt>
      <trkpt lat="46.095736026763916" lon="9.063270092010498">
        <ele>1053.26171875</ele>
        <time>2008-07-20T14:10:11Z</time>
      </trkpt>
      <trkpt lat="46.095736026763916" lon="9.063313007354736">
        <ele>1051.819580078125</ele>
        <time>2008-07-20T14:10:17Z</time>
      </trkpt>
      <trkpt lat="46.095757484436035" lon="9.063313007354736">
        <ele>1050.858154296875</ele>
        <time>2008-07-20T14:10:28Z</time>
      </trkpt>
      <trkpt lat="46.095778942108154" lon="9.063291549682617">
        <ele>1047.974365234375</ele>
        <time>2008-07-20T14:10:40Z</time>
      </trkpt>
      <trkpt lat="46.095821857452393" lon="9.063398838043213">
        <ele>1044.609619140625</ele>
        <time>2008-07-20T14:10:54Z</time>
      </trkpt>
      <trkpt lat="46.095821857452393" lon="9.063441753387451">
        <ele>1044.129150390625</ele>
        <time>2008-07-20T14:11:01Z</time>
      </trkpt>
      <trkpt lat="46.095929145812988" lon="9.06348466873169">
        <ele>1043.167724609375</ele>
        <time>2008-07-20T14:11:18Z</time>
      </trkpt>
      <trkpt lat="46.095993518829346" lon="9.06348466873169">
        <ele>1040.764404296875</ele>
        <time>2008-07-20T14:11:30Z</time>
      </trkpt>
      <trkpt lat="46.096079349517822" lon="9.063549041748047">
        <ele>1039.80322265625</ele>
        <time>2008-07-20T14:11:47Z</time>
      </trkpt>
      <trkpt lat="46.096079349517822" lon="9.063634872436523">
        <ele>1041.2451171875</ele>
        <time>2008-07-20T14:12:00Z</time>
      </trkpt>
      <trkpt lat="46.09614372253418" lon="9.063763618469238">
        <ele>1014.328125</ele>
        <time>2008-07-20T14:17:52Z</time>
      </trkpt>
      <trkpt lat="46.096036434173584" lon="9.063892364501953">
        <ele>1022.49951171875</ele>
        <time>2008-07-20T14:18:19Z</time>
      </trkpt>
      <trkpt lat="46.096057891845703" lon="9.064021110534668">
        <ele>1022.49951171875</ele>
        <time>2008-07-20T14:18:24Z</time>
      </trkpt>
      <trkpt lat="46.096165180206299" lon="9.064171314239502">
        <ele>1022.980224609375</ele>
        <time>2008-07-20T14:18:29Z</time>
      </trkpt>
      <trkpt lat="46.096358299255371" lon="9.064128398895264">
        <ele>1023.4609375</ele>
        <time>2008-07-20T14:18:35Z</time>
      </trkpt>
      <trkpt lat="46.096529960632324" lon="9.063956737518311">
        <ele>1023.94140625</ele>
        <time>2008-07-20T14:18:42Z</time>
      </trkpt>
      <trkpt lat="46.096529960632324" lon="9.063742160797119">
        <ele>1024.90283203125</ele>
        <time>2008-07-20T14:18:46Z</time>
      </trkpt>
      <trkpt lat="46.096465587615967" lon="9.063184261322022">
        <ele>1026.825439453125</ele>
        <time>2008-07-20T14:18:57Z</time>
      </trkpt>
      <trkpt lat="46.096444129943848" lon="9.062755107879639">
        <ele>1027.30615234375</ele>
        <time>2008-07-20T14:19:05Z</time>
      </trkpt>
      <trkpt lat="46.09663724899292" lon="9.062561988830566">
        <ele>1027.78662109375</ele>
        <time>2008-07-20T14:19:11Z</time>
      </trkpt>
      <trkpt lat="46.096765995025635" lon="9.062433242797852">
        <ele>1028.748046875</ele>
        <time>2008-07-20T14:19:16Z</time>
      </trkpt>
      <trkpt lat="46.09689474105835" lon="9.062390327453613">
        <ele>1028.748046875</ele>
        <time>2008-07-20T14:19:19Z</time>
      </trkpt>
      <trkpt lat="46.097002029418945" lon="9.062197208404541">
        <ele>1026.825439453125</ele>
        <time>2008-07-20T14:19:24Z</time>
      </trkpt>
      <trkpt lat="46.097044944763184" lon="9.061832427978516">
        <ele>1028.267333984375</ele>
        <time>2008-07-20T14:19:32Z</time>
      </trkpt>
      <trkpt lat="46.097087860107422" lon="9.061403274536133">
        <ele>1031.1513671875</ele>
        <time>2008-07-20T14:19:42Z</time>
      </trkpt>
      <trkpt lat="46.097195148468018" lon="9.061167240142822">
        <ele>1032.59326171875</ele>
        <time>2008-07-20T14:19:51Z</time>
      </trkpt>
      <trkpt lat="46.097302436828613" lon="9.060931205749512">
        <ele>1034.515869140625</ele>
        <time>2008-07-20T14:20:02Z</time>
      </trkpt>
      <trkpt lat="46.097409725189209" lon="9.06073808670044">
        <ele>1039.322509765625</ele>
        <time>2008-07-20T14:20:13Z</time>
      </trkpt>
      <trkpt lat="46.097495555877686" lon="9.060566425323486">
        <ele>1043.167724609375</ele>
        <time>2008-07-20T14:20:22Z</time>
      </trkpt>
      <trkpt lat="46.097538471221924" lon="9.060502052307129">
        <ele>1043.6484375</ele>
        <time>2008-07-20T14:20:25Z</time>
      </trkpt>
      <trkpt lat="46.097559928894043" lon="9.06022310256958">
        <ele>1043.6484375</ele>
        <time>2008-07-20T14:20:36Z</time>
      </trkpt>
      <trkpt lat="46.097559928894043" lon="9.05996561050415">
        <ele>1042.687255859375</ele>
        <time>2008-07-20T14:20:46Z</time>
      </trkpt>
      <trkpt lat="46.097431182861328" lon="9.059836864471436">
        <ele>1042.687255859375</ele>
        <time>2008-07-20T14:20:55Z</time>
      </trkpt>
      <trkpt lat="46.097259521484375" lon="9.059858322143555">
        <ele>1042.687255859375</ele>
        <time>2008-07-20T14:21:05Z</time>
      </trkpt>
      <trkpt lat="46.097087860107422" lon="9.059836864471436">
        <ele>1042.20654296875</ele>
        <time>2008-07-20T14:21:16Z</time>
      </trkpt>
      <trkpt lat="46.096959114074707" lon="9.05972957611084">
        <ele>1041.2451171875</ele>
        <time>2008-07-20T14:21:26Z</time>
      </trkpt>
      <trkpt lat="46.09687328338623" lon="9.059579372406006">
        <ele>1044.129150390625</ele>
        <time>2008-07-20T14:21:37Z</time>
      </trkpt>
      <trkpt lat="46.09687328338623" lon="9.059557914733887">
        <ele>1045.09033203125</ele>
        <time>2008-07-20T14:21:39Z</time>
      </trkpt>
      <trkpt lat="46.096830368041992" lon="9.059407711029053">
        <ele>1047.49365234375</ele>
        <time>2008-07-20T14:21:51Z</time>
      </trkpt>
      <trkpt lat="46.096830368041992" lon="9.059193134307861">
        <ele>1049.89697265625</ele>
        <time>2008-07-20T14:22:03Z</time>
      </trkpt>
      <trkpt lat="46.09687328338623" lon="9.058871269226074">
        <ele>1049.89697265625</ele>
        <time>2008-07-20T14:22:13Z</time>
      </trkpt>
      <trkpt lat="46.09687328338623" lon="9.058442115783691">
        <ele>1049.89697265625</ele>
        <time>2008-07-20T14:22:23Z</time>
      </trkpt>
      <trkpt lat="46.096680164337158" lon="9.057862758636475">
        <ele>1049.416259765625</ele>
        <time>2008-07-20T14:22:31Z</time>
      </trkpt>
      <trkpt lat="46.096401214599609" lon="9.0572190284729">
        <ele>1048.454833984375</ele>
        <time>2008-07-20T14:22:37Z</time>
      </trkpt>
      <trkpt lat="46.095993518829346" lon="9.056532382965088">
        <ele>1047.974365234375</ele>
        <time>2008-07-20T14:22:44Z</time>
      </trkpt>
      <trkpt lat="46.095736026763916" lon="9.056274890899658">
        <ele>1047.974365234375</ele>
        <time>2008-07-20T14:22:47Z</time>
      </trkpt>
      <trkpt lat="46.09489917755127" lon="9.056081771850586">
        <ele>1047.974365234375</ele>
        <time>2008-07-20T14:22:53Z</time>
      </trkpt>
      <trkpt lat="46.093847751617432" lon="9.056425094604492">
        <ele>1047.49365234375</ele>
        <time>2008-07-20T14:22:57Z</time>
      </trkpt>
      <trkpt lat="46.093332767486572" lon="9.05648946762085">
        <ele>1046.532470703125</ele>
        <time>2008-07-20T14:23:01Z</time>
      </trkpt>
      <trkpt lat="46.09288215637207" lon="9.05648946762085">
        <ele>1044.609619140625</ele>
        <time>2008-07-20T14:23:05Z</time>
      </trkpt>
      <trkpt lat="46.092581748962402" lon="9.056274890899658">
        <ele>1044.129150390625</ele>
        <time>2008-07-20T14:23:08Z</time>
      </trkpt>
      <trkpt lat="46.09238862991333" lon="9.055824279785156">
        <ele>1039.322509765625</ele>
        <time>2008-07-20T14:23:12Z</time>
      </trkpt>
      <trkpt lat="46.092195510864258" lon="9.054923057556152">
        <ele>1031.6318359375</ele>
        <time>2008-07-20T14:23:20Z</time>
      </trkpt>
      <trkpt lat="46.092195510864258" lon="9.054815769195557">
        <ele>1030.670654296875</ele>
        <time>2008-07-20T14:23:21Z</time>
      </trkpt>
      <trkpt lat="46.092324256896973" lon="9.054322242736816">
        <ele>1025.864013671875</ele>
        <time>2008-07-20T14:23:26Z</time>
      </trkpt>
      <trkpt lat="46.092431545257568" lon="9.054172039031982">
        <ele>1024.422119140625</ele>
        <time>2008-07-20T14:23:28Z</time>
      </trkpt>
      <trkpt lat="46.09288215637207" lon="9.0537428855896">
        <ele>1020.09619140625</ele>
        <time>2008-07-20T14:23:37Z</time>
      </trkpt>
      <trkpt lat="46.093204021453857" lon="9.053421020507813">
        <ele>1013.847412109375</ele>
        <time>2008-07-20T14:23:45Z</time>
      </trkpt>
      <trkpt lat="46.093504428863525" lon="9.053077697753906">
        <ele>1009.041015625</ele>
        <time>2008-07-20T14:23:51Z</time>
      </trkpt>
      <trkpt lat="46.09389066696167" lon="9.05249834060669">
        <ele>1005.19580078125</ele>
        <time>2008-07-20T14:23:58Z</time>
      </trkpt>
      <trkpt lat="46.094405651092529" lon="9.051811695098877">
        <ele>1001.8310546875</ele>
        <time>2008-07-20T14:24:07Z</time>
      </trkpt>
      <trkpt lat="46.095349788665771" lon="9.050974845886231">
        <ele>1000.38916015625</ele>
        <time>2008-07-20T14:24:21Z</time>
      </trkpt>
      <trkpt lat="46.095757484436035" lon="9.050910472869873">
        <ele>999.427734375</ele>
        <time>2008-07-20T14:24:25Z</time>
      </trkpt>
      <trkpt lat="46.096014976501465" lon="9.051532745361328">
        <ele>999.427734375</ele>
        <time>2008-07-20T14:24:27Z</time>
      </trkpt>
      <trkpt lat="46.096465587615967" lon="9.051167964935303">
        <ele>996.5439453125</ele>
        <time>2008-07-20T14:24:32Z</time>
      </trkpt>
      <trkpt lat="46.096658706665039" lon="9.051125049591065">
        <ele>996.063232421875</ele>
        <time>2008-07-20T14:24:34Z</time>
      </trkpt>
      <trkpt lat="46.09689474105835" lon="9.050760269165039">
        <ele>994.140625</ele>
        <time>2008-07-20T14:24:38Z</time>
      </trkpt>
      <trkpt lat="46.096808910369873" lon="9.050438404083252">
        <ele>992.69873046875</ele>
        <time>2008-07-20T14:24:41Z</time>
      </trkpt>
      <trkpt lat="46.096465587615967" lon="9.050095081329346">
        <ele>992.218017578125</ele>
        <time>2008-07-20T14:24:48Z</time>
      </trkpt>
      <trkpt lat="46.096272468566895" lon="9.049923419952393">
        <ele>992.218017578125</ele>
        <time>2008-07-20T14:24:55Z</time>
      </trkpt>
      <trkpt lat="46.096208095550537" lon="9.049901962280273">
        <ele>992.218017578125</ele>
        <time>2008-07-20T14:24:58Z</time>
      </trkpt>
      <trkpt lat="46.096079349517822" lon="9.050073623657227">
        <ele>992.218017578125</ele>
        <time>2008-07-20T14:25:04Z</time>
      </trkpt>
      <trkpt lat="46.095821857452393" lon="9.050159454345703">
        <ele>992.69873046875</ele>
        <time>2008-07-20T14:25:15Z</time>
      </trkpt>
      <trkpt lat="46.095650196075439" lon="9.050009250640869">
        <ele>988.853515625</ele>
        <time>2008-07-20T14:25:23Z</time>
      </trkpt>
      <trkpt lat="46.095371246337891" lon="9.049580097198486">
        <ele>988.853515625</ele>
        <time>2008-07-20T14:25:39Z</time>
      </trkpt>
      <trkpt lat="46.095006465911865" lon="9.048893451690674">
        <ele>988.372802734375</ele>
        <time>2008-07-20T14:26:01Z</time>
      </trkpt>
      <trkpt lat="46.094791889190674" lon="9.048829078674316">
        <ele>988.372802734375</ele>
        <time>2008-07-20T14:26:09Z</time>
      </trkpt>
      <trkpt lat="46.094405651092529" lon="9.048700332641602">
        <ele>989.814697265625</ele>
        <time>2008-07-20T14:26:21Z</time>
      </trkpt>
      <trkpt lat="46.094105243682861" lon="9.048442840576172">
        <ele>991.256591796875</ele>
        <time>2008-07-20T14:26:31Z</time>
      </trkpt>
      <trkpt lat="46.093804836273193" lon="9.048292636871338">
        <ele>992.69873046875</ele>
        <time>2008-07-20T14:26:41Z</time>
      </trkpt>
      <trkpt lat="46.093568801879883" lon="9.048035144805908">
        <ele>994.140625</ele>
        <time>2008-07-20T14:26:50Z</time>
      </trkpt>
      <trkpt lat="46.093332767486572" lon="9.04773473739624">
        <ele>994.62109375</ele>
        <time>2008-07-20T14:27:00Z</time>
      </trkpt>
      <trkpt lat="46.0931396484375" lon="9.047584533691406">
        <ele>995.101806640625</ele>
        <time>2008-07-20T14:27:06Z</time>
      </trkpt>
      <trkpt lat="46.092774868011475" lon="9.047369956970215">
        <ele>995.58251953125</ele>
        <time>2008-07-20T14:27:16Z</time>
      </trkpt>
      <trkpt lat="46.092517375946045" lon="9.047155380249023">
        <ele>995.101806640625</ele>
        <time>2008-07-20T14:27:24Z</time>
      </trkpt>
      <trkpt lat="46.092302799224854" lon="9.046854972839356">
        <ele>994.62109375</ele>
        <time>2008-07-20T14:27:34Z</time>
      </trkpt>
      <trkpt lat="46.092195510864258" lon="9.046618938446045">
        <ele>994.62109375</ele>
        <time>2008-07-20T14:27:40Z</time>
      </trkpt>
      <trkpt lat="46.092195510864258" lon="9.046275615692139">
        <ele>995.101806640625</ele>
        <time>2008-07-20T14:27:47Z</time>
      </trkpt>
      <trkpt lat="46.092345714569092" lon="9.046018123626709">
        <ele>995.101806640625</ele>
        <time>2008-07-20T14:27:53Z</time>
      </trkpt>
      <trkpt lat="46.092495918273926" lon="9.045674800872803">
        <ele>995.101806640625</ele>
        <time>2008-07-20T14:27:59Z</time>
      </trkpt>
      <trkpt lat="46.092753410339355" lon="9.044880867004395">
        <ele>995.101806640625</ele>
        <time>2008-07-20T14:28:11Z</time>
      </trkpt>
      <trkpt lat="46.092925071716309" lon="9.044044017791748">
        <ele>995.101806640625</ele>
        <time>2008-07-20T14:28:23Z</time>
      </trkpt>
      <trkpt lat="46.093053817749023" lon="9.043571949005127">
        <ele>994.62109375</ele>
        <time>2008-07-20T14:28:29Z</time>
      </trkpt>
      <trkpt lat="46.092989444732666" lon="9.043078422546387">
        <ele>994.140625</ele>
        <time>2008-07-20T14:28:36Z</time>
      </trkpt>
      <trkpt lat="46.092967987060547" lon="9.042885303497315">
        <ele>994.140625</ele>
        <time>2008-07-20T14:28:39Z</time>
      </trkpt>
      <trkpt lat="46.092667579650879" lon="9.042735099792481">
        <ele>994.140625</ele>
        <time>2008-07-20T14:28:45Z</time>
      </trkpt>
      <trkpt lat="46.091830730438232" lon="9.042799472808838">
        <ele>995.58251953125</ele>
        <time>2008-07-20T14:28:53Z</time>
      </trkpt>
      <trkpt lat="46.091830730438232" lon="9.042434692382813">
        <ele>995.101806640625</ele>
        <time>2008-07-20T14:28:58Z</time>
      </trkpt>
      <trkpt lat="46.091744899749756" lon="9.042220115661621">
        <ele>995.101806640625</ele>
        <time>2008-07-20T14:29:01Z</time>
      </trkpt>
      <trkpt lat="46.091551780700684" lon="9.042284488677979">
        <ele>995.101806640625</ele>
        <time>2008-07-20T14:29:05Z</time>
      </trkpt>
      <trkpt lat="46.091165542602539" lon="9.042413234710693">
        <ele>995.101806640625</ele>
        <time>2008-07-20T14:29:13Z</time>
      </trkpt>
      <trkpt lat="46.091015338897705" lon="9.042434692382813">
        <ele>997.0244140625</ele>
        <time>2008-07-20T14:29:16Z</time>
      </trkpt>
      <trkpt lat="46.090865135192871" lon="9.042391777038574">
        <ele>997.0244140625</ele>
        <time>2008-07-20T14:29:19Z</time>
      </trkpt>
      <trkpt lat="46.090564727783203" lon="9.041855335235596">
        <ele>996.063232421875</ele>
        <time>2008-07-20T14:29:28Z</time>
      </trkpt>
      <trkpt lat="46.090371608734131" lon="9.041190147399902">
        <ele>993.659912109375</ele>
        <time>2008-07-20T14:29:38Z</time>
      </trkpt>
      <trkpt lat="46.090178489685059" lon="9.040160179138184">
        <ele>992.218017578125</ele>
        <time>2008-07-20T14:29:53Z</time>
      </trkpt>
      <trkpt lat="46.090092658996582" lon="9.039430618286133">
        <ele>991.7373046875</ele>
        <time>2008-07-20T14:30:01Z</time>
      </trkpt>
      <trkpt lat="46.090006828308105" lon="9.038894176483154">
        <ele>991.256591796875</ele>
        <time>2008-07-20T14:30:07Z</time>
      </trkpt>
      <trkpt lat="46.090028285980225" lon="9.038228988647461">
        <ele>991.256591796875</ele>
        <time>2008-07-20T14:30:15Z</time>
      </trkpt>
      <trkpt lat="46.090028285980225" lon="9.037864208221436">
        <ele>990.29541015625</ele>
        <time>2008-07-20T14:30:20Z</time>
      </trkpt>
      <trkpt lat="46.089942455291748" lon="9.037606716156006">
        <ele>990.29541015625</ele>
        <time>2008-07-20T14:30:24Z</time>
      </trkpt>
      <trkpt lat="46.089792251586914" lon="9.036855697631836">
        <ele>989.333984375</ele>
        <time>2008-07-20T14:30:34Z</time>
      </trkpt>
      <trkpt lat="46.089749336242676" lon="9.036083221435547">
        <ele>988.853515625</ele>
        <time>2008-07-20T14:30:43Z</time>
      </trkpt>
      <trkpt lat="46.089684963226318" lon="9.035375118255615">
        <ele>987.891845703125</ele>
        <time>2008-07-20T14:30:52Z</time>
      </trkpt>
      <trkpt lat="46.08964204788208" lon="9.035117626190186">
        <ele>985.96923828125</ele>
        <time>2008-07-20T14:30:55Z</time>
      </trkpt>
      <trkpt lat="46.089727878570557" lon="9.034667015075684">
        <ele>982.604736328125</ele>
        <time>2008-07-20T14:30:59Z</time>
      </trkpt>
      <trkpt lat="46.089942455291748" lon="9.034495353698731">
        <ele>980.201416015625</ele>
        <time>2008-07-20T14:31:02Z</time>
      </trkpt>
      <trkpt lat="46.09013557434082" lon="9.034473896026611">
        <ele>979.239990234375</ele>
        <time>2008-07-20T14:31:04Z</time>
      </trkpt>
      <trkpt lat="46.090414524078369" lon="9.034388065338135">
        <ele>977.798095703125</ele>
        <time>2008-07-20T14:31:07Z</time>
      </trkpt>
      <trkpt lat="46.090693473815918" lon="9.034152030944824">
        <ele>976.8369140625</ele>
        <time>2008-07-20T14:31:10Z</time>
      </trkpt>
      <trkpt lat="46.091165542602539" lon="9.033336639404297">
        <ele>975.87548828125</ele>
        <time>2008-07-20T14:31:16Z</time>
      </trkpt>
      <trkpt lat="46.091272830963135" lon="9.032778739929199">
        <ele>975.394775390625</ele>
        <time>2008-07-20T14:31:20Z</time>
      </trkpt>
      <trkpt lat="46.091015338897705" lon="9.032649993896484">
        <ele>975.394775390625</ele>
        <time>2008-07-20T14:31:25Z</time>
      </trkpt>
      <trkpt lat="46.090757846832275" lon="9.032607078552246">
        <ele>974.43359375</ele>
        <time>2008-07-20T14:31:31Z</time>
      </trkpt>
      <trkpt lat="46.090543270111084" lon="9.032392501831055">
        <ele>972.0302734375</ele>
        <time>2008-07-20T14:31:39Z</time>
      </trkpt>
      <trkpt lat="46.090178489685059" lon="9.03200626373291">
        <ele>972.0302734375</ele>
        <time>2008-07-20T14:31:53Z</time>
      </trkpt>
      <trkpt lat="46.090071201324463" lon="9.031705856323242">
        <ele>970.588134765625</ele>
        <time>2008-07-20T14:32:05Z</time>
      </trkpt>
      <trkpt lat="46.089813709259033" lon="9.031362533569336">
        <ele>973.472412109375</ele>
        <time>2008-07-20T14:32:27Z</time>
      </trkpt>
      <trkpt lat="46.089749336242676" lon="9.031319618225098">
        <ele>973.952880859375</ele>
        <time>2008-07-20T14:32:32Z</time>
      </trkpt>
      <trkpt lat="46.089684963226318" lon="9.031362533569336">
        <ele>978.27880859375</ele>
        <time>2008-07-20T14:32:35Z</time>
      </trkpt>
      <trkpt lat="46.08964204788208" lon="9.031319618225098">
        <ele>979.239990234375</ele>
        <time>2008-07-20T14:32:42Z</time>
      </trkpt>
      <trkpt lat="46.089534759521484" lon="9.031233787536621">
        <ele>978.27880859375</ele>
        <time>2008-07-20T14:32:54Z</time>
      </trkpt>
      <trkpt lat="46.08940601348877" lon="9.031147956848145">
        <ele>978.27880859375</ele>
        <time>2008-07-20T14:33:07Z</time>
      </trkpt>
      <trkpt lat="46.089255809783936" lon="9.03101921081543">
        <ele>980.68212890625</ele>
        <time>2008-07-20T14:33:23Z</time>
      </trkpt>
      <trkpt lat="46.089127063751221" lon="9.030933380126953">
        <ele>979.239990234375</ele>
        <time>2008-07-20T14:33:36Z</time>
      </trkpt>
      <trkpt lat="46.088998317718506" lon="9.030869007110596">
        <ele>979.720703125</ele>
        <time>2008-07-20T14:33:49Z</time>
      </trkpt>
      <trkpt lat="46.088848114013672" lon="9.03076171875">
        <ele>982.604736328125</ele>
        <time>2008-07-20T14:34:05Z</time>
      </trkpt>
      <trkpt lat="46.088805198669434" lon="9.030718803405762">
        <ele>982.1240234375</ele>
        <time>2008-07-20T14:34:11Z</time>
      </trkpt>
      <trkpt lat="46.088762283325195" lon="9.030439853668213">
        <ele>982.604736328125</ele>
        <time>2008-07-20T14:34:25Z</time>
      </trkpt>
      <trkpt lat="46.088740825653076" lon="9.030139446258545">
        <ele>984.52734375</ele>
        <time>2008-07-20T14:34:41Z</time>
      </trkpt>
      <trkpt lat="46.088697910308838" lon="9.029860496520996">
        <ele>986.930419921875</ele>
        <time>2008-07-20T14:34:58Z</time>
      </trkpt>
      <trkpt lat="46.0886549949646" lon="9.029624462127686">
        <ele>989.814697265625</ele>
        <time>2008-07-20T14:35:12Z</time>
      </trkpt>
      <trkpt lat="46.08863353729248" lon="9.029409885406494">
        <ele>987.891845703125</ele>
        <time>2008-07-20T14:35:25Z</time>
      </trkpt>
      <trkpt lat="46.088590621948242" lon="9.029173851013184">
        <ele>991.7373046875</ele>
        <time>2008-07-20T14:35:38Z</time>
      </trkpt>
      <trkpt lat="46.088547706604004" lon="9.028980731964111">
        <ele>994.140625</ele>
        <time>2008-07-20T14:35:50Z</time>
      </trkpt>
      <trkpt lat="46.088526248931885" lon="9.028809070587158">
        <ele>997.98583984375</ele>
        <time>2008-07-20T14:36:01Z</time>
      </trkpt>
      <trkpt lat="46.088526248931885" lon="9.02850866317749">
        <ele>1000.86962890625</ele>
        <time>2008-07-20T14:36:19Z</time>
      </trkpt>
      <trkpt lat="46.088504791259766" lon="9.028251171112061">
        <ele>1005.676513671875</ele>
        <time>2008-07-20T14:36:34Z</time>
      </trkpt>
      <trkpt lat="46.088504791259766" lon="9.028036594390869">
        <ele>1008.079833984375</ele>
        <time>2008-07-20T14:36:47Z</time>
      </trkpt>
      <trkpt lat="46.088483333587646" lon="9.027843475341797">
        <ele>1010.963623046875</ele>
        <time>2008-07-20T14:36:59Z</time>
      </trkpt>
      <trkpt lat="46.088504791259766" lon="9.027628898620606">
        <ele>1009.041015625</ele>
        <time>2008-07-20T14:37:14Z</time>
      </trkpt>
      <trkpt lat="46.088526248931885" lon="9.027435779571533">
        <ele>1009.041015625</ele>
        <time>2008-07-20T14:37:28Z</time>
      </trkpt>
      <trkpt lat="46.088461875915527" lon="9.027178287506104">
        <ele>1012.405517578125</ele>
        <time>2008-07-20T14:37:44Z</time>
      </trkpt>
      <trkpt lat="46.088440418243408" lon="9.02702808380127">
        <ele>1010.963623046875</ele>
        <time>2008-07-20T14:37:54Z</time>
      </trkpt>
      <trkpt lat="46.08839750289917" lon="9.026749134063721">
        <ele>1013.366943359375</ele>
        <time>2008-07-20T14:38:11Z</time>
      </trkpt>
      <trkpt lat="46.088354587554932" lon="9.026491641998291">
        <ele>1013.847412109375</ele>
        <time>2008-07-20T14:38:27Z</time>
      </trkpt>
      <trkpt lat="46.088311672210693" lon="9.0262770652771">
        <ele>1013.366943359375</ele>
        <time>2008-07-20T14:38:42Z</time>
      </trkpt>
      <trkpt lat="46.088311672210693" lon="9.025998115539551">
        <ele>1015.770263671875</ele>
        <time>2008-07-20T14:38:59Z</time>
      </trkpt>
      <trkpt lat="46.088311672210693" lon="9.025719165802002">
        <ele>1016.250732421875</ele>
        <time>2008-07-20T14:39:15Z</time>
      </trkpt>
      <trkpt lat="46.088290214538574" lon="9.025461673736572">
        <ele>1019.615478515625</ele>
        <time>2008-07-20T14:39:31Z</time>
      </trkpt>
      <trkpt lat="46.088204383850098" lon="9.025290012359619">
        <ele>1022.018798828125</ele>
        <time>2008-07-20T14:39:45Z</time>
      </trkpt>
      <trkpt lat="46.088118553161621" lon="9.025053977966309">
        <ele>1024.422119140625</ele>
        <time>2008-07-20T14:40:02Z</time>
      </trkpt>
      <trkpt lat="46.088011264801025" lon="9.024732112884522">
        <ele>1026.825439453125</ele>
        <time>2008-07-20T14:40:24Z</time>
      </trkpt>
      <trkpt lat="46.087968349456787" lon="9.024474620819092">
        <ele>1029.709228515625</ele>
        <time>2008-07-20T14:40:39Z</time>
      </trkpt>
      <trkpt lat="46.087925434112549" lon="9.024238586425781">
        <ele>1031.6318359375</ele>
        <time>2008-07-20T14:40:53Z</time>
      </trkpt>
      <trkpt lat="46.08790397644043" lon="9.02402400970459">
        <ele>1033.554443359375</ele>
        <time>2008-07-20T14:41:05Z</time>
      </trkpt>
      <trkpt lat="46.08790397644043" lon="9.023809432983398">
        <ele>1035.957763671875</ele>
        <time>2008-07-20T14:41:18Z</time>
      </trkpt>
      <trkpt lat="46.087968349456787" lon="9.023616313934326">
        <ele>1037.39990234375</ele>
        <time>2008-07-20T14:41:30Z</time>
      </trkpt>
      <trkpt lat="46.088075637817383" lon="9.023380279541016">
        <ele>1039.322509765625</ele>
        <time>2008-07-20T14:41:45Z</time>
      </trkpt>
      <trkpt lat="46.088225841522217" lon="9.023122787475586">
        <ele>1041.725830078125</ele>
        <time>2008-07-20T14:42:03Z</time>
      </trkpt>
      <trkpt lat="46.088290214538574" lon="9.022929668426514">
        <ele>1042.687255859375</ele>
        <time>2008-07-20T14:42:11Z</time>
      </trkpt>
      <trkpt lat="46.088290214538574" lon="9.022650718688965">
        <ele>1042.20654296875</ele>
        <time>2008-07-20T14:42:19Z</time>
      </trkpt>
      <trkpt lat="46.088247299194336" lon="9.02228593826294">
        <ele>1041.2451171875</ele>
        <time>2008-07-20T14:42:28Z</time>
      </trkpt>
      <trkpt lat="46.088075637817383" lon="9.021663665771484">
        <ele>1040.764404296875</ele>
        <time>2008-07-20T14:42:40Z</time>
      </trkpt>
      <trkpt lat="46.087946891784668" lon="9.021298885345459">
        <ele>1039.80322265625</ele>
        <time>2008-07-20T14:42:45Z</time>
      </trkpt>
      <trkpt lat="46.087539196014404" lon="9.020547866821289">
        <ele>1037.39990234375</ele>
        <time>2008-07-20T14:42:52Z</time>
      </trkpt>
      <trkpt lat="46.087474822998047" lon="9.020419120788574">
        <ele>1037.39990234375</ele>
        <time>2008-07-20T14:42:53Z</time>
      </trkpt>
      <trkpt lat="46.087131500244141" lon="9.019174575805664">
        <ele>1033.07373046875</ele>
        <time>2008-07-20T14:43:02Z</time>
      </trkpt>
      <trkpt lat="46.086959838867188" lon="9.017736911773682">
        <ele>1026.3447265625</ele>
        <time>2008-07-20T14:43:11Z</time>
      </trkpt>
      <trkpt lat="46.086831092834473" lon="9.016942977905273">
        <ele>1024.422119140625</ele>
        <time>2008-07-20T14:43:16Z</time>
      </trkpt>
      <trkpt lat="46.086487770080566" lon="9.01604175567627">
        <ele>1022.018798828125</ele>
        <time>2008-07-20T14:43:23Z</time>
      </trkpt>
      <trkpt lat="46.08588695526123" lon="9.014904499053955">
        <ele>1020.09619140625</ele>
        <time>2008-07-20T14:43:32Z</time>
      </trkpt>
      <trkpt lat="46.085457801818848" lon="9.01378870010376">
        <ele>1014.328125</ele>
        <time>2008-07-20T14:43:39Z</time>
      </trkpt>
      <trkpt lat="46.084792613983154" lon="9.012093544006348">
        <ele>1013.366943359375</ele>
        <time>2008-07-20T14:43:50Z</time>
      </trkpt>
      <trkpt lat="46.084685325622559" lon="9.011406898498535">
        <ele>1013.366943359375</ele>
        <time>2008-07-20T14:43:54Z</time>
      </trkpt>
      <trkpt lat="46.084384918212891" lon="9.010827541351318">
        <ele>1013.366943359375</ele>
        <time>2008-07-20T14:43:58Z</time>
      </trkpt>
      <trkpt lat="46.083762645721436" lon="9.009926319122315">
        <ele>1013.366943359375</ele>
        <time>2008-07-20T14:44:06Z</time>
      </trkpt>
      <trkpt lat="46.083505153656006" lon="9.008252620697022">
        <ele>1002.3115234375</ele>
        <time>2008-07-20T14:44:15Z</time>
      </trkpt>
      <trkpt lat="46.08339786529541" lon="9.006857872009277">
        <ele>998.947021484375</ele>
        <time>2008-07-20T14:44:22Z</time>
      </trkpt>
      <trkpt lat="46.083269119262695" lon="9.006085395812988">
        <ele>997.98583984375</ele>
        <time>2008-07-20T14:44:26Z</time>
      </trkpt>
      <trkpt lat="46.083290576934814" lon="9.005248546600342">
        <ele>997.505126953125</ele>
        <time>2008-07-20T14:44:31Z</time>
      </trkpt>
      <trkpt lat="46.083483695983887" lon="9.003746509552002">
        <ele>997.0244140625</ele>
        <time>2008-07-20T14:44:40Z</time>
      </trkpt>
      <trkpt lat="46.083505153656006" lon="9.00355339050293">
        <ele>997.0244140625</ele>
        <time>2008-07-20T14:44:41Z</time>
      </trkpt>
      <trkpt lat="46.08414888381958" lon="9.00230884552002">
        <ele>997.0244140625</ele>
        <time>2008-07-20T14:44:49Z</time>
      </trkpt>
      <trkpt lat="46.084685325622559" lon="9.002115726470947">
        <ele>992.69873046875</ele>
        <time>2008-07-20T14:44:53Z</time>
      </trkpt>
      <trkpt lat="46.08440637588501" lon="9.002223014831543">
        <ele>991.256591796875</ele>
        <time>2008-07-20T14:44:56Z</time>
      </trkpt>
      <trkpt lat="46.084127426147461" lon="9.002587795257568">
        <ele>990.77587890625</ele>
        <time>2008-07-20T14:44:59Z</time>
      </trkpt>
      <trkpt lat="46.083676815032959" lon="9.002823829650879">
        <ele>990.29541015625</ele>
        <time>2008-07-20T14:45:03Z</time>
      </trkpt>
      <trkpt lat="46.082775592803955" lon="9.003574848175049">
        <ele>878.3017578125</ele>
        <time>2008-07-20T14:45:17Z</time>
      </trkpt>
      <trkpt lat="46.08264684677124" lon="9.003317356109619">
        <ele>878.3017578125</ele>
        <time>2008-07-20T14:45:19Z</time>
      </trkpt>
      <trkpt lat="46.082324981689453" lon="9.003210067749023">
        <ele>878.3017578125</ele>
        <time>2008-07-20T14:45:22Z</time>
      </trkpt>
      <trkpt lat="46.081981658935547" lon="9.002823829650879">
        <ele>867.72705078125</ele>
        <time>2008-07-20T14:45:26Z</time>
      </trkpt>
      <trkpt lat="46.08189582824707" lon="9.002695083618164">
        <ele>867.24658203125</ele>
        <time>2008-07-20T14:45:27Z</time>
      </trkpt>
      <trkpt lat="46.081252098083496" lon="9.00205135345459">
        <ele>860.517333984375</ele>
        <time>2008-07-20T14:45:33Z</time>
      </trkpt>
      <trkpt lat="46.080930233001709" lon="9.001729488372803">
        <ele>858.594482421875</ele>
        <time>2008-07-20T14:45:36Z</time>
      </trkpt>
      <trkpt lat="46.080372333526611" lon="9.000935554504395">
        <ele>852.82666015625</ele>
        <time>2008-07-20T14:45:42Z</time>
      </trkpt>
      <trkpt lat="46.080222129821777" lon="9.000720977783203">
        <ele>851.865478515625</ele>
        <time>2008-07-20T14:45:44Z</time>
      </trkpt>
      <trkpt lat="46.079771518707275" lon="8.999841213226318">
        <ele>847.058837890625</ele>
        <time>2008-07-20T14:45:51Z</time>
      </trkpt>
      <trkpt lat="46.078870296478271" lon="8.998231887817383">
        <ele>840.32958984375</ele>
        <time>2008-07-20T14:46:04Z</time>
      </trkpt>
      <trkpt lat="46.07839822769165" lon="8.99730920791626">
        <ele>833.11962890625</ele>
        <time>2008-07-20T14:46:11Z</time>
      </trkpt>
      <trkpt lat="46.078226566314697" lon="8.996751308441162">
        <ele>830.716552734375</ele>
        <time>2008-07-20T14:46:15Z</time>
      </trkpt>
      <trkpt lat="46.078119277954102" lon="8.996665477752686">
        <ele>829.755126953125</ele>
        <time>2008-07-20T14:46:17Z</time>
      </trkpt>
      <trkpt lat="46.078011989593506" lon="8.996772766113281">
        <ele>829.2744140625</ele>
        <time>2008-07-20T14:46:19Z</time>
      </trkpt>
      <trkpt lat="46.078033447265625" lon="8.997008800506592">
        <ele>828.7939453125</ele>
        <time>2008-07-20T14:46:22Z</time>
      </trkpt>
      <trkpt lat="46.078248023986816" lon="8.997952938079834">
        <ele>824.4677734375</ele>
        <time>2008-07-20T14:46:29Z</time>
      </trkpt>
      <trkpt lat="46.078462600708008" lon="8.99904727935791">
        <ele>814.3740234375</ele>
        <time>2008-07-20T14:46:35Z</time>
      </trkpt>
      <trkpt lat="46.078569889068604" lon="8.999476432800293">
        <ele>811.489990234375</ele>
        <time>2008-07-20T14:46:38Z</time>
      </trkpt>
      <trkpt lat="46.078526973724365" lon="8.999626636505127">
        <ele>809.5673828125</ele>
        <time>2008-07-20T14:46:41Z</time>
      </trkpt>
      <trkpt lat="46.078484058380127" lon="8.999583721160889">
        <ele>809.5673828125</ele>
        <time>2008-07-20T14:46:42Z</time>
      </trkpt>
      <trkpt lat="46.078290939331055" lon="8.999133110046387">
        <ele>805.72216796875</ele>
        <time>2008-07-20T14:46:48Z</time>
      </trkpt>
      <trkpt lat="46.077947616577148" lon="8.998253345489502">
        <ele>799.4736328125</ele>
        <time>2008-07-20T14:46:57Z</time>
      </trkpt>
      <trkpt lat="46.077539920806885" lon="8.997094631195068">
        <ele>792.744384765625</ele>
        <time>2008-07-20T14:47:06Z</time>
      </trkpt>
      <trkpt lat="46.07715368270874" lon="8.995935916900635">
        <ele>786.976318359375</ele>
        <time>2008-07-20T14:47:14Z</time>
      </trkpt>
      <trkpt lat="46.076982021331787" lon="8.995270729064941">
        <ele>785.534423828125</ele>
        <time>2008-07-20T14:47:18Z</time>
      </trkpt>
      <trkpt lat="46.076874732971191" lon="8.994970321655273">
        <ele>784.5732421875</ele>
        <time>2008-07-20T14:47:20Z</time>
      </trkpt>
      <trkpt lat="46.076638698577881" lon="8.994369506835938">
        <ele>779.28564453125</ele>
        <time>2008-07-20T14:47:24Z</time>
      </trkpt>
      <trkpt lat="46.076381206512451" lon="8.993360996246338">
        <ele>773.51806640625</ele>
        <time>2008-07-20T14:47:30Z</time>
      </trkpt>
      <trkpt lat="46.075994968414307" lon="8.992545604705811">
        <ele>772.075927734375</ele>
        <time>2008-07-20T14:47:35Z</time>
      </trkpt>
      <trkpt lat="46.075780391693115" lon="8.99205207824707">
        <ele>771.11474609375</ele>
        <time>2008-07-20T14:47:38Z</time>
      </trkpt>
      <trkpt lat="46.075587272644043" lon="8.990979194641113">
        <ele>765.82763671875</ele>
        <time>2008-07-20T14:47:44Z</time>
      </trkpt>
      <trkpt lat="46.075587272644043" lon="8.990678787231445">
        <ele>762.462646484375</ele>
        <time>2008-07-20T14:47:47Z</time>
      </trkpt>
      <trkpt lat="46.075587272644043" lon="8.990657329559326">
        <ele>759.578857421875</ele>
        <time>2008-07-20T14:47:50Z</time>
      </trkpt>
      <trkpt lat="46.075608730316162" lon="8.990657329559326">
        <ele>758.136962890625</ele>
        <time>2008-07-20T14:47:54Z</time>
      </trkpt>
    </trkseg>
  </trk>

</gpx>
